[[{"header":{"parameterUnit":"m.s-1","parameterCategory":1,"la1":30.6,"la2":29.2853,"lo1":-89.7004,"lo2":-87.6739,"dy":0.0162,"dx":0.0183,"nx":112,"ny":82,"refTime":"2023-08-11T06:00:00:Z","depth":0,"parameterNumber":2,"parameterNumberName":"U-component_of_WINDS"},"data":[0.0,0.0,0.0,0.0,0.0,0.0,0.0,0.0,0.0,0.0,0.0,0.0,0.0,0.0,0.0,0.0,0.0,0.0,0.0,0.0,0.0,0.0,0.0,0.0,0.0,0.0,0.0,0.0,0.0,0.0,0.0,0.0,0.0,0.0,0.0,0.0,0.0,0.0,0.0,0.0,0.0,0.0,0.0,0.0,0.0,0.0,0.0,0.0,0.0,0.0,0.0,0.0,0.0,0.0,0.0,0.0,0.0,0.0,0.0,0.0,0.0,0.0,0.0,0.0,0.0,0.0,0.0,0.0,0.0,0.0,0.0,0.0,0.0,0.0,0.0,0.0,0.0,0.0,0.0,0.0,0.0,0.0,0.0,0.0,0.0,0.0,0.0,0.0,0.0,0.0,0.0,-3.0387,-3.5661,-3.8652,-3.8038,-3.8243,-3.6319,-3.1487,0.0,0.0,0.0,0.0,0.0,0.0,0.0,0.0,0.0,0.0,0.0,0.0,0.0,0.0,0.0,0.0,0.0,0.0,0.0,0.0,0.0,0.0,0.0,0.0,0.0,0.0,0.0,0.0,0.0,0.0,0.0,0.0,0.0,0.0,0.0,0.0,0.0,0.0,0.0,0.0,0.0,0.0,0.0,0.0,0.0,0.0,0.0,0.0,0.0,0.0,0.0,0.0,0.0,0.0,0.0,0.0,0.0,0.0,0.0,0.0,0.0,0.0,0.0,0.0,0.0,0.0,0.0,0.0,0.0,0.0,0.0,0.0,0.0,0.0,0.0,0.0,0.0,0.0,0.0,0.0,0.0,0.0,0.0,0.0,0.0,0.0,0.0,0.0,0.0,0.0,0.0,0.0,0.0,0.0,0.0,0.0,0.0,0.0,0.0,0.0,0.0,0.0,0.0,0.0,-2.7487,-3.0783,-3.4176,-3.6161,-3.6024,-3.416,-3.2329,-3.0716,0.0,0.0,0.0,0.0,0.0,0.0,0.0,0.0,0.0,0.0,0.0,0.0,0.0,0.0,0.0,0.0,0.0,0.0,0.0,0.0,0.0,0.0,0.0,0.0,0.0,0.0,0.0,0.0,0.0,0.0,0.0,0.0,0.0,0.0,0.0,0.0,0.0,0.0,0.0,0.0,0.0,0.0,0.0,0.0,0.0,0.0,0.0,0.0,0.0,0.0,0.0,0.0,0.0,0.0,0.0,0.0,0.0,0.0,0.0,0.0,0.0,0.0,0.0,0.0,0.0,0.0,0.0,0.0,0.0,0.0,0.0,0.0,0.0,0.0,0.0,0.0,0.0,0.0,0.0,0.0,0.0,0.0,0.0,0.0,0.0,0.0,0.0,0.0,0.0,0.0,0.0,0.0,0.0,0.0,0.0,0.0,0.0,0.0,0.0,0.0,0.0,0.0,0.0,-2.8687,-3.0108,-3.2713,-3.4945,-3.6062,-3.5633,-3.4155,-3.2573,-3.0984,-2.9984,0.0,0.0,0.0,0.0,0.0,0.0,0.0,0.0,0.0,0.0,0.0,0.0,0.0,0.0,0.0,0.0,0.0,0.0,0.0,0.0,0.0,0.0,0.0,0.0,0.0,0.0,0.0,0.0,0.0,0.0,0.0,0.0,0.0,0.0,0.0,0.0,0.0,0.0,0.0,0.0,0.0,0.0,0.0,0.0,0.0,0.0,0.0,0.0,0.0,0.0,0.0,0.0,0.0,0.0,0.0,0.0,0.0,0.0,0.0,0.0,0.0,0.0,0.0,0.0,0.0,0.0,0.0,0.0,0.0,0.0,0.0,0.0,0.0,0.0,0.0,0.0,0.0,0.0,0.0,0.0,0.0,0.0,0.0,0.0,0.0,0.0,0.0,0.0,0.0,0.0,0.0,0.0,0.0,0.0,0.0,0.0,0.0,0.0,0.0,0.0,0.0,0.0,-3.0717,-3.1833,-3.4235,-3.5712,-3.6265,-3.5633,-3.4303,-3.2814,-3.1292,-2.9076,0.0,0.0,0.0,0.0,0.0,0.0,0.0,0.0,0.0,0.0,0.0,0.0,0.0,0.0,0.0,0.0,0.0,0.0,0.0,0.0,0.0,0.0,0.0,0.0,0.0,0.0,0.0,0.0,0.0,0.0,0.0,0.0,0.0,0.0,0.0,0.0,0.0,0.0,0.0,0.0,0.0,0.0,0.0,0.0,0.0,0.0,0.0,0.0,0.0,0.0,0.0,0.0,0.0,0.0,0.0,0.0,0.0,0.0,0.0,0.0,0.0,0.0,0.0,0.0,0.0,0.0,0.0,0.0,0.0,0.0,0.0,0.0,0.0,0.0,0.0,0.0,0.0,0.0,0.0,0.0,0.0,0.0,0.0,0.0,0.0,0.0,0.0,0.0,0.0,0.0,0.0,0.0,0.0,0.0,0.0,0.0,0.0,0.0,0.0,0.0,0.0,0.0,-3.0581,-3.1292,-3.4167,-3.5216,-3.5667,-3.56,-3.2388,-3.0649,-3.1157,-2.815,0.0,0.0,0.0,0.0,0.0,0.0,0.0,0.0,0.0,0.0,0.0,0.0,0.0,0.0,0.0,0.0,0.0,0.0,0.0,0.0,0.0,0.0,0.0,0.0,0.0,0.0,0.0,0.0,0.0,0.0,0.0,0.0,0.0,0.0,0.0,0.0,0.0,0.0,0.0,0.0,0.0,0.0,0.0,0.0,0.0,0.0,0.0,0.0,0.0,0.0,0.0,0.0,0.0,0.0,0.0,0.0,0.0,0.0,0.0,0.0,0.0,0.0,0.0,0.0,0.0,0.0,0.0,0.0,0.0,0.0,0.0,0.0,0.0,0.0,0.0,0.0,0.0,0.0,0.0,0.0,0.0,0.0,0.0,0.0,0.0,0.0,0.0,0.0,0.0,0.0,0.0,0.0,0.0,0.0,0.0,0.0,0.0,0.0,0.0,0.0,0.0,0.0,-3.165,-3.2239,0.0,-3.5182,-3.56,-3.56,-3.3051,-3.1393,-3.119,0.0,0.0,0.0,0.0,0.0,0.0,0.0,0.0,0.0,0.0,0.0,0.0,0.0,0.0,0.0,0.0,0.0,0.0,0.0,0.0,0.0,0.0,0.0,0.0,0.0,0.0,0.0,0.0,0.0,0.0,0.0,0.0,0.0,0.0,0.0,0.0,0.0,0.0,0.0,0.0,0.0,0.0,0.0,0.0,0.0,0.0,0.0,0.0,0.0,0.0,0.0,0.0,0.0,0.0,0.0,0.0,0.0,0.0,0.0,0.0,0.0,0.0,0.0,0.0,0.0,0.0,0.0,0.0,0.0,0.0,0.0,0.0,0.0,0.0,0.0,0.0,0.0,0.0,0.0,0.0,0.0,0.0,0.0,0.0,0.0,0.0,0.0,0.0,0.0,0.0,0.0,0.0,0.0,0.0,0.0,0.0,0.0,0.0,0.0,0.0,0.0,0.0,-3.2114,-3.2124,-3.2699,0.0,-3.5295,-3.56,-3.56,-3.3152,-3.1582,-3.1549,0.0,0.0,0.0,0.0,0.0,0.0,0.0,0.0,0.0,0.0,0.0,0.0,0.0,0.0,0.0,0.0,0.0,0.0,0.0,0.0,0.0,0.0,0.0,0.0,0.0,0.0,0.0,0.0,0.0,0.0,0.0,0.0,0.0,0.0,0.0,0.0,0.0,0.0,0.0,0.0,0.0,0.0,0.0,0.0,0.0,0.0,0.0,0.0,0.0,0.0,0.0,0.0,0.0,0.0,0.0,0.0,0.0,0.0,0.0,0.0,0.0,0.0,0.0,0.0,0.0,0.0,0.0,0.0,0.0,0.0,0.0,0.0,0.0,0.0,0.0,0.0,0.0,0.0,0.0,0.0,0.0,0.0,0.0,0.0,0.0,0.0,0.0,0.0,0.0,0.0,0.0,0.0,0.0,0.0,0.0,0.0,0.0,0.0,0.0,0.0,0.0,0.0,-3.21,-3.1742,-3.2341,-3.5261,-3.56,-3.56,-3.56,-3.2219,-3.0717,0.0,0.0,0.0,0.0,0.0,0.0,0.0,0.0,0.0,0.0,0.0,0.0,0.0,0.0,0.0,0.0,0.0,0.0,0.0,0.0,0.0,0.0,0.0,0.0,0.0,0.0,0.0,0.0,0.0,0.0,0.0,0.0,0.0,0.0,0.0,0.0,0.0,0.0,0.0,0.0,0.0,0.0,0.0,0.0,0.0,0.0,0.0,0.0,0.0,0.0,0.0,0.0,0.0,0.0,0.0,0.0,0.0,0.0,0.0,0.0,0.0,0.0,0.0,0.0,0.0,0.0,0.0,0.0,0.0,0.0,0.0,0.0,0.0,0.0,0.0,0.0,0.0,0.0,0.0,0.0,0.0,0.0,0.0,0.0,0.0,0.0,0.0,0.0,0.0,0.0,0.0,0.0,0.0,0.0,0.0,0.0,0.0,0.0,0.0,0.0,0.0,0.0,0.0,-3.2034,-3.1685,-3.2138,-3.4573,-3.5318,-3.5397,-3.4878,-3.2408,-3.1055,-3.1515,0.0,0.0,0.0,0.0,0.0,0.0,0.0,0.0,0.0,0.0,0.0,0.0,0.0,0.0,0.0,0.0,0.0,0.0,0.0,0.0,0.0,0.0,0.0,0.0,0.0,0.0,0.0,0.0,0.0,0.0,0.0,0.0,0.0,0.0,0.0,0.0,0.0,0.0,0.0,0.0,0.0,0.0,0.0,0.0,0.0,0.0,0.0,0.0,0.0,0.0,0.0,0.0,0.0,0.0,0.0,0.0,0.0,0.0,0.0,0.0,0.0,0.0,0.0,0.0,0.0,0.0,0.0,0.0,0.0,0.0,0.0,0.0,0.0,0.0,0.0,0.0,0.0,0.0,0.0,0.0,0.0,0.0,0.0,0.0,0.0,0.0,0.0,0.0,0.0,0.0,0.0,0.0,0.0,0.0,0.0,0.0,0.0,0.0,0.0,0.0,0.0,0.0,-3.2064,-3.1678,-3.2171,-3.4675,-3.5329,-3.5307,-3.4611,-3.2286,-3.0877,-3.0916,0.0,0.0,0.0,0.0,0.0,0.0,0.0,0.0,0.0,0.0,0.0,0.0,0.0,0.0,0.0,0.0,0.0,0.0,0.0,0.0,0.0,0.0,0.0,0.0,0.0,0.0,0.0,0.0,0.0,0.0,0.0,0.0,0.0,0.0,0.0,0.0,0.0,0.0,0.0,0.0,0.0,0.0,0.0,0.0,0.0,0.0,0.0,0.0,0.0,0.0,0.0,0.0,0.0,0.0,0.0,0.0,0.0,0.0,0.0,0.0,0.0,0.0,0.0,0.0,0.0,0.0,0.0,0.0,0.0,0.0,0.0,0.0,0.0,0.0,0.0,0.0,0.0,0.0,0.0,0.0,0.0,0.0,0.0,0.0,0.0,0.0,0.0,0.0,0.0,0.0,0.0,0.0,0.0,0.0,0.0,0.0,0.0,0.0,0.0,0.0,0.0,0.0,-3.2142,-3.1671,-3.2205,-3.5105,-3.5407,-3.5134,-3.4371,-3.1924,-3.0359,-3.0321,0.0,0.0,0.0,0.0,0.0,0.0,0.0,0.0,0.0,0.0,0.0,0.0,0.0,0.0,0.0,0.0,0.0,0.0,0.0,0.0,0.0,0.0,0.0,0.0,0.0,0.0,0.0,0.0,0.0,0.0,0.0,0.0,0.0,0.0,0.0,0.0,0.0,0.0,0.0,0.0,0.0,0.0,0.0,0.0,0.0,0.0,0.0,0.0,0.0,0.0,0.0,0.0,0.0,0.0,0.0,0.0,0.0,0.0,0.0,0.0,-4.1562,0.0,0.0,0.0,0.0,0.0,0.0,0.0,0.0,0.0,0.0,0.0,0.0,0.0,0.0,0.0,0.0,0.0,0.0,0.0,0.0,0.0,0.0,0.0,0.0,0.0,0.0,0.0,0.0,0.0,0.0,0.0,0.0,0.0,0.0,0.0,0.0,0.0,0.0,0.0,0.0,0.0,-3.2256,-3.1295,-3.1364,-3.3786,-3.4028,-3.3525,-3.2273,-3.1089,-2.9981,-2.8918,-2.7428,0.0,0.0,0.0,0.0,0.0,0.0,0.0,0.0,0.0,0.0,0.0,0.0,0.0,0.0,0.0,0.0,0.0,0.0,0.0,0.0,0.0,0.0,0.0,0.0,0.0,0.0,0.0,0.0,0.0,0.0,0.0,0.0,0.0,0.0,0.0,0.0,0.0,0.0,0.0,0.0,0.0,0.0,0.0,0.0,0.0,0.0,0.0,0.0,0.0,0.0,0.0,0.0,0.0,0.0,0.0,0.0,0.0,0.0,0.0,0.0,-4.306,0.0,0.0,0.0,0.0,0.0,0.0,0.0,0.0,0.0,0.0,0.0,0.0,0.0,0.0,0.0,0.0,0.0,0.0,0.0,0.0,0.0,0.0,0.0,0.0,0.0,0.0,0.0,0.0,0.0,0.0,0.0,0.0,0.0,0.0,0.0,0.0,0.0,0.0,0.0,0.0,-3.3097,-3.1607,-3.1288,-3.3816,-3.379,-3.315,-3.212,-3.077,-2.9579,-2.8551,-2.6934,0.0,0.0,0.0,0.0,0.0,0.0,0.0,0.0,0.0,0.0,0.0,0.0,0.0,0.0,0.0,0.0,0.0,0.0,0.0,0.0,0.0,0.0,0.0,0.0,0.0,0.0,0.0,0.0,0.0,0.0,0.0,0.0,0.0,0.0,0.0,0.0,0.0,0.0,0.0,0.0,0.0,0.0,0.0,0.0,0.0,0.0,0.0,0.0,0.0,0.0,0.0,0.0,0.0,-4.6297,-4.7105,-4.7598,-4.8122,-4.8903,-4.9662,-4.7955,-4.632,-4.4814,-4.4909,0.0,0.0,0.0,0.0,0.0,0.0,0.0,0.0,0.0,0.0,0.0,0.0,0.0,0.0,0.0,0.0,0.0,0.0,0.0,0.0,0.0,0.0,0.0,0.0,-3.7135,-3.6285,-3.4478,0.0,0.0,0.0,0.0,0.0,0.0,0.0,0.0,0.0,0.0,0.0,-3.3523,-3.199,-3.1544,-3.4126,-3.3809,-3.3123,-3.2465,-3.0798,-2.9368,-2.8479,-2.6871,-2.5854,0.0,0.0,0.0,0.0,0.0,0.0,0.0,0.0,0.0,0.0,0.0,0.0,0.0,0.0,0.0,0.0,0.0,0.0,0.0,0.0,0.0,0.0,0.0,0.0,0.0,0.0,0.0,0.0,0.0,0.0,0.0,0.0,-3.5958,-3.6373,0.0,0.0,0.0,0.0,0.0,0.0,0.0,0.0,0.0,0.0,0.0,0.0,0.0,-4.4921,-4.4892,-4.7854,-4.8588,-4.6991,-4.9975,-5.1375,-5.1466,-5.1526,-5.258,-5.4364,-5.4468,0.0,-4.7598,-4.6779,0.0,0.0,0.0,0.0,0.0,0.0,0.0,0.0,0.0,0.0,0.0,0.0,0.0,0.0,0.0,0.0,0.0,0.0,0.0,0.0,0.0,0.0,-3.8166,-3.753,-3.7806,-3.7864,0.0,-3.5278,-3.3921,-3.1918,-3.1189,0.0,0.0,0.0,0.0,0.0,0.0,0.0,-3.1838,-3.1478,-3.1835,-3.3486,-3.3034,-3.2372,-3.1713,-3.0872,-2.9612,-2.7824,-2.7495,-2.6836,-2.5644,-2.5571,0.0,0.0,0.0,0.0,0.0,0.0,0.0,0.0,0.0,0.0,0.0,0.0,0.0,0.0,0.0,0.0,0.0,0.0,0.0,0.0,0.0,0.0,0.0,0.0,0.0,0.0,0.0,0.0,0.0,-3.7581,-3.8744,-3.6363,-3.846,-3.9544,0.0,0.0,0.0,0.0,0.0,0.0,0.0,0.0,0.0,-4.6282,-4.8009,-4.9015,-4.926,-5.1424,-5.2476,-5.2306,-5.4102,-5.5149,-5.5538,-5.5927,-5.6765,-5.8008,-5.8511,-5.7183,-5.4427,-5.1089,-4.8623,-4.6644,0.0,0.0,0.0,0.0,-4.3532,-4.3783,-4.5857,-4.6017,0.0,-4.655,0.0,0.0,0.0,0.0,0.0,0.0,0.0,0.0,0.0,0.0,-4.0206,-3.9751,-3.991,-3.9869,-3.8882,-3.7647,-3.5908,0.0,-3.3005,-3.303,-3.2237,0.0,0.0,0.0,0.0,-3.1467,-3.2989,-3.248,-3.237,-3.3395,-3.2916,-3.2228,-3.157,-3.0883,-2.9983,-2.8813,-2.7675,-2.6626,-2.5644,-2.5232,-2.5319,0.0,0.0,0.0,0.0,0.0,0.0,0.0,0.0,0.0,0.0,0.0,0.0,0.0,0.0,0.0,0.0,0.0,0.0,0.0,0.0,0.0,0.0,0.0,0.0,0.0,0.0,0.0,0.0,-3.954,-4.0819,-3.6404,-3.9777,-4.1246,0.0,0.0,0.0,0.0,0.0,0.0,-4.6253,-4.7427,-4.8656,-5.011,-5.1926,-5.3152,-5.3713,-5.5029,-5.6196,-5.7236,-5.7812,-5.8471,-5.9159,-5.9638,-6.0236,-6.086,-6.1142,-6.0849,-5.9961,-5.5328,-5.2226,-5.0142,-4.7491,-4.6022,-4.5485,-4.6552,-4.6795,-4.7013,-4.9703,-4.9743,-4.8592,-4.8716,-4.7288,-4.5116,-4.2541,0.0,0.0,0.0,0.0,-4.056,-4.0355,-4.0918,-4.1565,-4.1663,-4.1743,-4.1654,-4.0816,-3.9858,-3.8093,0.0,-3.4412,-3.4472,-3.2796,0.0,0.0,0.0,0.0,-3.1981,-3.3992,-3.3517,-3.3215,-3.3694,-3.3155,-3.2467,-3.1809,-3.0972,-3.0253,-2.9651,-2.7859,-2.6482,-2.5621,-2.4963,-2.4889,-2.5518,0.0,0.0,0.0,0.0,0.0,0.0,0.0,0.0,0.0,0.0,0.0,0.0,0.0,0.0,0.0,0.0,0.0,0.0,0.0,0.0,0.0,0.0,0.0,0.0,0.0,0.0,0.0,0.0,0.0,-3.7146,-4.2206,0.0,0.0,0.0,0.0,-4.5079,-4.6397,-4.8296,-5.0918,-5.1606,-5.2822,-5.483,-5.6098,-5.7146,-5.7812,-5.9129,-5.9817,-5.9907,-6.0595,-6.1253,-6.1882,-6.1942,-6.2301,-6.2899,-6.2268,-6.2025,-6.1743,-5.8417,-5.6001,-5.4189,-5.2017,-5.0631,-4.9884,-4.9944,-4.9629,-4.9164,-4.9314,-4.8503,-4.7774,-5.0024,-4.9013,-4.6632,-4.508,-4.3043,0.0,0.0,-3.9877,-4.0267,-3.9631,-4.0441,-4.158,-4.2201,-4.2791,-4.2841,-4.1594,-4.1302,-3.9925,0.0,-3.3963,-3.3365,-3.2647,0.0,-3.2437,-3.2497,-3.3006,-3.3425,-3.3546,-3.4054,-3.4414,-3.4444,-3.3844,-3.3185,-3.2497,-3.127,-3.0253,-2.9651,-2.8304,-2.6956,-2.5644,-2.4963,-2.4926,-2.5601,-2.5009,0.0,0.0,0.0,0.0,0.0,0.0,0.0,0.0,0.0,0.0,0.0,0.0,0.0,0.0,0.0,0.0,0.0,0.0,0.0,0.0,0.0,0.0,0.0,0.0,0.0,0.0,0.0,0.0,-4.3318,-4.7427,0.0,-4.5139,-4.5864,-4.7147,-4.8434,-4.9762,-5.1665,-5.4352,-5.545,-5.6944,-5.8949,-5.9847,-6.0625,-6.1313,-6.1762,-6.2002,-6.2002,-6.2271,-6.251,-6.272,-6.272,-6.2839,-6.3079,-6.2839,-6.272,-6.2597,-6.1018,-5.8775,-5.6083,-5.4491,-5.3134,-5.2187,-5.2636,-5.2636,-5.2516,-5.2935,-5.1917,-5.0214,-4.852,-4.7023,-4.5566,-4.3767,-4.2982,-4.2551,-4.2102,-4.2132,-4.2342,-4.2521,-4.2611,-4.2701,-4.294,-4.2851,-4.2462,-4.1564,-4.1055,-3.9888,-3.6926,-3.5848,-3.507,-3.3963,-3.3066,-3.2647,-3.3095,-3.3335,-3.3634,-3.4114,-3.4711,-3.4981,-3.4563,-3.3873,-3.3215,-3.2587,-3.127,-3.0073,-2.9026,-2.7679,-2.6363,-2.5023,-2.4306,-2.4088,-2.4298,-2.4088,-2.492,0.0,0.0,0.0,0.0,0.0,0.0,0.0,0.0,0.0,0.0,0.0,0.0,0.0,0.0,0.0,0.0,0.0,0.0,0.0,0.0,0.0,0.0,0.0,0.0,0.0,0.0,-4.9866,-4.8018,-5.1739,-5.3224,-4.9959,-5.0421,-5.1498,-5.2737,-5.4132,-5.5837,-5.8052,-5.9189,-6.0416,-6.1732,-6.2211,-6.263,-6.3079,-6.3079,-6.3079,-6.3079,-6.3079,-6.3079,-6.3079,-6.3079,-6.3079,-6.3079,-6.3079,-6.3079,-6.3049,-6.26,-6.0984,-5.865,-5.7363,-5.6286,-5.5538,-5.5777,-5.5718,-5.5508,-5.5269,-5.3862,-5.1738,-4.8895,-4.7219,-4.6052,-4.4807,-4.4496,-4.4605,-4.4436,-4.4197,-4.4007,-4.4257,-4.3798,-4.329,-4.329,-4.2851,-4.2231,-4.1534,-4.0876,-3.9858,-3.8093,-3.7225,-3.6387,-3.504,-3.4113,-3.3754,-3.4412,-3.4322,-3.4412,-3.5102,-3.537,-3.525,-3.4563,-3.3873,-3.3155,-3.2228,-3.115,-2.9953,-2.8697,-2.732,-2.6093,-2.4993,-2.4485,-2.4388,-2.4597,-2.4837,-2.5495,-2.6602,0.0,0.0,0.0,0.0,0.0,0.0,0.0,0.0,0.0,0.0,0.0,0.0,0.0,0.0,0.0,0.0,0.0,0.0,0.0,0.0,0.0,0.0,0.0,-4.4883,-4.9701,-5.2618,-5.0931,-5.4976,-5.6531,-5.2882,-5.485,-5.6885,-5.8141,-5.9458,-6.0745,-6.2061,-6.272,-6.3079,-6.3079,-6.3079,-6.3079,-6.3079,-6.3079,-6.3079,-6.3079,-6.3079,-6.3079,-6.3079,-6.3079,-6.3079,-6.3079,-6.3079,-6.3079,-6.3079,-6.3079,-6.269,-6.2002,-6.0625,-6.0116,-5.9997,-5.9338,-5.868,-5.7812,-5.5867,-5.3892,-5.2127,-5.1439,-4.9912,-4.8327,-4.8297,-4.7848,-4.7189,-4.6488,-4.5873,-4.5185,-4.4526,-4.3828,-4.3319,-4.329,-4.2851,-4.2231,-4.1534,-4.0876,-4.0008,-3.8661,-3.7853,-3.7015,-3.5759,-3.5519,-3.5729,-3.6357,-3.5908,0.0,-3.6387,-3.5908,-3.525,-3.4623,-3.3933,-3.3006,-3.166,-3.0913,-2.9953,-2.8697,-2.732,-2.6303,-2.5644,-2.5615,-2.5914,-2.6566,-2.7255,-2.7285,-2.6656,0.0,0.0,0.0,0.0,0.0,0.0,0.0,0.0,0.0,0.0,0.0,0.0,0.0,0.0,0.0,0.0,0.0,0.0,0.0,0.0,0.0,0.0,-4.8724,-4.8831,-5.3478,-5.7046,-5.7381,-5.9891,-6.1223,-6.0201,-6.0326,-6.0625,-6.0984,-6.1792,-6.2421,-6.278,-6.2989,-6.3079,-6.3079,-6.3079,-6.3079,-6.3079,-6.3079,-6.3079,-6.3079,-6.3079,-6.3079,-6.3079,-6.3079,-6.3079,-6.3079,-6.3079,-6.3079,-6.3079,-6.3079,-6.2959,-6.266,-6.1343,-6.0535,-5.9997,-5.9338,-5.8381,-5.7184,-5.5688,-5.4192,-5.2725,-5.1588,-5.0495,-4.9523,-4.8566,-4.8147,-4.7878,-4.7219,-4.6561,-4.5873,-4.5214,-4.4526,-4.3888,-4.3409,-4.2851,-4.2231,-4.1534,-4.0876,-4.0008,-3.8661,-3.7853,-3.7165,-3.6357,-3.5818,-3.5579,-3.5759,-3.5609,0.0,-3.5759,-3.5609,-3.5429,-3.525,-3.4622,-3.3873,-3.3036,-3.145,-2.9953,-2.8697,-2.732,-2.6303,-2.5644,-2.5615,-2.5704,-2.5884,-2.7016,-2.7495,0.0,0.0,0.0,0.0,0.0,0.0,0.0,0.0,0.0,0.0,0.0,0.0,0.0,0.0,0.0,0.0,0.0,0.0,0.0,0.0,0.0,0.0,-4.869,-5.2544,-5.3962,-5.7467,-6.0421,-6.1968,-6.3169,-6.3767,-6.3498,-6.3109,-6.2899,-6.2899,-6.3019,-6.3199,-6.3438,-6.3228,-6.3079,-6.3079,-6.3079,-6.3079,-6.3079,-6.3079,-6.3079,-6.3079,-6.3079,-6.3079,-6.3079,-6.3079,-6.3079,-6.3079,-6.3079,-6.3079,-6.3079,-6.3079,-6.3079,0.0,0.0,0.0,0.0,0.0,-5.8022,-5.6944,-5.5957,-5.4551,-5.3054,-5.2276,-5.1229,-4.9986,-4.9015,-4.8506,-4.8147,-4.7489,-4.683,-4.619,-4.5843,-4.5035,-4.4227,-4.3798,-4.303,-4.2291,-4.1901,-4.1055,-4.0157,-3.9379,-3.8452,0.0,-3.6985,-3.6118,-3.5609,-3.5878,-3.5669,-3.5609,-3.5878,-3.5669,-3.5519,-3.5519,-3.4651,-3.3814,-3.3155,-3.1779,0.0,0.0,0.0,-2.7141,-2.6452,-2.6422,0.0,0.0,0.0,-2.7935,-2.8034,0.0,0.0,0.0,-2.8956,-2.9156,0.0,0.0,0.0,0.0,0.0,0.0,0.0,0.0,0.0,0.0,0.0,0.0,0.0,0.0,0.0,0.0,-5.1848,-5.6051,-5.9194,-6.1204,-6.3026,-6.4875,-6.5144,-6.4904,-6.4276,-6.4096,-6.4036,-6.4126,-6.3528,-6.3438,-6.3977,0.0,0.0,0.0,0.0,-6.3109,-6.3169,-6.3109,-6.3079,-6.3079,-6.3079,-6.3079,-6.3079,-6.3079,-6.3079,-6.3079,-6.3079,-6.3079,-6.3079,-6.3079,-6.3019,-6.2899,-6.2241,-6.1583,-6.0775,-5.883,-5.7693,-5.7004,-5.6376,0.0,0.0,-5.3204,-5.1947,-5.0255,-4.9523,-4.8865,-4.8237,-4.7519,-4.689,-4.6369,-4.6309,-4.5364,-4.4407,-4.4317,-4.3359,-4.25,-4.241,-4.1482,-4.0576,-4.0427,-3.9379,-3.8272,-3.7524,-3.6417,-3.5789,-3.6297,-3.5878,-3.5699,-3.6297,-3.5878,-3.5519,-3.5519,0.0,0.0,-3.2796,-3.2019,-3.0823,-2.9056,-2.8786,-2.8427,-2.7854,-2.7824,-2.8124,-2.8697,-2.8556,-2.8557,-2.8816,-2.8615,-2.8965,-2.9804,-2.9681,-2.9562,0.0,0.0,0.0,0.0,0.0,0.0,0.0,0.0,0.0,0.0,0.0,0.0,0.0,0.0,0.0,-5.0827,-5.4666,-5.7902,-6.0643,-6.2594,-6.4239,-6.5651,-6.5832,-6.5772,-6.5622,-6.4635,-6.4216,-6.4784,-6.4216,-6.3887,-6.3977,-6.3887,-6.3827,-6.3827,-6.3348,-6.3318,-6.3827,-6.3318,-6.3079,-6.3079,0.0,0.0,-6.3079,-6.3079,-6.3079,-6.3079,-6.3079,-6.3079,-6.3079,-6.3079,-6.278,-6.2211,-6.1553,-6.0894,-6.0116,-5.865,-5.7693,-5.7004,-5.6376,-5.5239,-5.3922,-5.3354,-5.2576,-5.1498,-4.9793,-4.9209,0.0,-4.7638,-4.7219,-4.698,-4.6471,-4.5723,-4.4975,-4.4436,-4.3718,-4.3,-4.253,-4.2201,-4.1692,-4.0606,-3.9768,-3.8841,-3.7614,-3.6776,-3.6148,-3.5759,-3.5579,-3.5549,-3.5669,-3.5579,-3.5519,-3.5519,-3.528,-3.4831,-3.4174,-3.3006,-3.1899,-3.1002,-2.9983,-2.9352,-2.9232,-2.9202,-2.9292,-2.9412,-2.9369,-2.9607,-3.0133,-3.0086,-3.0443,-3.1092,-3.0073,-2.9295,0.0,0.0,0.0,0.0,0.0,0.0,0.0,0.0,0.0,0.0,0.0,-4.0406,0.0,0.0,-4.9039,-5.3348,-5.6386,-5.8752,-6.0369,-6.1856,-6.3313,-6.448,-6.5466,-6.5742,-6.5054,-6.4994,-6.5024,-6.5024,-6.4695,-6.4665,-6.4994,-6.4695,-6.4515,-6.4515,-6.4216,-6.4036,-6.4006,-6.4036,-6.3707,-6.3079,-6.3378,-6.3378,-6.3079,-6.3079,-6.3079,-6.3079,-6.3079,-6.3079,-6.3079,-6.3079,-6.269,-6.2032,-6.1373,-6.0685,-5.9877,-5.8231,-5.7393,-5.6944,-5.6017,-5.482,-5.3623,-5.3294,-5.2516,-5.1468,-5.0152,-4.9523,-4.912,-4.8087,-4.7549,-4.7219,-4.689,-4.6322,-4.5633,-4.4975,-4.4317,-4.3658,-4.3,-4.2342,-4.1811,-4.1482,-4.0307,-3.92,-3.8542,-3.7584,-3.6626,-3.5639,-3.5519,-3.5519,-3.5519,-3.5519,-3.5519,-3.5519,-3.519,-3.4861,-3.4533,-3.3275,-3.2198,-3.154,-3.0582,-2.9894,-2.9621,-2.9621,-2.9621,-2.9621,-2.9505,-2.9802,-3.0492,-3.0423,-3.0777,-3.1481,-3.0853,-3.0193,0.0,0.0,0.0,0.0,0.0,0.0,0.0,0.0,-3.8416,-4.0427,-4.2439,-4.4669,-4.7707,-4.9967,-5.2327,-5.5239,-5.7395,-5.8836,-5.9104,-6.0188,-6.1209,-6.2002,-6.4085,-6.5141,-6.4247,-6.5054,-6.5503,-6.5233,-6.5114,-6.5323,-6.5981,-6.5503,-6.5233,-6.5233,-6.5084,-6.4814,-6.4395,-6.4814,-6.4485,-6.3468,-6.3827,-6.3737,-6.3258,-6.3139,-6.3079,-6.3079,-6.3079,-6.3079,-6.3079,-6.3079,-6.26,-6.1852,-6.1164,-6.0416,-5.9488,-5.7752,-5.7004,-5.6735,-5.5448,-5.4281,-5.3324,-5.3084,-5.2276,-5.1229,-5.0331,-4.9673,-4.9149,-4.8327,-4.7728,-4.7309,-4.7309,-4.68,-4.6142,-4.5454,-4.4796,-4.4137,-4.3439,-4.2491,-4.1833,-4.2141,-4.0876,-3.9679,-3.929,-3.8302,-3.7165,-3.5878,-3.5579,-3.5519,-3.5519,-3.5519,-3.5519,-3.5519,-3.5011,-3.4653,-3.4503,-3.3514,-3.2617,-3.1929,-3.1241,-3.0672,-3.0163,-3.0043,-2.9953,-2.9953,-2.9811,-3.0045,-3.0702,-3.0602,-3.0866,-3.1511,-3.1511,-3.1122,-3.219,-3.2114,-3.2893,-3.5349,-3.568,-3.6937,0.0,0.0,-4.3865,-4.7004,-4.8636,-5.0067,-5.1925,-5.3683,-5.5265,-5.662,-5.7472,-5.7823,-5.7369,-5.7888,-5.8202,-5.7822,-6.123,-6.3943,-6.4785,-6.4485,-6.4695,-6.5802,-6.5353,-6.5323,-6.5981,-6.5951,-6.5892,-6.5892,-6.5323,-6.5263,-6.5772,-6.5293,-6.4964,-6.4814,-6.4246,-6.3947,-6.3887,-6.3318,-6.3079,-6.3079,-6.3079,-6.3079,-6.3079,-6.3079,-6.2331,-6.1164,-6.0475,-5.9428,-5.8231,-5.7393,-5.6735,-5.6077,-5.476,-5.4221,-5.3892,-5.2695,-5.2217,-5.1738,-4.9942,-4.9359,-4.906,-4.7758,-4.7369,-4.7309,-4.7309,-4.68,-4.6142,-4.5454,-4.4796,-4.4137,-4.3439,-4.317,-4.2791,-4.1713,-4.1362,-4.0606,-3.8811,-3.8392,-3.7853,-3.6567,-3.5878,-3.5519,-3.5519,-3.5519,-3.5519,-3.5519,-3.5429,-3.513,-3.4563,-3.4384,-3.3963,-3.3305,-3.2647,-3.2258,-3.2198,-3.16,-3.1301,-3.1301,-3.1275,-3.1304,-3.1391,-3.1364,-3.1424,-3.1511,-3.1511,-3.1122,-3.5375,-3.5156,0.0,0.0,-3.9346,-4.1677,-4.5171,-4.6602,-4.7933,-5.0645,-5.2578,-5.411,-5.5139,-5.5892,-5.6495,0.0,-5.6696,-5.647,-5.6545,-5.6213,-5.6029,-5.6089,-5.8821,-6.1166,-6.2253,-6.2815,-6.362,-6.4755,-6.5323,-6.5712,-6.6011,-6.637,-6.6759,-6.7148,-6.652,-6.6311,-6.658,-6.6311,-6.5772,-6.5024,-6.4725,-6.4395,-6.3977,-6.3348,-6.3079,-6.3079,-6.3079,-6.3079,-6.3079,-6.3079,-6.2301,-6.1074,-6.0805,-5.9398,-5.7453,-5.6795,-5.6137,-5.5478,-5.4521,-5.3713,-5.2935,-5.2366,-5.1947,-5.1409,-5.0212,-4.9583,-4.912,-4.8147,-4.7608,-4.7309,-4.7309,-4.71,-4.6711,-4.6052,-4.5364,-4.4706,-4.4047,-4.3299,-4.2731,-4.2551,-4.1893,-4.1115,-4.0277,-3.9499,-3.8661,-3.7734,-3.6716,-3.6088,-3.6088,-3.5729,-3.5519,-3.5519,-3.5519,-3.54,-3.51,-3.507,-3.4801,-3.4113,-3.3814,-3.3484,-3.3095,-3.2467,-3.2079,-3.2079,-3.169,-3.1511,-3.1511,-3.1511,-3.1511,-3.1511,-3.1511,-3.1361,-3.6936,0.0,0.0,-3.9572,-4.2785,-4.5899,-4.7355,-4.9389,-5.1498,-5.3432,-5.5089,-5.6369,-5.6922,-5.6922,0.0,-5.6595,-5.6043,-5.5641,-5.5742,-5.4938,-5.4555,-5.5076,-5.6305,-5.7847,-5.975,-6.1568,-6.2873,-6.3268,-6.4636,-6.5352,-6.5077,-6.6097,-6.6939,-6.7418,-6.7148,-6.6999,-6.6999,-6.6999,-6.652,-6.5562,-6.5203,-6.4755,-6.4246,-6.3438,-6.3079,-6.3079,-6.3079,-6.3079,-6.3079,-6.3079,-6.2301,-6.1074,-6.0715,-5.9129,-5.7004,-5.6196,-5.5598,-5.5089,-5.4431,-5.3443,-5.2456,-5.2247,-5.1618,-5.0794,-5.0182,-4.9523,-4.8865,-4.8207,-4.7668,-4.7309,-4.7309,-4.7309,-4.713,-4.6429,-4.5933,-4.5334,-4.4496,-4.3569,-4.294,-4.306,-4.2312,-4.1632,-4.1414,-4.0427,-3.9529,-3.902,-3.7853,-3.6896,-3.6537,-3.5908,-3.5519,-3.5519,-3.5519,-3.5519,-3.5519,-3.5519,-3.528,-3.4801,-3.4623,-3.4294,-3.3784,-3.3125,-3.2706,-3.2527,-3.2019,-3.169,-3.1511,-3.1511,-3.1511,-3.1511,-3.1511,-3.1511,0.0,0.0,-3.8768,-4.2032,-4.5347,-4.8385,-5.0619,-5.2829,-5.4737,-5.5867,-5.6168,-5.6369,-5.6922,-5.6595,-5.6068,-5.5516,-5.5867,-5.5817,-5.4762,-5.411,-5.3902,-5.4276,-5.3433,-5.4313,0.0,-6.1262,-6.2676,-6.1675,-6.309,-6.3654,-6.2658,-6.4744,-6.6041,-6.6071,-6.667,-6.6999,-6.6999,-6.6999,-6.6969,-6.6909,-6.5652,-6.5024,-6.4964,-6.3647,-6.3079,-6.3079,-6.3079,-6.3079,-6.3079,-6.3079,-6.2301,-6.0984,-5.9668,-5.8321,-5.6944,-5.5688,-5.5209,-5.5089,-5.4431,-5.3743,-5.3054,-5.2396,-5.1319,-5.0106,-4.9494,-4.888,-4.8177,-4.7519,-4.7309,-4.7309,-4.7309,-4.7309,-4.713,-4.6429,-4.6279,-4.5891,-4.4616,-4.4287,-4.3898,-4.268,-4.241,-4.2171,-4.1542,-4.0816,-4.0367,-4.0337,-3.92,-3.7883,-3.6656,-3.5908,-3.5519,-3.5519,-3.5519,-3.5519,-3.5519,-3.5519,-3.5489,-3.5459,-3.4831,-3.4503,-3.4474,-3.3814,-3.3155,-3.2497,-3.2497,-3.2138,-3.1511,-3.1511,-3.1511,-3.1511,-3.1511,-3.1511,0.0,0.0,-4.3589,-4.6175,-4.9038,-5.1825,-5.4034,-5.5139,-5.5867,-5.6595,-5.5566,-5.426,-5.3381,-5.2452,-5.1749,-5.1574,-5.2628,-5.3607,-5.3934,-5.416,-5.4029,-5.3255,-5.3906,0.0,0.0,0.0,0.0,-6.071,-6.077,-6.0693,-6.0678,-6.3354,-6.5115,-6.5524,-6.6503,-6.7208,-6.7627,-6.7208,-6.6759,-6.6311,-6.4994,-6.4126,-6.3707,-6.3288,-6.3079,-6.3079,-6.3079,-6.3079,-6.3079,-6.3079,-6.2301,-6.1014,-6.0116,-5.865,-5.7004,-5.6166,-5.5299,-5.4431,-5.3773,-5.2815,-5.1858,-5.1618,-5.096,-5.0076,-4.9464,-4.8805,-4.8147,-4.7489,-4.7309,-4.7309,-4.7309,-4.7309,-4.7249,-4.704,-4.6651,-4.604,-4.5155,-4.4616,-4.4047,-4.318,-4.3,-4.2791,-4.2171,-4.1901,-4.1265,-3.9948,-3.896,-3.7913,-3.6656,-3.6297,-3.5998,-3.5549,-3.5519,-3.5519,-3.5519,-3.5519,-3.5519,-3.5519,-3.528,-3.516,-3.516,-3.4502,-3.4053,-3.3814,-3.2946,-3.2378,-3.2138,-3.172,-3.1511,-3.1511,-3.1511,-3.1511,0.0,-4.4438,-4.7029,-4.9841,-5.2327,-5.4461,-5.5892,-5.6369,-5.6269,-5.544,-5.3658,-5.1624,-4.959,-4.7958,-4.7255,-4.8259,-4.949,-5.0971,-5.2879,-5.3457,-5.3597,-5.3255,-5.4064,0.0,0.0,0.0,0.0,-5.8466,-5.8848,-5.8906,-5.8853,-6.1687,-6.3826,-6.5203,-6.5914,-6.6856,-6.7956,-6.7328,-6.667,-6.6011,-6.4904,-6.4036,-6.3408,-6.3169,-6.3079,-6.3079,-6.3079,-6.3079,-6.3049,-6.281,-6.2091,-6.1014,-5.9847,-5.8441,-5.7004,-5.6137,-5.5149,-5.4192,-5.3982,-5.2875,-5.1618,-5.1858,-5.099,-4.9823,-4.9449,-4.8626,-4.7848,-4.7429,-4.7309,-4.7309,-4.7309,-4.7309,-4.7309,-4.7309,-4.698,-4.6501,-4.5813,-4.5334,-4.4766,-4.3828,-4.3648,-4.3479,-4.2821,-4.2351,-4.1542,-4.0008,-3.92,-3.8212,-3.6686,-3.6477,-3.6237,-3.5579,-3.5519,-3.5519,-3.5519,-3.5519,-3.5519,-3.5519,-3.5519,-3.5519,-3.5519,-3.507,-3.4711,-3.4503,-3.3634,-3.3095,-3.2856,-3.2407,-3.2198,-3.2198,-3.2198,-3.2198,-4.5282,-4.7197,-4.9138,-5.2854,-5.5013,-5.6219,-5.6219,-5.6495,-5.5867,-5.2603,-5.0469,-4.8335,0.0,0.0,-4.2992,-4.5732,-4.6778,-4.841,-5.1724,-5.2226,-5.2809,0.0,0.0,0.0,0.0,0.0,0.0,-5.5326,0.0,-5.8139,-5.7157,-5.9792,-6.2426,-6.4773,-6.4905,-6.5909,-6.7832,-6.7268,-6.661,-6.5951,-6.5293,-6.4605,-6.3917,-6.3348,-6.3079,-6.3079,-6.3079,-6.3079,-6.3019,-6.2361,-6.1702,-6.0924,-5.8919,-5.7693,-5.6944,-5.5658,-5.479,-5.4311,-5.491,-5.3832,-5.2306,-5.2875,-5.1426,-4.9359,-4.9359,-4.8386,-4.7369,-4.7369,-4.7339,-4.7309,-4.7309,-4.7309,-4.7309,-4.7309,-4.7309,-4.713,-4.6429,-4.6279,-4.5891,-4.4616,-4.4347,-4.4107,-4.3409,-4.2282,-4.1205,-4.0546,-3.9888,-3.8781,-3.6836,-3.6567,-3.6297,-3.5639,-3.5519,-3.5519,-3.5519,-3.5519,-3.5519,-3.5519,-3.5519,-3.5519,-3.5519,-3.5519,-3.519,-3.4563,-3.4533,-3.4204,-3.3544,-3.3514,-3.3484,-3.3484,-3.3484,-3.3484,-4.7587,-5.0413,-5.3206,-5.4612,-5.5591,-5.6219,-5.6219,-5.4737,-5.2653,-5.0142,-4.6326,-4.2806,0.0,0.0,0.0,-4.4395,-4.7161,0.0,-5.2879,-5.4009,0.0,0.0,0.0,-5.5365,-5.6477,-5.5607,0.0,0.0,-5.5791,-5.6091,-5.7022,-5.9424,-6.1131,-6.176,-6.2619,-6.3989,-6.5844,-6.6082,-6.5922,-6.5263,-6.4605,-6.3917,-6.3318,-6.3139,-6.3079,-6.3079,-6.3079,-6.3079,-6.3019,-6.2361,-6.1702,-6.0924,-5.8919,-5.7693,-5.6944,-5.5658,-5.479,-5.4221,-5.4401,-5.3473,-5.2157,-5.1828,-5.093,-5.0002,-5.0002,-4.9075,-4.8027,-4.8027,-4.7698,-4.7309,-4.7309,-4.7309,-4.7309,-4.7309,-4.7309,-4.713,-4.6429,-4.6279,-4.6082,-4.5214,-4.4646,-4.4107,-4.3409,-4.2671,-4.1931,-4.1235,-4.0576,-3.9619,-3.8093,-3.7464,-3.6926,-3.6297,-3.5789,-3.5519,-3.5519,-3.5519,-3.5519,-3.5519,-3.5519,-3.5519,-3.5519,-3.5519,-3.5429,-3.525,-3.4741,-3.4414,-3.4233,-3.3724,-3.3484,-3.3484,-3.3484,-3.3484,-5.0122,-5.2703,-5.5189,-5.6219,-5.6344,-5.5842,-5.4386,-5.2277,-4.9593,-4.5832,-4.2225,0.0,0.0,0.0,0.0,0.0,0.0,0.0,-5.4079,-5.4705,-5.5299,0.0,-5.6591,0.0,-5.6547,-5.6247,-5.6344,0.0,-5.6143,-5.6168,-5.7349,-5.8922,-6.0272,-6.1363,-6.259,-6.4218,-6.6323,-6.612,-6.5832,-6.5443,-6.4784,-6.4126,-6.3468,-6.3468,-6.3318,-6.3079,0.0,-6.3079,-6.3019,-6.2061,-6.1433,-6.0894,-5.856,-5.7423,-5.6944,-5.5658,-5.497,-5.4551,-5.3952,-5.3264,-5.2516,-5.1858,-5.102,-5.0136,-4.9912,-4.9105,-4.8237,-4.7938,-4.7578,-4.7309,-4.7309,-4.7309,-4.7309,-4.7309,-4.7309,-4.7219,-4.683,-4.6741,-4.6471,-4.5484,-4.4526,-4.3738,-4.3349,-4.2791,-4.2171,-4.1512,-4.0816,-4.0008,-3.896,-3.8003,-3.7165,-3.6537,-3.5908,-3.5519,-3.5519,-3.5519,-3.5519,-3.5519,-3.5519,-3.5519,-3.5519,-3.5519,-3.5519,-3.5519,-3.513,-3.4921,-3.4921,-3.4562,-3.4382,-3.4382,-3.4382,-3.4382,-5.2578,-5.4361,-5.5942,-5.7323,-5.6771,-5.5013,-5.19,-4.9595,-4.6586,-4.1172,0.0,0.0,-3.5867,0.0,-3.7758,-4.2104,0.0,-4.7638,-5.4889,-5.4825,-5.5153,-5.8261,-5.7849,-5.7123,-5.6796,-5.7123,-5.76,-5.8177,-5.7675,-5.7575,-5.8077,-5.8554,-5.987,-6.2207,-6.3826,-6.56,-6.7644,-6.6697,-6.6131,-6.5862,-6.5293,-6.4635,-6.3887,-6.3887,-6.3588,-6.3079,-6.3079,0.0,-6.2989,-6.1642,-6.1104,-6.0835,-5.8141,-5.7094,-5.6944,-5.5658,-5.5179,-5.4999,-5.3653,-5.3174,-5.3054,-5.2306,-5.1289,-5.0196,-4.9583,-4.8925,-4.8267,-4.7608,-4.7369,-4.7309,-4.7309,-4.7309,-4.7309,-4.7309,-4.7309,-4.7309,-4.7309,-4.7309,-4.689,-4.5544,-4.4377,-4.3499,-4.3319,-4.288,-4.2261,-4.1542,-4.0905,-4.0277,-3.9529,-3.8332,-3.7345,-3.6806,-3.6088,-3.5639,-3.5639,-3.5549,-3.5519,-3.5519,-3.5519,-3.5519,-3.5519,-3.5519,-3.5519,-3.5519,-3.5519,-3.5519,-3.5519,-3.5519,-3.5519,-3.5519,-3.5519,-3.5519,-5.3934,-5.5491,-5.6721,-5.6545,-5.5315,-5.3463,-5.0985,-4.732,0.0,0.0,0.0,-3.5315,-3.4484,0.0,0.0,-4.3511,0.0,0.0,0.0,0.0,-5.602,0.0,0.0,0.0,0.0,0.0,0.0,0.0,0.0,-5.9106,-5.9207,-5.9307,-6.0049,-6.16,-6.4847,-6.6366,-6.578,-6.7001,-6.6819,-6.5203,-6.5084,-6.4395,-6.3228,-6.3228,-6.3169,-6.3079,-6.3079,0.0,-6.2989,-6.1642,-6.1104,-6.0835,-5.8141,-5.7094,-5.6944,-5.5658,-5.5179,-5.4999,-5.3653,-5.3174,-5.2995,-5.1768,-5.1229,-5.0883,-5.0226,-4.9613,-4.9,-4.8297,-4.7728,-4.7309,-4.7309,-4.7309,-4.7309,-4.7309,-4.7309,-4.7309,-4.7309,-4.7309,-4.689,-4.5544,-4.5095,-4.4616,-4.3469,-4.32,-4.2761,-4.1564,-4.1294,-4.0786,-3.9589,-3.8721,-3.8182,-3.8063,-3.7015,-3.6327,-3.6327,-3.5818,-3.5519,-3.5519,-3.5519,-3.5519,-3.5519,-3.5519,-3.5519,-3.5519,-3.5519,-3.5519,-3.5519,-3.5519,-3.5519,-3.5519,-3.5519,-3.5519,-5.4336,-5.5767,-5.6897,-5.6344,-5.4536,-5.1866,-4.8017,0.0,0.0,0.0,0.0,-3.4576,-3.4752,0.0,0.0,0.0,0.0,0.0,0.0,0.0,0.0,0.0,0.0,0.0,0.0,0.0,0.0,0.0,0.0,-5.9483,-5.9483,-6.0431,-6.1734,-6.3371,-6.579,-6.7165,-6.7201,-6.7403,-6.664,-6.5024,-6.5024,-6.4336,-6.3079,-6.3408,-6.3378,-6.3079,-6.3079,0.0,-6.2989,-6.1642,-6.1104,-6.0835,-5.8141,-5.7094,-5.6944,-5.5658,-5.5179,-5.4999,-5.3653,-5.3174,-5.2965,-5.1648,-5.0943,-5.0554,-4.9912,-4.9284,-4.8626,-4.7967,-4.7549,-4.7309,-4.7309,-4.7309,-4.7309,-4.7309,-4.7309,-4.7309,-4.7309,-4.6741,-4.6172,-4.5873,-4.4975,-4.4197,-4.3858,-4.3529,-4.3,-4.2081,-4.1931,-4.1452,-4.0098,-3.9649,-3.917,-3.8452,-3.7524,-3.6836,-3.6507,-3.6207,-3.5878,-3.5519,-3.5519,-3.5519,-3.5519,-3.5519,-3.5519,-3.5519,-3.5519,-3.5519,-3.5519,-3.5519,-3.5519,-3.5519,-3.5519,-3.5519,-5.43,-5.5591,-5.6721,-5.6168,-5.3783,-5.0341,-4.5567,-4.1786,0.0,0.0,0.0,-3.4576,-3.5359,0.0,0.0,0.0,0.0,0.0,0.0,0.0,0.0,0.0,0.0,0.0,0.0,0.0,0.0,0.0,0.0,0.0,-5.9483,-6.1741,-6.3657,-6.5115,-6.6993,-6.8275,-6.9004,-6.7956,-6.661,-6.5024,-6.5024,-6.4336,-6.3079,-6.3588,-6.3528,-6.3079,-6.2929,0.0,0.0,-6.1433,-6.0894,-6.0625,-5.8082,-5.7094,-5.6944,-5.5658,-5.5089,-5.479,-5.3593,-5.3084,-5.2785,-5.1588,-5.0734,-5.0076,-4.9464,-4.8805,-4.8147,-4.7489,-4.7309,-4.7309,-4.7309,-4.7309,-4.7309,-4.7309,-4.7309,-4.7309,-4.7309,-4.6471,-4.5843,-4.6262,-4.4904,-4.3828,-4.4257,-4.3738,-4.312,-4.25,-4.241,-4.1961,-4.0756,-4.0487,-4.0008,-3.8931,-3.8093,-3.7434,-3.6926,-3.6776,-3.6417,-3.5759,-3.5699,-3.5639,-3.5519,-3.5519,-3.5519,-3.5519,-3.5519,-3.5519,-3.5519,-3.5519,-3.5519,-3.5519,-3.5519,-3.5519,-5.3677,-5.5013,-5.6143,-5.5591,-5.2628,-4.8962,-4.5686,0.0,0.0,0.0,-3.5359,-3.5392,-3.5457,-3.5639,0.0,0.0,0.0,0.0,0.0,0.0,0.0,0.0,0.0,0.0,0.0,0.0,0.0,0.0,0.0,0.0,-5.956,-6.2925,-6.5,-6.5186,-6.8701,-7.0007,-6.9004,-6.8884,-6.7537,-6.5024,-6.5024,-6.4336,-6.3079,-6.3139,-6.3139,-6.3049,-6.245,0.0,0.0,-6.0745,-6.0176,-5.9967,-5.7902,-5.7094,-5.6944,-5.5658,-5.482,-5.4192,-5.3443,-5.2785,-5.2187,-5.1439,-5.0734,-5.0076,-4.9464,-4.8805,-4.8147,-4.7489,-4.7309,-4.7309,-4.7309,-4.7309,-4.7309,-4.7309,-4.7309,-4.7309,-4.7309,-4.7219,-4.695,-4.6441,-4.5663,-4.4945,-4.4407,-4.3738,-4.312,-4.25,-4.241,-4.2141,-4.1422,-4.0756,-4.0337,-4.0217,-3.905,-3.8272,-3.8212,-3.7674,-3.7075,-3.6447,-3.6387,-3.6118,-3.5519,-3.5519,-3.5519,-3.5519,-3.5519,-3.5519,-3.5519,-3.5519,-3.5519,-3.5519,-3.5519,-3.5519,-5.1908,-5.3934,-5.5491,-5.4587,-5.1768,-4.8325,-4.5208,0.0,0.0,0.0,-3.5519,-3.5519,-3.5519,-3.5519,-3.5938,0.0,0.0,0.0,0.0,0.0,0.0,0.0,0.0,0.0,0.0,0.0,0.0,0.0,0.0,0.0,-6.2878,-6.5498,-6.6927,-6.6927,-6.92,-6.9901,-6.9004,-6.8196,-6.6849,-6.5024,-6.4605,-6.3947,-6.3079,-6.3079,-6.3079,-6.3079,-6.281,0.0,0.0,-6.1104,-6.0446,-5.9877,-5.7872,-5.7094,-5.6944,-5.5658,-5.479,-5.4102,-5.3414,-5.2755,-5.2097,-5.1439,-5.0734,-5.0076,-4.9464,-4.8536,-4.7638,-4.7369,-4.7309,-4.7309,-4.7309,-4.7309,-4.7309,-4.7309,-4.7309,-4.7309,-4.7309,-4.698,-4.6651,-4.6339,-4.5454,-4.4616,-4.4377,-4.3738,-4.32,-4.3,-4.294,-4.2701,-4.2081,-4.1422,-4.0846,-4.0427,-3.9559,-3.8841,-3.8422,-3.8153,-3.7554,-3.6537,-3.6477,-3.6178,-3.5519,-3.5519,-3.5519,-3.5519,-3.5519,-3.5519,-3.5519,-3.5519,-3.5519,-3.5519,-3.5519,-3.5519,-4.9394,-5.1825,-5.3758,-5.3155,-5.0257,-4.695,0.0,0.0,0.0,-3.5818,-3.5519,-3.5519,-3.5519,-3.5519,-3.5519,0.0,0.0,0.0,0.0,0.0,0.0,0.0,0.0,0.0,0.0,0.0,0.0,0.0,0.0,0.0,0.0,-6.785,-6.8567,-6.7824,-6.9234,-6.9572,-6.8704,-6.7567,-6.634,-6.5024,-6.4336,-6.3677,-6.3079,-6.3079,-6.3079,-6.3079,-6.2869,0.0,0.0,-6.1074,-6.0296,-5.9338,-5.7723,-5.6855,-5.6406,-5.5299,-5.4341,-5.3533,-5.3054,-5.2456,-5.1828,-5.1379,-5.0661,-4.9853,-4.9449,-4.8476,-4.7549,-4.7369,-4.7309,-4.7309,-4.7309,-4.7309,-4.7309,-4.7309,-4.7309,-4.7309,-4.7309,-4.695,-4.6621,-4.6621,-4.5514,-4.4616,-4.4616,-4.3898,-4.329,-4.329,-4.329,-4.314,-4.2701,-4.2111,-4.1452,-4.0756,-4.0098,-3.9439,-3.8751,-3.8691,-3.8153,-3.6836,-3.6776,-3.6387,-3.5549,-3.5519,-3.5519,-3.5519,-3.5519,-3.5519,-3.5519,-3.5519,-3.5519,-3.5519,-3.5519,-3.5519,-4.6221,-4.8385,-5.0594,-5.1172,-4.7958,-4.4249,0.0,0.0,0.0,0.0,-3.5519,-3.5519,-3.5519,-3.5519,-3.5519,-3.5519,0.0,0.0,0.0,0.0,0.0,0.0,0.0,0.0,0.0,0.0,0.0,0.0,0.0,0.0,0.0,-6.9847,-6.9749,-6.7199,-6.8968,-6.9333,-6.7986,-6.7328,-6.634,-6.5024,-6.4336,-6.3677,-6.3079,-6.3079,-6.3079,0.0,0.0,0.0,0.0,-6.0386,-5.9308,-5.8082,-5.7363,-5.6316,-5.5119,-5.4461,-5.3384,-5.2217,-5.2217,-5.1768,-5.1229,-5.1229,-5.0331,-4.9329,-4.9299,-4.885,-4.8147,-4.7489,-4.7309,-4.7309,-4.7309,-4.7309,-4.7309,-4.7309,-4.7309,-4.7309,-4.7309,-4.7309,-4.7309,-4.7309,-4.6202,-4.5274,-4.5274,-4.4197,-4.329,-4.329,-4.329,-4.329,-4.329,-4.2761,-4.2141,-4.1482,-4.0786,-4.0127,-3.9433,-3.9373,-3.8841,-3.7494,-3.7404,-3.6836,-3.5549,-3.5519,-3.5519,-3.5519,-3.5519,-3.5519,-3.5519,-3.5519,-3.5519,-3.5519,-3.5519,-3.5519,-4.2868,-4.4625,-4.6228,-4.6412,-4.4565,-4.2154,-4.0151,0.0,0.0,0.0,-3.4041,-3.4476,-3.4476,-3.5034,-3.5938,-3.7255,0.0,0.0,0.0,0.0,0.0,0.0,0.0,0.0,0.0,0.0,0.0,0.0,0.0,0.0,0.0,-6.8679,-6.8525,-6.9063,-6.9257,-6.8675,-6.7298,-6.6191,-6.5203,-6.4306,-6.3677,-6.3258,-6.3079,-6.3079,-6.3079,0.0,0.0,0.0,0.0,-6.0864,-5.9727,-5.8052,-5.7363,-5.6585,-5.5718,-5.461,-5.3653,-5.2815,-5.2366,-5.1768,-5.1229,-5.1229,-5.093,-5.0511,-5.0062,-4.8835,-4.7578,-4.7369,-4.7309,-4.7309,-4.7309,-4.7309,-4.7309,-4.7309,-4.7309,-4.7309,-4.7309,-4.7309,-4.704,-4.6112,-4.5574,-4.5005,-4.4107,-4.3559,-4.329,-4.329,-4.329,-4.329,-4.329,-4.2372,-4.1662,-4.1414,-4.0397,-3.9649,-3.9439,-3.899,-3.8332,-3.7464,-3.7015,-3.6387,-3.5549,-3.5519,-3.5519,-3.5519,-3.5519,-3.5519,-3.5519,-3.5519,-3.5519,-3.5519,-3.5519,-3.5519,0.0,-4.1511,-4.2981,-4.3224,-4.1873,0.0,0.0,0.0,0.0,0.0,0.0,0.0,0.0,0.0,0.0,0.0,0.0,0.0,0.0,0.0,0.0,0.0,0.0,0.0,0.0,0.0,0.0,0.0,0.0,0.0,0.0,-6.8602,-6.8154,-6.8854,-6.8465,-6.7717,-6.664,-6.5293,-6.4425,-6.3977,-6.3378,-6.3079,-6.3079,-6.3079,-6.3079,0.0,0.0,0.0,0.0,-6.0835,-5.9548,-5.7693,-5.7274,-5.6406,-5.5299,-5.4221,-5.3384,-5.2725,-5.2067,-5.1558,-5.1229,-5.1229,-5.105,-5.0644,-4.9793,-4.8656,-4.7608,-4.7369,-4.7309,-4.7309,-4.7309,-4.7309,-4.7309,-4.7309,-4.7309,-4.7309,-4.7309,-4.7309,-4.698,-4.5903,-4.5484,-4.4945,-4.3858,-4.3469,-4.329,-4.329,-4.329,-4.329,-4.329,-4.2402,-4.1692,-4.1452,-4.0427,-3.9679,-3.9403,-3.902,-3.8392,-3.7464,-3.7045,-3.6447,-3.5549,-3.5519,-3.5519,-3.5519,-3.5519,-3.5519,-3.5519,-3.5519,-3.5519,-3.5519,-3.5519,-3.5519,0.0,0.0,0.0,0.0,0.0,0.0,0.0,0.0,0.0,0.0,0.0,0.0,0.0,0.0,0.0,0.0,0.0,0.0,0.0,0.0,0.0,0.0,0.0,0.0,0.0,0.0,0.0,0.0,0.0,0.0,0.0,-6.9053,-6.8098,-6.6755,-6.6665,-6.6398,-6.5862,-6.4635,-6.3977,-6.3917,-6.3348,-6.3079,-6.3079,-6.3079,-6.3049,0.0,0.0,0.0,0.0,-6.0296,-5.886,-5.7094,-5.7034,-5.5867,-5.4132,-5.3443,-5.2755,-5.2097,-5.1439,-5.1229,-5.1229,-5.1229,-5.0734,-4.9956,-4.8745,-4.8327,-4.8147,-4.7489,-4.7309,-4.7309,-4.7309,-4.7309,-4.7309,-4.7309,-4.7309,-4.7309,-4.7309,-4.7309,-4.71,-4.6441,-4.5753,-4.5095,-4.4436,-4.3738,-4.329,-4.329,-4.329,-4.329,-4.329,-4.2761,-4.2141,-4.1444,-4.0786,-4.0127,-3.9433,-3.9379,-3.8811,-3.7554,-3.7404,-3.6806,-3.5639,-3.5519,-3.5519,-3.5519,-3.5519,-3.5519,-3.5519,-3.5519,-3.5519,-3.5519,-3.5519,-3.5519,-3.557,0.0,-3.6778,0.0,0.0,0.0,0.0,0.0,0.0,0.0,0.0,0.0,0.0,0.0,0.0,0.0,0.0,0.0,0.0,0.0,0.0,0.0,0.0,0.0,0.0,0.0,0.0,0.0,0.0,0.0,0.0,-6.6229,-6.556,-6.4217,-6.3694,-6.3786,-6.4485,-6.4156,-6.3767,-6.3288,-6.3139,-6.3079,-6.3079,-6.3079,-6.281,0.0,0.0,0.0,-6.0266,-5.9608,-5.8441,-5.7034,-5.6585,-5.5508,-5.4132,-5.3443,-5.2755,-5.2097,-5.1439,-5.1229,-5.1229,-5.1229,-5.0734,-5.0046,-4.9284,-4.8686,-4.8147,-4.7489,-4.7309,-4.7309,-4.7309,-4.7309,-4.7309,-4.7309,-4.7309,-4.7309,-4.7309,-4.7309,-4.71,-4.6441,-4.5753,-4.5095,-4.4436,-4.3738,-4.329,-4.329,-4.329,-4.329,-4.329,-4.2761,-4.2141,-4.1444,-4.0786,-4.0127,-3.9433,-3.8931,-3.8512,-3.8182,-3.7255,-3.6567,-3.6267,-3.5759,-3.5519,-3.5519,-3.5519,-3.5519,-3.5519,-3.5519,-3.5519,-3.5519,-3.5519,-3.5519,-3.518,-3.5519,-3.5519,-3.5519,-3.5519,-3.5359,0.0,0.0,0.0,0.0,0.0,0.0,0.0,0.0,0.0,0.0,0.0,0.0,0.0,0.0,0.0,0.0,0.0,0.0,0.0,0.0,0.0,0.0,0.0,0.0,0.0,-6.4793,-6.3883,-6.3605,-6.3254,-6.3414,-6.4006,-6.3707,-6.3408,-6.3079,-6.3079,-6.3079,-6.3079,-6.278,-6.2421,0.0,0.0,0.0,-5.9578,-5.8919,-5.7872,-5.6645,-5.6368,-5.5359,-5.4132,-5.3443,-5.2755,-5.2097,-5.1439,-5.1229,-5.1229,-5.1229,-5.0734,-5.0076,-4.9464,-4.8805,-4.8147,-4.7489,-4.7309,-4.7309,-4.7309,-4.7309,-4.7309,-4.7309,-4.7309,-4.7309,-4.7309,-4.707,-4.6651,-4.5992,-4.5304,-4.4646,-4.3947,-4.3529,-4.329,-4.329,-4.329,-4.329,-4.329,-4.2761,-4.2261,-4.1901,-4.0965,-4.0247,-3.9888,-3.926,-3.8721,-3.8422,-3.7464,-3.6776,-3.6507,-3.5848,-3.5519,-3.5519,-3.5519,-3.5519,-3.5519,-3.5519,-3.5519,-3.5519,-3.5519,-3.5519,-3.4889,-3.5182,-3.5366,-3.5484,-3.5519,-3.5457,0.0,0.0,0.0,0.0,0.0,0.0,0.0,0.0,0.0,0.0,0.0,0.0,0.0,0.0,0.0,0.0,0.0,0.0,0.0,0.0,0.0,0.0,0.0,0.0,0.0,-6.3856,-6.2829,-6.3565,-6.3594,-6.3682,-6.3857,-6.3348,-6.3079,-6.3079,-6.3079,-6.3019,-6.2899,-6.2361,-6.2002,-6.1732,0.0,0.0,-5.889,-5.8141,-5.7184,-5.6188,-5.5957,-5.5119,-5.3982,-5.3294,-5.2606,-5.1977,-5.1409,-5.1139,-5.1079,-5.1199,-5.0584,-4.9807,-4.9404,-4.8745,-4.8027,-4.7459,-4.7309,-4.7309,-4.7309,-4.7309,-4.7309,-4.7309,-4.7309,-4.7309,-4.7309,-4.686,-4.6262,-4.5574,-4.4915,-4.4257,-4.3559,-4.3349,-4.329,-4.329,-4.329,-4.329,-4.329,-4.2851,-4.247,-4.2261,-4.1205,-4.0457,-4.0277,-3.9738,-3.917,-3.8571,-3.7823,-3.7075,-3.6357,-3.5789,-3.5519,-3.5519,-3.5519,-3.5519,-3.5519,-3.5519,-3.5519,-3.5519,-3.5519,-3.5519,-3.2877,-3.3729,-3.4643,-3.533,-3.5519,-3.5294,0.0,0.0,0.0,0.0,0.0,0.0,0.0,0.0,0.0,0.0,0.0,0.0,0.0,0.0,0.0,0.0,0.0,0.0,0.0,0.0,0.0,0.0,0.0,0.0,0.0,-6.2587,-6.2154,-6.1765,-6.1736,-6.2198,-6.3228,-6.3139,-6.3079,-6.3079,-6.3079,-6.278,-6.2241,-6.2151,-6.1463,-6.0356,0.0,-5.889,-5.8171,-5.6974,-5.6346,-5.6128,-5.494,-5.4012,-5.3264,-5.2606,-5.1947,-5.1349,-5.1259,-5.0794,-5.0435,-5.105,-5.0032,-4.8686,-4.9179,-4.8416,-4.7429,-4.7339,-4.7309,-4.7309,-4.7309,-4.7309,-4.7309,-4.7309,-4.7309,-4.7309,-4.7309,-4.7219,-4.695,-4.6292,-4.5603,-4.4945,-4.4287,-4.3678,-4.329,-4.329,-4.329,-4.329,-4.329,-4.32,-4.2761,-4.1654,-4.1354,-4.0786,-3.9679,-3.9433,-3.9379,-3.926,-3.8093,-3.6896,-3.5699,-3.5549,-3.5519,-3.5519,-3.5519,-3.5519,-3.5519,-3.5519,-3.5519,-3.5519,-3.5519,-3.5519,-3.2345,-3.2971,-3.354,-3.4206,-3.4832,-3.5089,-3.4325,0.0,0.0,0.0,0.0,0.0,0.0,0.0,0.0,0.0,0.0,0.0,0.0,0.0,0.0,0.0,0.0,0.0,0.0,0.0,0.0,0.0,0.0,0.0,0.0,0.0,-6.1623,-6.2232,-6.2292,-6.2529,-6.3079,-6.272,-6.254,-6.254,-6.254,-6.2211,-6.1553,-6.1164,-6.0685,-6.0027,0.0,-5.8201,-5.7453,-5.6166,-5.5448,-5.4999,-5.4042,-5.3234,-5.2576,-5.1917,-5.1468,-5.1169,-5.0764,-5.0435,-5.0255,-5.0554,-4.9613,-4.8416,-4.912,-4.8356,-4.7309,-4.7309,-4.7309,-4.7309,-4.7309,-4.7309,-4.7309,-4.7309,-4.7309,-4.7309,-4.7309,-4.6741,-4.6142,-4.5813,-4.4945,-4.4137,-4.3798,-4.3499,-4.329,-4.329,-4.329,-4.329,-4.329,-4.329,-4.308,-4.2491,-4.1803,-4.1145,-4.0516,-3.9828,-3.926,-3.8871,-3.8272,-3.7524,-3.6567,-3.6537,-3.6387,-3.6058,-3.6028,-3.5848,-3.5519,-3.5519,-3.5519,-3.5519,-3.5519,-3.5519,-3.1478,-3.2019,-3.2307,-3.2361,0.0,-3.4509,-3.4524,0.0,0.0,0.0,0.0,0.0,0.0,0.0,0.0,0.0,0.0,0.0,0.0,0.0,0.0,0.0,0.0,0.0,0.0,0.0,0.0,0.0,0.0,0.0,0.0,0.0,-6.1703,-6.3079,-6.3079,-6.3079,-6.3079,-6.2421,-6.2091,-6.2091,-6.1942,-6.1523,-6.0835,-6.0176,-5.9757,-5.9548,-5.8231,-5.7274,-5.6555,-5.5418,-5.4581,-5.3892,-5.3204,-5.2546,-5.1917,-5.1409,-5.1229,-5.1109,-5.0435,-5.0196,-5.0166,-5.0016,-4.9224,-4.8386,-4.894,-4.8237,-4.7309,-4.7309,-4.7309,-4.7309,-4.7309,-4.7309,-4.7309,-4.7309,-4.7309,-4.7309,-4.7309,-4.6501,-4.5723,-4.5574,-4.4736,-4.3888,-4.3589,-4.3529,-4.3469,-4.3319,-4.329,-4.329,-4.329,-4.329,-4.323,-4.312,-4.2073,-4.1159,-4.0604,-3.9728,-3.8957,-3.8275,-3.8376,-3.8093,-3.7434,-3.7404,-3.7195,-3.6716,-3.6716,-3.6387,-3.5729,-3.5729,-3.5639,-3.5519,-3.5519,-3.5519,-2.9138,-3.0275,-3.1124,-2.9593,0.0,0.0,-3.4853,-3.521,0.0,0.0,0.0,0.0,0.0,0.0,0.0,0.0,0.0,0.0,0.0,0.0,0.0,0.0,0.0,0.0,0.0,0.0,0.0,0.0,0.0,0.0,0.0,0.0,0.0,-6.3079,-6.3079,-6.3079,-6.3079,-6.2421,-6.2091,-6.2091,-6.1493,-6.0835,-6.0146,-5.9488,-5.883,-5.8201,-5.6885,-5.5957,-5.5269,-5.4581,-5.3862,-5.3204,-5.2516,-5.1858,-5.1289,-5.1229,-5.1229,-5.1109,-5.0435,-5.0196,-5.0106,-4.9523,-4.8865,-4.8297,-4.8356,-4.7878,-4.7309,-4.7309,-4.7309,-4.7309,-4.7309,-4.7309,-4.7309,-4.7309,-4.7309,-4.7309,-4.7309,-4.7219,-4.698,-4.6381,-4.613,-4.5723,-4.4466,-4.4257,-4.4047,-4.3379,-4.329,-4.329,-4.329,-4.329,-4.312,-4.253,-4.1841,-4.0469,-3.8263,-3.8496,-3.8486,-3.789,-3.8191,-3.8093,-3.7434,-3.7404,-3.7375,-3.7345,-3.7345,-3.7045,-3.6417,-3.6417,-3.6118,-3.5519,-3.5519,-3.5519,-2.7568,-2.893,-3.0256,-2.9628,0.0,0.0,0.0,0.0,0.0,0.0,0.0,0.0,0.0,0.0,0.0,0.0,0.0,0.0,0.0,0.0,0.0,0.0,0.0,0.0,0.0,0.0,0.0,0.0,0.0,0.0,0.0,0.0,0.0,-6.248,-6.248,-6.2271,-6.1852,-6.1194,-6.0655,-6.0236,-6.0386,-5.9907,-5.886,-5.859,-5.8112,-5.7423,-5.6555,-5.5807,-5.5119,-5.4012,-5.3174,-5.2516,-5.1858,-5.1439,-5.1229,-5.1229,-5.1229,-5.1079,-5.0002,-4.9643,-4.9523,-4.8865,-4.8207,-4.7758,-4.8147,-4.7818,-4.7309,-4.7309,-4.7309,-4.7309,-4.7309,-4.7309,-4.7309,-4.7309,-4.7309,-4.7309,-4.7309,-4.698,-4.6501,-4.5813,-4.5364,-4.4725,-4.3828,-4.3678,-4.3589,-4.3319,-4.329,-4.329,-4.329,-4.329,-4.32,-4.3,-4.141,-3.9867,-3.8544,-3.7997,-3.763,-3.7377,-3.815,-3.8598,-3.8656,-3.8626,-3.8452,-3.8033,-3.8033,-3.7396,-3.612,-3.6387,-3.6026,-3.5122,-3.5373,-3.5519,-2.6238,-2.712,-2.8114,0.0,0.0,0.0,0.0,0.0,0.0,0.0,0.0,0.0,0.0,0.0,0.0,0.0,0.0,0.0,0.0,0.0,0.0,0.0,0.0,0.0,0.0,0.0,0.0,0.0,0.0,0.0,0.0,0.0,0.0,0.0,-6.1792,-6.1463,-6.0805,-6.0116,-5.9458,-5.88,-5.9039,-5.868,-5.7782,-5.7603,-5.7244,-5.6765,-5.5927,-5.5179,-5.4461,-5.3324,-5.2486,-5.1858,-5.1379,-5.1079,-5.0883,-5.1139,-5.1079,-5.0734,-4.9883,-4.9583,-4.9434,-4.8566,-4.7967,-4.7668,-4.7908,-4.7668,-4.7309,-4.7309,-4.7309,-4.7309,-4.7309,-4.7309,-4.7309,-4.7309,-4.7309,-4.7309,-4.7309,-4.695,-4.6501,-4.6022,-4.5574,-4.4975,-4.4067,-4.3917,-4.3768,-4.3349,-4.329,-4.329,-4.329,-4.329,-4.3081,-4.2524,-4.0858,-3.9258,-3.7889,-3.7194,-3.6797,-3.6606,-3.7957,-3.8878,-3.9158,-3.9318,-3.92,-3.8721,-3.8721,-3.8044,-3.6691,-3.6634,-3.6158,-3.5403,-3.5335,-3.5373,-2.5205,-2.4878,0.0,0.0,0.0,0.0,0.0,0.0,0.0,0.0,0.0,0.0,0.0,0.0,0.0,0.0,0.0,0.0,0.0,0.0,0.0,0.0,0.0,0.0,0.0,0.0,0.0,0.0,0.0,0.0,0.0,0.0,0.0,0.0,-6.1074,-6.0745,-6.0057,-5.9398,-5.874,-5.8082,-5.7393,-5.7094,-5.7064,-5.6436,-5.6218,-5.6077,-5.476,-5.3803,-5.3114,-5.2456,-5.1798,-5.1199,-5.1199,-5.0764,-5.0255,-5.096,-5.0734,-5.0196,-5.0196,-5.0196,-4.9956,-4.8716,-4.8297,-4.8147,-4.7489,-4.7309,-4.7309,-4.7309,-4.7309,-4.7309,-4.7309,-4.7309,-4.7309,-4.7309,-4.7309,-4.7309,-4.7309,-4.7309,-4.7309,-4.7309,-4.7309,-4.686,-4.5514,-4.5274,-4.4825,-4.3499,-4.329,-4.329,-4.329,-4.329,-4.2623,-4.0804,-4.0089,-3.8629,-3.577,-3.5989,-3.6068,-3.5532,-3.7652,-3.8838,-3.8706,-3.9188,-3.9403,-3.9403,-3.9373,-3.908,-3.8392,-3.7339,-3.6726,-3.6473,-3.5432,-3.5117,-2.4181,0.0,0.0,0.0,0.0,0.0,0.0,0.0,0.0,0.0,0.0,0.0,0.0,0.0,0.0,0.0,0.0,0.0,0.0,0.0,0.0,0.0,0.0,0.0,0.0,0.0,0.0,0.0,0.0,0.0,0.0,0.0,0.0,-5.9039,-5.9009,-5.868,-5.7992,-5.7782,-5.7154,-5.6047,-5.5867,-5.5987,-5.6406,-5.5777,-5.5239,-5.473,-5.3862,-5.3114,-5.2396,-5.1289,-5.0674,-5.0435,-5.0032,-4.9733,-4.9583,-4.9763,-5.0002,-5.0136,-4.9703,-4.9553,-4.9404,-4.8566,-4.7967,-4.7549,-4.7369,-4.7309,-4.7309,-4.7309,-4.7309,-4.7309,-4.7309,-4.7309,-4.7309,-4.7309,-4.7309,-4.7309,-4.7309,-4.7309,-4.716,-4.6711,-4.6232,-4.5753,-4.5364,-4.4526,-4.3928,-4.4018,-4.3589,-4.329,-4.329,-4.2589,-4.1901,-4.1369,-3.9354,-3.7677,-3.6849,-3.6148,-3.6039,-3.6718,-3.8113,-3.9033,-3.9298,-3.9837,-4.0098,-4.0098,-3.9649,-3.8928,-3.7965,-3.7929,-3.7517,-3.6713,-3.6663,-3.6505,-2.2877,0.0,0.0,0.0,0.0,0.0,0.0,0.0,0.0,0.0,0.0,0.0,0.0,0.0,0.0,0.0,0.0,0.0,0.0,0.0,0.0,0.0,0.0,0.0,0.0,0.0,0.0,0.0,0.0,0.0,0.0,0.0,0.0,-5.7752,-5.7483,-5.7034,-5.6346,-5.6077,-5.5418,-5.4401,-5.4401,-5.461,-5.497,-5.4581,-5.4162,-5.3743,-5.2815,-5.1887,-5.099,-5.0182,-4.9853,-4.9823,-4.9404,-4.9149,-4.897,-4.9209,-4.9344,-4.9434,-4.9314,-4.9149,-4.885,-4.8416,-4.7848,-4.7309,-4.7309,-4.7309,-4.7309,-4.7309,-4.7309,-4.7309,-4.7309,-4.7309,-4.7309,-4.7309,-4.7309,-4.7309,-4.7309,-4.7309,-4.7189,-4.68,-4.6381,-4.5933,-4.5394,-4.4646,-4.4077,-4.3917,-4.3559,-4.329,-4.329,-4.2275,-4.142,-4.0958,-3.8771,-3.713,-3.6619,-3.5918,-3.6009,-3.7219,-3.8548,-3.9634,-4.0342,-4.0663,-4.0666,-4.0397,-4.0008,-3.9357,-3.8435,-3.8245,-3.7922,-3.7448,-3.7246,-3.7055,0.0,0.0,0.0,0.0,0.0,0.0,0.0,0.0,0.0,0.0,0.0,0.0,0.0,0.0,0.0,0.0,0.0,0.0,0.0,0.0,0.0,0.0,0.0,0.0,0.0,0.0,0.0,0.0,0.0,0.0,0.0,0.0,-5.6855,-5.6735,-5.6196,-5.5598,-5.4999,-5.4401,-5.3773,-5.3084,-5.3025,-5.2995,-5.2995,-5.3054,-5.3025,-5.2845,-5.1588,-5.0361,-4.9299,-4.9239,-4.9209,-4.9209,-4.9149,-4.876,-4.8267,-4.891,-4.8745,-4.8386,-4.903,-4.882,-4.8297,-4.8297,-4.7848,-4.7309,-4.7309,-4.7309,-4.7309,-4.7309,-4.7309,-4.7309,-4.7309,-4.7309,-4.7309,-4.7309,-4.7309,-4.7309,-4.7309,-4.7309,-4.7309,-4.7309,-4.7249,-4.683,-4.5603,-4.5274,-4.4766,-4.3469,-4.329,-4.329,-4.329,-4.2193,-4.1042,-4.0015,-3.8299,-3.676,-3.5651,-3.5651,-3.6268,-3.7449,-3.9104,-4.0575,-4.1711,-4.1568,-4.1175,-4.0576,-4.0516,-4.0157,-3.9463,-3.8522,-3.8208,-3.8482,-3.7463,-3.7214,0.0,0.0,0.0,0.0,0.0,0.0,0.0,0.0,0.0,0.0,0.0,0.0,0.0,0.0,0.0,0.0,0.0,0.0,0.0,0.0,0.0,0.0,0.0,0.0,0.0,0.0,0.0,0.0,0.0,0.0,0.0,-5.5748,-5.5119,-5.4042,-5.3892,-5.3743,-5.3623,-5.3473,-5.3084,0.0,-5.1887,-5.1648,-5.1648,-5.2187,-5.1858,-5.0794,-5.0032,-4.9569,-4.9269,-4.8716,-4.8506,-4.8446,-4.7938,-4.7638,-4.7549,-4.7668,-4.7967,-4.8297,-4.8446,-4.8416,-4.8297,-4.8297,-4.7848,-4.7309,-4.7309,-4.7309,-4.7309,-4.7309,-4.7309,-4.7309,-4.7309,-4.7309,-4.7309,-4.7309,-4.7309,-4.7309,-4.7309,-4.7309,-4.7309,-4.7309,-4.689,-4.6441,-4.6142,-4.5214,-4.4257,-4.3409,-4.329,-4.329,-4.329,-4.1532,-4.0145,-3.9956,-3.7938,-3.6485,-3.6229,-3.7016,-3.8058,-3.9256,-4.0533,-4.174,-4.29,-4.2434,-4.2111,-4.1991,-4.1482,-4.0846,-4.0187,-3.9936,-3.9609,-3.92,-3.8954,-3.8597,0.0,0.0,0.0,0.0,0.0,0.0,0.0,0.0,0.0,0.0,0.0,0.0,0.0,0.0,0.0,0.0,0.0,0.0,0.0,0.0,0.0,0.0,0.0,0.0,0.0,0.0,0.0,0.0,0.0,0.0,0.0,-5.4102,-5.3443,-5.2725,-5.2097,-5.1768,-5.1768,-5.1468,-5.1186,-5.078,-5.0451,-5.0272,-5.0301,-5.096,-5.0541,-4.9284,-4.8955,-4.8626,-4.8297,-4.7967,-4.7818,-4.7788,-4.7429,-4.7309,-4.7309,-4.7309,-4.7519,-4.7818,-4.7818,-4.7818,-4.7818,-4.7818,-4.7578,-4.7309,-4.7309,-4.7309,-4.7309,-4.7309,-4.7309,-4.7309,-4.7309,-4.7309,-4.7309,-4.7309,-4.7309,-4.7309,-4.7309,-4.6814,-4.6388,-4.6388,-4.6124,-4.5668,-4.5022,-4.4335,-4.3798,-4.3768,-4.3499,-4.313,-4.2548,-4.142,-4.049,-3.9956,-3.881,-3.8088,-3.8088,-3.8604,-3.9448,-4.0661,-4.1253,-4.2111,-4.325,-4.3,-4.2671,-4.241,-4.2081,-4.1422,-4.0397,-4.0397,-4.0068,-3.9373,-3.9373,-3.923,0.0,0.0,0.0,0.0,0.0,0.0,0.0,0.0,0.0,0.0,0.0,0.0,0.0,0.0,0.0,0.0,0.0,0.0,0.0,0.0,0.0,0.0,0.0,0.0,0.0,0.0,0.0,0.0,0.0,0.0,-5.3129,-5.236,-5.1828,-5.1708,-5.0631,-5.0016,-5.0016,-4.9523,-4.9299,-4.9299,-4.9299,-4.9179,-4.9,-4.9613,-4.9314,-4.8267,-4.8177,-4.7818,-4.7309,-4.7309,-4.7309,-4.7309,-4.7309,-4.7309,-4.7309,-4.7309,-4.7309,-4.7309,-4.7309,-4.7309,-4.7309,-4.7309,-4.7309,-4.7309,-4.7309,-4.7149,-4.7019,-4.7266,-4.7149,-4.7019,-4.7266,-4.7309,-4.7309,-4.7309,-4.7106,-4.6975,-4.6975,-4.5958,-4.507,-4.507,-4.5166,-4.4813,-4.3473,-4.339,-4.3618,-4.4077,-4.3498,-4.2739,-4.1988,-4.1545,-4.1042,-4.0275,-4.0043,-3.9913,-3.9913,-4.0059,-4.0618,-4.1545,-4.1753,-4.2316,-4.325,-4.329,-4.309,-4.259,-4.244,-4.1811,-4.0576,-4.0457,-4.0068,-3.9373,-3.9373,-3.9373,0.0,0.0,0.0,0.0,0.0,0.0,0.0,0.0,0.0,0.0,0.0,0.0,0.0,0.0,0.0,0.0,0.0,0.0,0.0,0.0,0.0,0.0,0.0,0.0,0.0,0.0,0.0,0.0,0.0,0.0,-4.9098,-4.9934,-5.0242,-4.9719,-4.9539,-4.9449,-4.9449,-4.9359,-4.9299,-4.9299,-4.9299,-4.87,-4.7578,-4.8237,-4.8446,-4.8267,-4.7698,-4.7399,-4.7309,-4.7309,-4.7309,-4.7309,-4.7309,-4.7309,-4.7309,-4.7309,-4.7309,-4.7309,-4.7309,-4.7309,-4.7309,-4.7309,-4.7309,-4.7309,-4.7309,-4.655,-4.5869,-4.6975,-4.6506,-4.5913,-4.7019,-4.7309,-4.7309,-4.7309,-4.6462,-4.5644,-4.5644,-4.4627,-4.374,-4.374,-4.4157,-4.4135,-4.2926,-4.3531,-4.4018,-4.3499,-4.2526,-4.2111,-4.2981,-4.1365,-4.0447,-4.1295,-4.049,-3.9913,-3.9913,-4.0788,-4.142,-4.1587,-4.2548,-4.317,-4.329,-4.329,-4.326,-4.317,-4.2641,-4.2021,-4.1302,-4.0666,-4.0068,-3.9373,-3.9373,-3.9373,0.0,0.0,0.0,0.0,0.0,0.0,0.0,0.0,0.0,0.0,0.0,0.0,0.0,0.0,0.0,0.0,0.0,0.0,0.0,0.0,0.0,0.0,0.0,0.0,0.0,0.0,0.0,0.0,0.0,-4.5692,-4.7221,-4.7461,-4.7938,-4.8716,-4.8356,-4.8177,-4.8177,-4.8177,-4.8177,-4.8177,-4.8177,-4.7878,-4.7309,-4.7608,-4.7728,-4.7728,-4.7429,-4.7309,-4.7309,-4.7309,-4.7309,-4.7309,-4.7309,-4.7309,-4.7309,-4.7309,-4.7309,-4.7309,-4.7309,-4.7309,-4.7309,-4.7309,-4.7309,-4.7309,-4.7309,-4.6388,-4.5553,-4.6077,-4.5824,-4.5553,-4.6121,-4.677,-4.7309,-4.7309,-4.5779,-4.4349,-4.4349,-4.3313,-4.2447,-4.2447,-4.2345,-4.2444,-4.3031,-4.2662,-4.2281,-4.2396,-4.2251,-4.2105,-4.1937,-4.2493,-4.2894,-4.2724,-4.2534,-4.2373,-4.2373,-4.2468,-4.2548,-4.2548,-4.3021,-4.329,-4.329,-4.329,-4.329,-4.329,-4.2701,-4.2081,-4.1422,-4.0726,-4.0068,-3.9373,-3.9373,-3.9373,0.0,0.0,0.0,0.0,0.0,0.0,0.0,0.0,0.0,0.0,0.0,0.0,0.0,0.0,0.0,0.0,0.0,0.0,0.0,0.0,0.0,0.0,0.0,0.0,0.0,0.0,0.0,0.0,0.0,-4.2484,-4.4686,-4.4676,-4.5325,-4.7051,-4.6798,-4.678,-4.704,-4.7219,-4.7309,-4.7309,-4.7309,-4.7309,-4.7309,-4.7309,-4.7309,-4.7309,-4.7309,-4.7309,-4.7309,-4.7309,-4.7309,-4.7309,-4.7309,-4.7309,-4.7309,-4.7309,-4.7309,-4.7309,-4.7309,-4.7309,-4.7266,-4.6931,-4.7019,-4.7149,-4.655,-4.5689,-4.4932,-4.4932,-4.4932,-4.4978,-4.5298,-4.6344,-4.7309,-4.7309,-4.5598,-4.374,-4.2738,-4.1789,-4.1093,-4.0937,-4.0874,-4.1227,-4.2345,-4.1902,-4.1502,-4.1809,-4.2308,-4.2381,-4.1779,-4.3542,-4.4659,-4.4107,-4.4329,-4.4496,-4.4317,-4.3828,-4.3469,-4.329,-4.329,-4.329,-4.329,-4.329,-4.329,-4.329,-4.2521,-4.1901,-4.1422,-4.0546,-3.9888,-3.9373,-3.9373,-3.9373,0.0,0.0,0.0,0.0,0.0,0.0,0.0,0.0,0.0,0.0,0.0,0.0,0.0,0.0,0.0,0.0,0.0,0.0,0.0,0.0,0.0,0.0,0.0,0.0,0.0,0.0,0.0,0.0,0.0,-4.068,-4.0266,-4.1351,-4.2559,-4.3791,-4.4457,-4.5259,-4.6339,-4.698,-4.7309,-4.7309,-4.7309,-4.7309,-4.7309,-4.7309,-4.7309,-4.7309,-4.7309,-4.7309,-4.7309,-4.7309,-4.7309,-4.7309,-4.7309,-4.7309,-4.7309,-4.7309,-4.7309,-4.7309,-4.7309,-4.7309,-4.7106,-4.5869,-4.6299,-4.6844,-4.4442,-4.3646,-4.3598,-4.3598,-4.3598,-4.3882,-4.507,-4.6344,-4.7309,-4.7309,-4.6299,-4.4303,-4.0693,-3.9826,-3.9624,-3.9171,-4.0406,-4.1221,-4.0139,-4.1817,-4.3055,-4.2439,-4.2495,-4.296,-4.4002,-4.3868,-4.4107,-4.5108,-4.5203,-4.4975,-4.4377,-4.4287,-4.3988,-4.3319,-4.329,-4.329,-4.329,-4.329,-4.329,-4.329,-4.2073,-4.1414,-4.1422,-4.0098,-3.9403,-3.9373,-3.9373,-3.9373,0.0,0.0,0.0,0.0,0.0,0.0,0.0,0.0,0.0,0.0,0.0,0.0,0.0,0.0,0.0,0.0,0.0,0.0,0.0,0.0,0.0,0.0,0.0,0.0,0.0,0.0,0.0,0.0,0.0,0.0,-3.8833,-3.931,-4.0138,-4.1395,-4.2711,-4.4105,-4.5663,-4.5903,-4.6232,-4.6681,-4.6681,-4.689,-4.7309,-4.7309,-4.7309,-4.7279,-4.686,-4.692,-4.7309,-4.7309,-4.7309,-4.7309,-4.7309,-4.7309,-4.7309,-4.7309,-4.7309,-4.7309,-4.7309,-4.7309,-4.7062,-4.5824,-4.5734,-4.5779,-4.4022,-4.3504,-4.3504,-4.3504,-4.4069,-4.484,-4.5252,-4.6344,-4.7062,-4.6255,-4.5734,-4.4581,-4.1541,-4.0945,-4.0867,-4.0659,-4.1188,-4.1459,-4.1014,-4.2043,-4.2705,-4.2043,-4.2665,-4.3386,-4.3799,-4.4726,-4.5658,-4.6488,-4.5813,-4.5185,-4.4975,-4.4167,-4.3559,-4.3319,-4.329,-4.329,-4.329,-4.329,-4.329,-4.329,-4.2043,-4.1422,-4.1422,-4.0068,-3.9373,-3.9373,-3.9373,-3.9017,0.0,0.0,0.0,0.0,0.0,0.0,0.0,0.0,0.0,0.0,0.0,0.0,0.0,0.0,0.0,0.0,0.0,0.0,0.0,0.0,0.0,0.0,0.0,0.0,0.0,0.0,0.0,0.0,0.0,0.0,-3.7326,-3.7345,-3.7952,-3.9207,-4.0717,-4.2347,-4.4122,-4.4329,-4.4822,-4.5663,-4.5873,-4.6202,-4.6621,-4.6621,-4.6621,-4.6591,-4.6172,-4.6471,-4.7279,-4.707,-4.71,-4.7309,-4.7309,-4.7309,-4.7309,-4.7309,-4.7309,-4.7309,-4.7309,-4.7309,-4.7062,-4.5824,-4.5689,-4.5734,-4.4022,-4.3787,-4.4069,-4.3646,-4.4396,-4.5389,-4.5389,-4.6344,-4.7062,-4.6255,-4.6032,-4.5598,-4.3882,-4.2834,-4.2133,-4.169,-4.1936,-4.223,-4.223,-4.2818,-4.3125,-4.266,-4.3702,-4.4514,-4.4514,-4.5733,-4.683,-4.7249,-4.6292,-4.5544,-4.5304,-4.4496,-4.3768,-4.3319,-4.3499,-4.3529,-4.329,-4.329,-4.329,-4.329,-4.2252,-4.1632,-4.1422,-4.0068,-3.9373,-3.9373,-3.9373,-3.8898,0.0,0.0,0.0,0.0,0.0,0.0,0.0,0.0,0.0,0.0,0.0,0.0,0.0,0.0,0.0,0.0,0.0,0.0,0.0,0.0,0.0,0.0,0.0,0.0,0.0,0.0,0.0,0.0,0.0,-3.6634,-3.5508,-3.5433,-3.6024,-3.729,-3.8464,-3.9915,-4.1641,-4.2289,-4.3153,-4.4216,-4.4915,-4.5244,-4.5274,-4.5274,-4.5304,-4.5304,-4.5274,-4.6022,-4.7189,-4.6591,-4.6711,-4.7309,-4.7309,-4.7309,-4.7309,-4.7309,-4.7309,-4.7309,-4.7309,-4.7309,-4.7062,-4.5824,-4.6255,-4.677,-4.4228,-4.4396,-4.5161,-4.3854,-4.4489,-4.5434,-4.5389,-4.6299,-4.7266,-4.7266,-4.7266,-4.7222,-4.7222,-4.5298,-4.3266,-4.1985,-4.2689,-4.3551,-4.3551,-4.4054,-4.4467,-4.4467,-4.5534,-4.6279,-4.6279,-4.689,-4.7279,-4.7309,-4.6681,-4.6022,-4.5364,-4.5274,-4.4706,-4.3379,-4.3958,-4.4018,-4.3319,-4.329,-4.329,-4.329,-4.2701,-4.2081,-4.1452,-4.0098,-3.9403,-3.9373,-3.9337,-3.8943,-2.6499,0.0,0.0,0.0,0.0,0.0,0.0,0.0,0.0,0.0,0.0,0.0,0.0,0.0,0.0,0.0,0.0,0.0,0.0,0.0,0.0,0.0,0.0,0.0,0.0,0.0,0.0,0.0,-3.5403,-3.5102,-3.4399,-3.3972,-3.4288,-3.5447,-3.6224,-3.7234,-3.8621,-3.9934,-4.0966,-4.1784,-4.3178,-4.4137,-4.4586,-4.5065,-4.5304,-4.5274,-4.4796,-4.5065,-4.5873,-4.6202,-4.6711,-4.7309,-4.7309,-4.7309,-4.7309,-4.7309,-4.7309,-4.7309,-4.7309,-4.7309,-4.7062,-4.5824,-4.5644,-4.5557,-4.3399,-4.3983,-4.5211,-4.439,-4.543,-4.655,-4.5644,-4.5644,-4.5913,-4.5913,-4.5913,-4.5689,-4.4748,-4.5434,-4.5869,-4.4581,-4.4627,-4.4886,-4.4886,-4.5768,-4.6355,-4.5838,-4.6079,-4.6279,-4.6279,-4.6429,-4.677,-4.7249,-4.6262,-4.5514,-4.5304,-4.4855,-4.4227,-4.3349,-4.3958,-4.4018,-4.3319,-4.329,-4.329,-4.329,-4.2701,-4.2321,-4.2141,-4.0756,-3.9888,-3.9337,-3.7814,-3.6985,0.0,0.0,0.0,0.0,0.0,0.0,0.0,0.0,0.0,0.0,0.0,0.0,0.0,0.0,0.0,0.0,0.0,0.0,0.0,0.0,0.0,0.0,0.0,0.0,0.0,0.0,0.0,-3.4022,-3.4048,-3.3796,-3.3219,-3.2667,-3.2675,-3.3353,-3.3664,-3.4398,-3.5544,-3.6785,-3.7777,-3.8649,-4.0123,-4.1427,-4.2543,-4.3153,-4.3801,-4.4466,-4.4077,-4.4287,-4.4915,-4.5304,-4.6052,-4.689,-4.689,-4.707,-4.7309,-4.7309,-4.7309,-4.7309,-4.7309,-4.7309,-4.7149,-4.6432,-4.6211,-4.5989,-4.4867,-4.5309,-4.6123,-4.5698,-4.605,-4.6211,-4.4932,-4.4581,-4.4581,-4.4581,-4.4457,-4.4213,-4.3937,-4.5104,-4.5844,-4.4829,-4.5434,-4.6211,-4.6211,-4.6814,-4.7189,-4.68,-4.6741,-4.6741,-4.6741,-4.6741,-4.689,-4.7279,-4.6352,-4.5723,-4.5723,-4.5364,-4.4736,-4.3768,-4.4377,-4.4317,-4.3319,-4.329,-4.329,-4.329,-4.2701,-4.2141,-4.1572,-4.0756,-4.0068,-3.9337,-3.7214,-3.6448,0.0,0.0,0.0,0.0,0.0,0.0,-2.4356,-2.3672,-2.3421,0.0,0.0,0.0,0.0,0.0,0.0,0.0,0.0,0.0,0.0,0.0,0.0,0.0,0.0,0.0,0.0,-3.2064,-3.234,-3.2842,-3.2893,-3.2667,-3.2139,-3.1662,-3.1361,-3.1311,-3.1361,-3.1822,-3.2738,-3.3489,-3.4376,-3.5349,-3.6603,-3.8025,-3.9621,-4.0267,-4.1474,-4.3011,-4.313,-4.3559,-4.4197,-4.4197,-4.5005,-4.619,-4.6249,-4.6681,-4.7219,-4.7279,-4.7309,-4.7309,-4.7309,-4.7309,-4.7309,-4.7309,-4.7309,-4.7309,-4.7219,-4.7249,-4.7266,-4.7106,-4.6255,-4.507,-4.3646,-4.3313,-4.3286,-4.3231,-4.2838,-4.2777,-4.3766,-4.4158,-4.4122,-4.3518,-4.5496,-4.7279,-4.7219,-4.7249,-4.7266,-4.7106,-4.7222,-4.7266,-4.7106,-4.7222,-4.7309,-4.7309,-4.6651,-4.619,-4.6279,-4.6219,-4.5663,-4.4407,-4.4915,-4.4706,-4.3349,-4.329,-4.329,-4.329,-4.2701,-4.1752,-4.0397,-4.0196,-3.9794,-3.9192,-3.7021,-3.6526,0.0,0.0,0.0,0.0,0.0,0.0,-2.5008,-2.455,-2.4374,0.0,0.0,0.0,0.0,0.0,0.0,0.0,0.0,0.0,0.0,0.0,0.0,0.0,0.0,0.0,0.0,-3.1035,-3.1587,-3.1712,-3.1712,-3.1662,-3.1562,-3.1461,-3.121,-3.0783,-3.116,-3.1307,-3.1077,-3.2476,-3.329,-3.3551,-3.5162,-3.637,-3.7142,-3.8656,-4.005,-4.1354,-4.2208,-4.291,-4.3499,-4.3499,-4.4317,-4.5544,-4.6112,-4.6411,-4.6591,-4.71,-4.7309,-4.7309,-4.7309,-4.7309,-4.7309,-4.7309,-4.7309,-4.7219,-4.6681,-4.689,-4.7062,-4.6077,-4.5598,-4.4886,-4.2544,-4.1985,-4.1852,-4.1448,-4.1234,-4.125,-4.1442,-4.1975,-4.245,-4.2647,-4.5207,-4.713,-4.6621,-4.695,-4.6975,-4.5913,-4.6638,-4.6931,-4.5913,-4.6682,-4.7309,-4.7309,-4.6232,-4.5723,-4.6219,-4.5813,-4.5155,-4.4377,-4.4915,-4.4706,-4.3349,-4.329,-4.329,-4.329,-4.2701,-4.1752,-4.0397,-3.8986,-3.8223,-3.8069,-3.5961,-3.5102,0.0,0.0,0.0,-2.6515,0.0,0.0,0.0,-2.4808,0.0,0.0,0.0,0.0,0.0,0.0,0.0,0.0,0.0,0.0,0.0,0.0,0.0,0.0,0.0,0.0,0.0,-2.8875,-2.9578,-3.0105,-3.0432,-3.0583,-3.0583,-3.0583,-3.0482,-3.0206,-3.0457,-3.0457,-3.0206,-3.0982,-3.1384,-3.1423,-3.2554,-3.3697,-3.4838,-3.6255,-3.8009,-3.9971,-4.1086,-4.209,-4.288,-4.317,-4.3678,-4.4407,-4.5424,-4.6022,-4.6411,-4.707,-4.7309,-4.7309,-4.7309,-4.7309,-4.7309,-4.7309,-4.7309,-4.7249,-4.692,-4.6383,-4.5624,-4.3985,-4.333,-4.2739,-4.1091,-4.0436,-4.0203,-3.9919,-3.9404,-3.9184,-3.9733,-4.0388,-4.093,-4.1158,-4.3234,-4.52,-4.5692,-4.5809,-4.5537,-4.4658,-4.4771,-4.4973,-4.4973,-4.5536,-4.6284,-4.7206,-4.6411,-4.6082,-4.6741,-4.5873,-4.5155,-4.4825,-4.4796,-4.4377,-4.3319,-4.329,-4.314,-4.2851,-4.1696,-4.0597,-3.9589,-3.7331,-3.6816,-3.7767,-3.5669,-3.4718,0.0,0.0,0.0,0.0,0.0,-2.6751,0.0,0.0,0.0,0.0,0.0,0.0,0.0,0.0,0.0,0.0,0.0,0.0,0.0,0.0,0.0,0.0,0.0,0.0,0.0,-2.6826,-2.7494,-2.8373,-2.8875,-2.9202,-2.9302,-2.9402,-2.9503,-2.9628,-2.9729,-2.9804,-2.9804,-2.9804,-2.9804,-2.9804,-3.0256,-3.1224,-3.2725,-3.3833,-3.5707,-3.8271,-3.9657,-4.0948,-4.2138,-4.2832,-4.32,-4.3409,-4.4646,-4.5514,-4.6202,-4.686,-4.7189,-4.7309,-4.7309,-4.7309,-4.7279,-4.716,-4.6927,-4.6753,-4.6767,-4.5566,-4.3806,-4.1957,-4.1059,-4.0477,-3.9728,-3.912,-3.8668,-3.8617,-3.7839,-3.745,-3.8397,-3.894,-3.9315,-3.9642,-4.084,-4.2367,-4.4131,-4.4168,-4.3665,-4.3004,-4.2896,-4.3069,-4.3612,-4.431,-4.5201,-4.6442,-4.6194,-4.6202,-4.686,-4.5813,-4.5095,-4.5095,-4.4381,-4.3745,-4.3319,-4.3061,-4.2624,-4.193,-4.0321,-3.9104,-3.8292,-3.5886,-3.5588,-3.7165,-3.5264,-3.4387,0.0,0.0,0.0,0.0,-2.762,0.0,0.0,0.0,0.0,0.0,0.0,0.0,0.0,0.0,0.0,0.0,0.0,0.0,0.0,0.0,0.0,0.0,0.0,0.0,0.0,0.0,-2.665,-2.6776,-2.6826,-2.7077,-2.7544,-2.8021,-2.8524,-2.8963,-2.9528,-2.9804,-2.9804,-2.9804,-2.9804,-2.9804,-2.9854,-3.0234,-3.0922,-3.2019,-3.3528,-3.5413,-3.742,-3.9344,-4.1029,-4.209,-4.2821,-4.3349,-4.4137,-4.4825,-4.5484,-4.6172,-4.68,-4.7309,-4.7309,-4.7309,-4.7219,-4.6621,-4.5652,-4.476,-4.4893,-4.3958,-4.262,-4.1282,-4.0451,-3.9847,-3.9195,-3.8542,-3.799,-3.7487,-3.7287,-3.7235,-3.7354,-3.7074,-3.7224,-3.8727,-3.8792,-3.9212,-4.0991,-4.1753,-4.169,-4.0482,-4.2144,-4.2766,-4.0729,-4.3224,-4.4892,-4.4095,-4.4305,-4.4796,-4.5454,-4.4855,-4.4436,-4.4436,-4.3382,-4.2948,-4.328,-4.2345,-4.1244,-4.0137,-3.8899,-3.7714,-3.6492,-3.5291,-3.4815,-3.502,-3.3827,-3.3283,0.0,0.0,0.0,0.0,0.0,0.0,-2.7128,0.0,-2.6063,0.0,0.0,0.0,0.0,0.0,0.0,0.0,0.0,0.0,0.0,0.0,0.0,0.0,0.0,0.0,0.0,0.0,0.0,0.0,-2.6298,-2.66,-2.6826,-2.7318,-2.7745,-2.7971,-2.8825,-2.9302,-2.9302,-2.9628,-2.9804,-2.9804,-2.9804,-2.9905,-3.0156,-3.0904,-3.2006,-3.3423,-3.5326,-3.7276,-3.9305,-4.0831,-4.1991,-4.2821,-4.3479,-4.4137,-4.4855,-4.5933,-4.6501,-4.68,-4.7189,-4.7309,-4.7249,-4.698,-4.6278,-4.5244,-4.3901,-4.2894,-4.1764,-3.9764,-3.8794,-3.8341,-3.8364,-3.7939,-3.7462,-3.7236,-3.6935,-3.6757,-3.6757,-3.6832,-3.7001,-3.7394,-3.754,-3.7809,-3.8579,-3.9488,-3.9926,-3.9368,-3.9648,-3.9787,-3.9462,-4.0768,-4.2185,-4.3459,-4.341,-4.3867,-4.5203,-4.4347,-4.3858,-4.4287,-4.2848,-4.2125,-4.2304,-4.1211,-4.0196,-3.9337,-3.7893,-3.6734,-3.5871,-3.446,-3.3742,-3.3742,-3.3326,-3.3111,-2.66,0.0,0.0,0.0,0.0,0.0,0.0,0.0,0.0,0.0,0.0,0.0,0.0,0.0,0.0,0.0,0.0,0.0,0.0,0.0,0.0,0.0,0.0,0.0,0.0,0.0,0.0,-2.4682,-2.5234,-2.5594,-2.5594,-2.6364,-2.6892,-2.7077,-2.8273,-2.8888,-2.8888,-2.9503,-2.9804,-2.9804,-2.9804,-2.9804,-2.9804,-3.0206,-3.0865,-3.1862,-3.341,-3.5405,-3.7701,-3.9351,-4.0989,-4.244,-4.288,-4.3479,-4.4197,-4.5334,-4.595,-4.6309,-4.6651,-4.6741,-4.6741,-4.6741,-4.6198,-4.5124,-4.3239,-4.19,-4.0629,-3.8781,-3.7653,-3.7086,-3.7638,-3.7362,-3.696,-3.696,-3.6707,-3.6405,-3.6405,-3.6732,-3.6883,-3.648,-3.6732,-3.7059,-3.7161,-3.7903,-3.8444,-3.8444,-3.7998,-3.7851,-3.8303,-3.8925,-4.015,-4.2378,-4.2438,-4.286,-4.4181,-4.3666,-4.3349,-4.3582,-4.2013,-4.1127,-4.1127,-3.9892,-3.8929,-3.8343,-3.6661,-3.5504,-3.493,-3.3674,-3.3111,-3.3111,-3.3111,-3.3111,0.0,0.0,0.0,-2.665,0.0,0.0,0.0,0.0,-2.7128,0.0,0.0,0.0,0.0,0.0,-2.4632,-2.4104,-2.4431,0.0,0.0,0.0,0.0,0.0,0.0,0.0,0.0,0.0,0.0,-2.2447,-2.2895,-2.3221,-2.3221,-2.4782,-2.5912,-2.6499,-2.8072,-2.8888,-2.8888,-2.9503,-2.9804,-2.9804,-2.9804,-2.9804,-2.9804,-2.9804,-3.0105,-3.0727,-3.1823,-3.3873,-3.6543,-3.7634,-3.9786,-4.241,-4.241,-4.2791,-4.3409,-4.4137,-4.5214,-4.619,-4.5574,-4.5364,-4.5364,-4.5364,-4.452,-4.3373,-4.2768,-4.093,-3.9005,-3.8912,-3.7706,-3.6556,-3.7061,-3.6857,-3.643,-3.643,-3.643,-3.6405,-3.6405,-3.643,-3.643,-3.6405,-3.643,-3.6606,-3.7086,-3.7235,-3.7235,-3.7235,-3.8161,-3.8283,-3.6669,-3.8477,-3.9897,-4.0012,-4.0986,-4.1686,-4.1686,-4.2699,-4.282,-4.174,-4.0603,-3.9929,-3.9929,-3.829,-3.7131,-3.6592,-3.4853,-3.3733,-3.3179,-3.3136,-3.3111,-3.3111,-3.3111,-3.3111,0.0,0.0,-2.8147,-2.7243,0.0,0.0,0.0,0.0,0.0,0.0,0.0,0.0,0.0,-2.5711,-2.5285,-2.5084,-2.4632,-2.4155,0.0,0.0,0.0,0.0,0.0,0.0,0.0,0.0,0.0,-2.2293,-2.2468,-2.2569,-2.2569,-2.418,-2.5184,-2.5385,-2.7318,-2.8373,-2.8373,-2.9327,-2.9804,-2.9804,-2.9804,-2.9804,-2.9804,-2.9804,-2.9905,-3.0119,-3.0826,-3.2084,-3.3715,-3.5259,-3.7338,-3.9592,-4.0881,-4.1883,-4.2821,-4.3898,-4.4616,-4.5035,-4.5214,-4.5005,-4.4706,-4.5155,-4.4727,-4.3826,-4.2849,-4.1995,-4.0924,-3.8959,-3.7946,-3.7407,-3.6821,-3.6556,-3.6405,-3.6405,-3.6405,-3.6405,-3.6405,-3.6405,-3.6405,-3.6405,-3.6405,-3.6581,-3.7086,-3.7186,-3.7312,-3.7688,-3.7774,-3.7693,-3.7486,-3.7851,-3.8391,-3.9146,-3.9573,-3.9991,-4.0432,-4.0831,-4.1532,-4.2629,-4.0204,-3.905,-3.9869,-3.7445,-3.589,-3.5302,-3.4395,-3.3621,-3.3111,-3.3111,-3.3111,-3.3111,-3.3111,-3.3111,-2.7027,-2.7519,0.0,-2.7203,-2.7304,0.0,-2.665,0.0,0.0,0.0,0.0,0.0,0.0,0.0,-2.5912,-2.5912,-2.5159,-2.4431,0.0,-2.3678,0.0,0.0,0.0,0.0,0.0,0.0,-2.2493,-2.2293,-2.2498,-2.2493,0.0,0.0,-2.48,-2.48,-2.6766,-2.7921,-2.8097,-2.9026,-2.9578,-2.9804,-2.9804,-2.9804,-2.9804,-2.9804,-2.9804,-2.9804,-3.0181,-3.1009,-3.2323,-3.4043,-3.6009,-3.8205,-4.0198,-4.1597,-4.253,-4.3569,-4.3917,-4.4047,-4.4706,-4.4676,-4.4347,-4.4526,-4.4466,-4.4135,-4.3143,-4.2557,-4.1852,-3.9881,-3.8711,-3.7926,-3.7196,-3.6709,-3.6405,-3.6405,-3.6405,-3.6405,-3.6405,-3.6709,-3.6896,-3.6499,-3.6709,-3.6998,-3.693,-3.7061,-3.7312,-3.7663,-3.7588,-3.7538,-3.7688,-3.7588,-3.7922,-3.9107,-3.9408,-3.9987,-4.1015,-4.0361,-4.0703,-4.2589,-3.9814,-3.8469,-3.9227,-3.6658,-3.5232,-3.5303,-3.4198,-3.3621,-3.3671,-3.3269,-3.3111,-3.3111,-3.3111,-3.3111]},{"header":{"parameterUnit":"m.s-1","parameterCategory":1,"la1":30.6,"la2":29.2853,"lo1":-89.7004,"lo2":-87.6739,"dy":0.0162,"dx":0.0183,"nx":112,"ny":82,"refTime":"2023-08-11T06:00:00:Z","depth":0,"parameterNumber":3,"parameterNumberName":"V-component_of_WINDS"},"data":[0.0,0.0,0.0,0.0,0.0,0.0,0.0,0.0,0.0,0.0,0.0,0.0,0.0,0.0,0.0,0.0,0.0,0.0,0.0,0.0,0.0,0.0,0.0,0.0,0.0,0.0,0.0,0.0,0.0,0.0,0.0,0.0,0.0,0.0,0.0,0.0,0.0,0.0,0.0,0.0,0.0,0.0,0.0,0.0,0.0,0.0,0.0,0.0,0.0,0.0,0.0,0.0,0.0,0.0,0.0,0.0,0.0,0.0,0.0,0.0,0.0,0.0,0.0,0.0,0.0,0.0,0.0,0.0,0.0,0.0,0.0,0.0,0.0,0.0,0.0,0.0,0.0,0.0,0.0,0.0,0.0,0.0,0.0,0.0,0.0,0.0,0.0,0.0,0.0,0.0,0.0,-1.5818,-1.7683,-1.8591,-1.8245,-1.8088,-1.7129,-1.5103,0.0,0.0,0.0,0.0,0.0,0.0,0.0,0.0,0.0,0.0,0.0,0.0,0.0,0.0,0.0,0.0,0.0,0.0,0.0,0.0,0.0,0.0,0.0,0.0,0.0,0.0,0.0,0.0,0.0,0.0,0.0,0.0,0.0,0.0,0.0,0.0,0.0,0.0,0.0,0.0,0.0,0.0,0.0,0.0,0.0,0.0,0.0,0.0,0.0,0.0,0.0,0.0,0.0,0.0,0.0,0.0,0.0,0.0,0.0,0.0,0.0,0.0,0.0,0.0,0.0,0.0,0.0,0.0,0.0,0.0,0.0,0.0,0.0,0.0,0.0,0.0,0.0,0.0,0.0,0.0,0.0,0.0,0.0,0.0,0.0,0.0,0.0,0.0,0.0,0.0,0.0,0.0,0.0,0.0,0.0,0.0,0.0,0.0,0.0,0.0,0.0,0.0,0.0,0.0,-1.5671,-1.7461,-1.9238,-2.0251,-2.0175,-1.8211,-1.674,-1.6117,0.0,0.0,0.0,0.0,0.0,0.0,0.0,0.0,0.0,0.0,0.0,0.0,0.0,0.0,0.0,0.0,0.0,0.0,0.0,0.0,0.0,0.0,0.0,0.0,0.0,0.0,0.0,0.0,0.0,0.0,0.0,0.0,0.0,0.0,0.0,0.0,0.0,0.0,0.0,0.0,0.0,0.0,0.0,0.0,0.0,0.0,0.0,0.0,0.0,0.0,0.0,0.0,0.0,0.0,0.0,0.0,0.0,0.0,0.0,0.0,0.0,0.0,0.0,0.0,0.0,0.0,0.0,0.0,0.0,0.0,0.0,0.0,0.0,0.0,0.0,0.0,0.0,0.0,0.0,0.0,0.0,0.0,0.0,0.0,0.0,0.0,0.0,0.0,0.0,0.0,0.0,0.0,0.0,0.0,0.0,0.0,0.0,0.0,0.0,0.0,0.0,0.0,0.0,-1.6562,-1.7383,-1.8887,-2.0176,-2.082,-2.0625,-1.9275,-1.8102,-1.7263,-1.5236,0.0,0.0,0.0,0.0,0.0,0.0,0.0,0.0,0.0,0.0,0.0,0.0,0.0,0.0,0.0,0.0,0.0,0.0,0.0,0.0,0.0,0.0,0.0,0.0,0.0,0.0,0.0,0.0,0.0,0.0,0.0,0.0,0.0,0.0,0.0,0.0,0.0,0.0,0.0,0.0,0.0,0.0,0.0,0.0,0.0,0.0,0.0,0.0,0.0,0.0,0.0,0.0,0.0,0.0,0.0,0.0,0.0,0.0,0.0,0.0,0.0,0.0,0.0,0.0,0.0,0.0,0.0,0.0,0.0,0.0,0.0,0.0,0.0,0.0,0.0,0.0,0.0,0.0,0.0,0.0,0.0,0.0,0.0,0.0,0.0,0.0,0.0,0.0,0.0,0.0,0.0,0.0,0.0,0.0,0.0,0.0,0.0,0.0,0.0,0.0,0.0,0.0,-1.7734,-1.8379,-1.9766,-2.0566,-2.0937,-2.0625,-1.9805,-1.8945,-1.8066,-1.5952,0.0,0.0,0.0,0.0,0.0,0.0,0.0,0.0,0.0,0.0,0.0,0.0,0.0,0.0,0.0,0.0,0.0,0.0,0.0,0.0,0.0,0.0,0.0,0.0,0.0,0.0,0.0,0.0,0.0,0.0,0.0,0.0,0.0,0.0,0.0,0.0,0.0,0.0,0.0,0.0,0.0,0.0,0.0,0.0,0.0,0.0,0.0,0.0,0.0,0.0,0.0,0.0,0.0,0.0,0.0,0.0,0.0,0.0,0.0,0.0,0.0,0.0,0.0,0.0,0.0,0.0,0.0,0.0,0.0,0.0,0.0,0.0,0.0,0.0,0.0,0.0,0.0,0.0,0.0,0.0,0.0,0.0,0.0,0.0,0.0,0.0,0.0,0.0,0.0,0.0,0.0,0.0,0.0,0.0,0.0,0.0,0.0,0.0,0.0,0.0,0.0,0.0,-1.7656,-1.8066,-1.9727,-2.0332,-2.0644,-2.0605,-1.8746,-1.7695,-1.7988,-1.5284,0.0,0.0,0.0,0.0,0.0,0.0,0.0,0.0,0.0,0.0,0.0,0.0,0.0,0.0,0.0,0.0,0.0,0.0,0.0,0.0,0.0,0.0,0.0,0.0,0.0,0.0,0.0,0.0,0.0,0.0,0.0,0.0,0.0,0.0,0.0,0.0,0.0,0.0,0.0,0.0,0.0,0.0,0.0,0.0,0.0,0.0,0.0,0.0,0.0,0.0,0.0,0.0,0.0,0.0,0.0,0.0,0.0,0.0,0.0,0.0,0.0,0.0,0.0,0.0,0.0,0.0,0.0,0.0,0.0,0.0,0.0,0.0,0.0,0.0,0.0,0.0,0.0,0.0,0.0,0.0,0.0,0.0,0.0,0.0,0.0,0.0,0.0,0.0,0.0,0.0,0.0,0.0,0.0,0.0,0.0,0.0,0.0,0.0,0.0,0.0,0.0,0.0,-1.8227,-1.8613,0.0,-2.0312,-2.0605,-2.0605,-1.9082,-1.8125,-1.8008,0.0,0.0,0.0,0.0,0.0,0.0,0.0,0.0,0.0,0.0,0.0,0.0,0.0,0.0,0.0,0.0,0.0,0.0,0.0,0.0,0.0,0.0,0.0,0.0,0.0,0.0,0.0,0.0,0.0,0.0,0.0,0.0,0.0,0.0,0.0,0.0,0.0,0.0,0.0,0.0,0.0,0.0,0.0,0.0,0.0,0.0,0.0,0.0,0.0,0.0,0.0,0.0,0.0,0.0,0.0,0.0,0.0,0.0,0.0,0.0,0.0,0.0,0.0,0.0,0.0,0.0,0.0,0.0,0.0,0.0,0.0,0.0,0.0,0.0,0.0,0.0,0.0,0.0,0.0,0.0,0.0,0.0,0.0,0.0,0.0,0.0,0.0,0.0,0.0,0.0,0.0,0.0,0.0,0.0,0.0,0.0,0.0,0.0,0.0,0.0,0.0,0.0,-1.9059,-1.8734,-1.8831,0.0,-2.0429,-2.0605,-2.0605,-1.9141,-1.8188,-1.8169,0.0,0.0,0.0,0.0,0.0,0.0,0.0,0.0,0.0,0.0,0.0,0.0,0.0,0.0,0.0,0.0,0.0,0.0,0.0,0.0,0.0,0.0,0.0,0.0,0.0,0.0,0.0,0.0,0.0,0.0,0.0,0.0,0.0,0.0,0.0,0.0,0.0,0.0,0.0,0.0,0.0,0.0,0.0,0.0,0.0,0.0,0.0,0.0,0.0,0.0,0.0,0.0,0.0,0.0,0.0,0.0,0.0,0.0,0.0,0.0,0.0,0.0,0.0,0.0,0.0,0.0,0.0,0.0,0.0,0.0,0.0,0.0,0.0,0.0,0.0,0.0,0.0,0.0,0.0,0.0,0.0,0.0,0.0,0.0,0.0,0.0,0.0,0.0,0.0,0.0,0.0,0.0,0.0,0.0,0.0,0.0,0.0,0.0,0.0,0.0,0.0,0.0,-2.0205,-1.9072,-1.8672,-2.041,-2.0605,-2.0605,-2.0605,-1.8648,-1.7734,0.0,0.0,0.0,0.0,0.0,0.0,0.0,0.0,0.0,0.0,0.0,0.0,0.0,0.0,0.0,0.0,0.0,0.0,0.0,0.0,0.0,0.0,0.0,0.0,0.0,0.0,0.0,0.0,0.0,0.0,0.0,0.0,0.0,0.0,0.0,0.0,0.0,0.0,0.0,0.0,0.0,0.0,0.0,0.0,0.0,0.0,0.0,0.0,0.0,0.0,0.0,0.0,0.0,0.0,0.0,0.0,0.0,0.0,0.0,0.0,0.0,0.0,0.0,0.0,0.0,0.0,0.0,0.0,0.0,0.0,0.0,0.0,0.0,0.0,0.0,0.0,0.0,0.0,0.0,0.0,0.0,0.0,0.0,0.0,0.0,0.0,0.0,0.0,0.0,0.0,0.0,0.0,0.0,0.0,0.0,0.0,0.0,0.0,0.0,0.0,0.0,0.0,0.0,-1.8964,-1.8478,-1.8555,-1.9961,-2.0391,-2.0488,-2.0137,-1.8711,-1.793,-1.8149,0.0,0.0,0.0,0.0,0.0,0.0,0.0,0.0,0.0,0.0,0.0,0.0,0.0,0.0,0.0,0.0,0.0,0.0,0.0,0.0,0.0,0.0,0.0,0.0,0.0,0.0,0.0,0.0,0.0,0.0,0.0,0.0,0.0,0.0,0.0,0.0,0.0,0.0,0.0,0.0,0.0,0.0,0.0,0.0,0.0,0.0,0.0,0.0,0.0,0.0,0.0,0.0,0.0,0.0,0.0,0.0,0.0,0.0,0.0,0.0,0.0,0.0,0.0,0.0,0.0,0.0,0.0,0.0,0.0,0.0,0.0,0.0,0.0,0.0,0.0,0.0,0.0,0.0,0.0,0.0,0.0,0.0,0.0,0.0,0.0,0.0,0.0,0.0,0.0,0.0,0.0,0.0,0.0,0.0,0.0,0.0,0.0,0.0,0.0,0.0,0.0,0.0,-1.9219,-1.8567,-1.8574,-2.0019,-2.0449,-2.0642,-2.0745,-1.9304,-1.8691,-1.9225,0.0,0.0,0.0,0.0,0.0,0.0,0.0,0.0,0.0,0.0,0.0,0.0,0.0,0.0,0.0,0.0,0.0,0.0,0.0,0.0,0.0,0.0,0.0,0.0,0.0,0.0,0.0,0.0,0.0,0.0,0.0,0.0,0.0,0.0,0.0,0.0,0.0,0.0,0.0,0.0,0.0,0.0,0.0,0.0,0.0,0.0,0.0,0.0,0.0,0.0,0.0,0.0,0.0,0.0,0.0,0.0,0.0,0.0,0.0,0.0,0.0,0.0,0.0,0.0,0.0,0.0,0.0,0.0,0.0,0.0,0.0,0.0,0.0,0.0,0.0,0.0,0.0,0.0,0.0,0.0,0.0,0.0,0.0,0.0,0.0,0.0,0.0,0.0,0.0,0.0,0.0,0.0,0.0,0.0,0.0,0.0,0.0,0.0,0.0,0.0,0.0,0.0,-2.0576,-1.9266,-1.8828,-2.0678,-2.0857,-2.1163,-2.1949,-2.0338,-1.9809,-2.0986,0.0,0.0,0.0,0.0,0.0,0.0,0.0,0.0,0.0,0.0,0.0,0.0,0.0,0.0,0.0,0.0,0.0,0.0,0.0,0.0,0.0,0.0,0.0,0.0,0.0,0.0,0.0,0.0,0.0,0.0,0.0,0.0,0.0,0.0,0.0,0.0,0.0,0.0,0.0,0.0,0.0,0.0,0.0,0.0,0.0,0.0,0.0,0.0,0.0,0.0,0.0,0.0,0.0,0.0,0.0,0.0,0.0,0.0,0.0,0.0,-2.3635,0.0,0.0,0.0,0.0,0.0,0.0,0.0,0.0,0.0,0.0,0.0,0.0,0.0,0.0,0.0,0.0,0.0,0.0,0.0,0.0,0.0,0.0,0.0,0.0,0.0,0.0,0.0,0.0,0.0,0.0,0.0,0.0,0.0,0.0,0.0,0.0,0.0,0.0,0.0,0.0,0.0,-2.1963,-2.0518,-2.0126,-2.2629,-2.2898,-2.2666,-2.2077,-2.1317,-2.0653,-2.0061,-2.0065,0.0,0.0,0.0,0.0,0.0,0.0,0.0,0.0,0.0,0.0,0.0,0.0,0.0,0.0,0.0,0.0,0.0,0.0,0.0,0.0,0.0,0.0,0.0,0.0,0.0,0.0,0.0,0.0,0.0,0.0,0.0,0.0,0.0,0.0,0.0,0.0,0.0,0.0,0.0,0.0,0.0,0.0,0.0,0.0,0.0,0.0,0.0,0.0,0.0,0.0,0.0,0.0,0.0,0.0,0.0,0.0,0.0,0.0,0.0,0.0,-2.5491,0.0,0.0,0.0,0.0,0.0,0.0,0.0,0.0,0.0,0.0,0.0,0.0,0.0,0.0,0.0,0.0,0.0,0.0,0.0,0.0,0.0,0.0,0.0,0.0,0.0,0.0,0.0,0.0,0.0,0.0,0.0,0.0,0.0,0.0,0.0,0.0,0.0,0.0,0.0,0.0,-2.2324,-2.1319,-2.1303,-2.3623,-2.366,-2.3483,-2.3444,-2.251,-2.1888,-2.176,-2.1233,0.0,0.0,0.0,0.0,0.0,0.0,0.0,0.0,0.0,0.0,0.0,0.0,0.0,0.0,0.0,0.0,0.0,0.0,0.0,0.0,0.0,0.0,0.0,0.0,0.0,0.0,0.0,0.0,0.0,0.0,0.0,0.0,0.0,0.0,0.0,0.0,0.0,0.0,0.0,0.0,0.0,0.0,0.0,0.0,0.0,0.0,0.0,0.0,0.0,0.0,0.0,0.0,0.0,-3.4493,-3.5175,-3.5624,-3.6098,-3.6684,-3.7169,-3.319,-3.0586,-2.8964,-2.7117,0.0,0.0,0.0,0.0,0.0,0.0,0.0,0.0,0.0,0.0,0.0,0.0,0.0,0.0,0.0,0.0,0.0,0.0,0.0,0.0,0.0,0.0,0.0,0.0,-2.7042,-2.6484,-2.505,0.0,0.0,0.0,0.0,0.0,0.0,0.0,0.0,0.0,0.0,0.0,-2.2878,-2.2348,-2.2708,-2.4737,-2.4508,-2.4454,-2.5194,-2.39,-2.3256,-2.3791,-2.2548,-2.1694,0.0,0.0,0.0,0.0,0.0,0.0,0.0,0.0,0.0,0.0,0.0,0.0,0.0,0.0,0.0,0.0,0.0,0.0,0.0,0.0,0.0,0.0,0.0,0.0,0.0,0.0,0.0,0.0,0.0,0.0,0.0,0.0,-2.0292,-2.2729,0.0,0.0,0.0,0.0,0.0,0.0,0.0,0.0,0.0,0.0,0.0,0.0,0.0,-3.2938,-3.4602,-3.722,-3.8562,-3.8736,-4.1196,-4.2445,-4.2519,-4.2569,-4.344,-4.4715,-4.2269,0.0,-3.1132,-2.9515,0.0,0.0,0.0,0.0,0.0,0.0,0.0,0.0,0.0,0.0,0.0,0.0,0.0,0.0,0.0,0.0,0.0,0.0,0.0,0.0,0.0,0.0,-2.7349,-2.8668,-2.9206,-2.945,0.0,-2.8062,-2.6502,-2.6253,-2.492,0.0,0.0,0.0,0.0,0.0,0.0,0.0,-2.561,-2.4871,-2.4985,-2.7359,-2.711,-2.6685,-2.6317,-2.5619,-2.4628,-2.3296,-2.302,-2.2468,-2.1518,-2.1362,0.0,0.0,0.0,0.0,0.0,0.0,0.0,0.0,0.0,0.0,0.0,0.0,0.0,0.0,0.0,0.0,0.0,0.0,0.0,0.0,0.0,0.0,0.0,0.0,0.0,0.0,0.0,0.0,0.0,-2.0993,-2.2425,-2.311,-2.5335,-2.6736,0.0,0.0,0.0,0.0,0.0,0.0,0.0,0.0,0.0,-3.5034,-3.6507,-3.8209,-4.0158,-4.2015,-4.3258,-4.389,-4.5397,-4.6276,-4.6602,-4.6928,-4.7631,-4.8459,-4.623,-4.3286,-3.9725,-3.5525,-3.3184,-3.2132,0.0,0.0,0.0,0.0,-3.1194,-3.1447,-3.271,-3.2823,0.0,-3.1993,0.0,0.0,0.0,0.0,0.0,0.0,0.0,0.0,0.0,0.0,-3.0505,-3.1975,-3.2463,-3.2574,-3.2481,-3.1034,-2.9273,0.0,-2.7207,-2.6807,-2.6047,0.0,0.0,0.0,0.0,-2.4695,-2.6359,-2.6244,-2.6565,-2.796,-2.762,-2.7102,-2.6549,-2.5971,-2.5159,-2.4123,-2.317,-2.2293,-2.1518,-2.1219,-2.0686,0.0,0.0,0.0,0.0,0.0,0.0,0.0,0.0,0.0,0.0,0.0,0.0,0.0,0.0,0.0,0.0,0.0,0.0,0.0,0.0,0.0,0.0,0.0,0.0,0.0,0.0,0.0,0.0,-2.2371,-2.3984,-2.3697,-2.702,-2.9015,0.0,0.0,0.0,0.0,0.0,0.0,-3.4225,-3.5657,-3.7589,-4.0038,-4.1582,-4.3234,-4.507,-4.6175,-4.7154,-4.7921,-4.851,-4.9063,-4.964,-5.0042,-5.0544,-5.0955,-4.9071,-4.8185,-4.7482,-4.094,-3.7771,-3.685,-3.4982,-3.421,-3.4275,-3.5,-3.5263,-3.5427,-3.7115,-3.706,-3.6121,-3.5557,-3.42,-3.2404,-3.0766,0.0,0.0,0.0,0.0,-3.0425,-3.1529,-3.2329,-3.321,-3.4574,-3.5027,-3.4951,-3.4248,-3.3445,-3.1964,0.0,-2.8875,-2.8925,-2.7519,0.0,0.0,0.0,0.0,-2.6422,-2.6918,-2.7384,-2.7871,-2.8273,-2.7821,-2.7304,-2.6751,-2.6047,-2.5385,-2.4825,-2.3376,-2.2221,-2.1546,-2.0993,-2.0471,-1.9937,0.0,0.0,0.0,0.0,0.0,0.0,0.0,0.0,0.0,0.0,0.0,0.0,0.0,0.0,0.0,0.0,0.0,0.0,0.0,0.0,0.0,0.0,0.0,0.0,0.0,0.0,0.0,0.0,0.0,-2.547,-2.9416,0.0,0.0,0.0,0.0,-3.5062,-3.6168,-3.7733,-3.9961,-4.2164,-4.4127,-4.5805,-4.6968,-4.7845,-4.851,-4.9615,-5.0193,-5.0268,-5.0845,-5.1398,-5.1925,-5.1975,-5.2277,-5.2779,-5.2133,-5.1815,-5.1238,-4.392,-4.1344,-4.1863,-4.0458,-4.0636,-4.1672,-4.1722,-4.1368,-4.0889,-4.1014,-4.034,-3.9382,-3.882,-3.7186,-3.5219,-3.4357,-3.4238,0.0,0.0,-3.3239,-3.3564,-3.3107,-3.3784,-3.4735,-3.5332,-3.5906,-3.6028,-3.4901,-3.458,-3.3427,0.0,-2.8499,-2.7996,-2.7394,0.0,-2.7218,-2.7208,-2.7634,-2.7985,-2.8024,-2.8512,-2.8813,-2.8838,-2.8398,-2.7846,-2.7329,-2.6239,-2.5385,-2.4825,-2.3697,-2.2569,-2.1518,-2.0993,-2.0916,-2.1387,-2.0939,0.0,0.0,0.0,0.0,0.0,0.0,0.0,0.0,0.0,0.0,0.0,0.0,0.0,0.0,0.0,0.0,0.0,0.0,0.0,0.0,0.0,0.0,0.0,0.0,0.0,0.0,0.0,0.0,-3.2347,-3.5657,0.0,-3.7542,-3.7892,-3.8607,-3.9749,-4.0839,-4.24,-4.4606,-4.622,-4.7782,-4.9464,-5.0218,-5.087,-5.1448,-5.1825,-5.2026,-5.2026,-5.2251,-5.2452,-5.2628,-5.2628,-5.2729,-5.2929,-5.2729,-5.2628,-5.2409,-4.9411,-4.7277,-4.5822,-4.4621,-4.3995,-4.379,-4.4166,-4.4166,-4.4066,-4.4418,-4.3564,-4.1948,-3.9643,-3.8079,-3.6899,-3.5521,-3.5431,-3.5705,-3.5328,-3.5353,-3.5529,-3.568,-3.5755,-3.583,-3.6031,-3.5956,-3.5629,-3.4876,-3.4449,-3.347,-3.0984,-3.008,-2.9428,-2.8499,-2.7745,-2.7394,-2.777,-2.7971,-2.8222,-2.8562,-2.9126,-2.9352,-2.8938,-2.8423,-2.7871,-2.7344,-2.6239,-2.5234,-2.4356,-2.3226,-2.2121,-2.1043,-2.044,-2.0213,-2.0388,-2.0213,-2.068,0.0,0.0,0.0,0.0,0.0,0.0,0.0,0.0,0.0,0.0,0.0,0.0,0.0,0.0,0.0,0.0,0.0,0.0,0.0,0.0,0.0,0.0,0.0,0.0,0.0,0.0,-3.516,-3.7264,-4.0242,-4.1958,-4.1643,-4.2308,-4.3212,-4.435,-4.5422,-4.6853,-4.8711,-4.9665,-5.0695,-5.18,-5.2201,-5.2553,-5.2929,-5.2929,-5.2929,-5.2929,-5.2929,-5.2929,-5.2929,-5.2929,-5.2929,-5.2929,-5.2929,-5.2929,-5.2904,-5.2528,-5.1172,-4.9213,-4.8134,-4.723,-4.6602,-4.6803,-4.6753,-4.6577,-4.6376,-4.5196,-4.3413,-4.1028,-3.9622,-3.8642,-3.7514,-3.7337,-3.7511,-3.7287,-3.7086,-3.7008,-3.7136,-3.6832,-3.6405,-3.6405,-3.5956,-3.5357,-3.4851,-3.4299,-3.3445,-3.1964,-3.1235,-3.0532,-2.9402,-2.8624,-2.8323,-2.8875,-2.88,-2.8875,-2.9389,-2.9679,-2.9578,-2.8938,-2.8423,-2.7821,-2.7102,-2.6138,-2.5134,-2.4079,-2.2924,-2.1895,-2.1018,-2.0591,-2.0464,-2.0639,-2.084,-2.1393,-2.2322,0.0,0.0,0.0,0.0,0.0,0.0,0.0,0.0,0.0,0.0,0.0,0.0,0.0,0.0,0.0,0.0,0.0,0.0,0.0,0.0,0.0,0.0,0.0,-3.246,-3.5862,-3.8758,-3.9881,-4.2952,-4.4766,-4.4177,-4.6024,-4.7732,-4.8786,-4.9891,-5.0971,-5.2076,-5.2628,-5.2929,-5.2929,-5.2929,-5.2929,-5.2929,-5.2929,-5.2929,-5.2929,-5.2929,-5.2929,-5.2929,-5.2929,-5.2929,-5.2929,-5.2929,-5.2929,-5.2929,-5.2929,-5.2603,-5.2026,-5.087,-5.0444,-5.0343,-4.9791,-4.9238,-4.851,-4.6878,-4.5221,-4.374,-4.3162,-4.1882,-4.0551,-4.0526,-4.0149,-3.9597,-3.9095,-3.8492,-3.7914,-3.7362,-3.6857,-3.643,-3.6405,-3.5956,-3.5357,-3.4851,-3.4299,-3.3571,-3.2441,-3.1763,-3.106,-3.0005,-2.9804,-2.998,-3.0507,-3.0131,0.0,-3.0532,-3.0131,-2.9578,-2.8988,-2.8473,-2.7695,-2.6625,-2.5996,-2.5134,-2.4079,-2.2924,-2.2071,-2.1518,-2.1493,-2.1744,-2.2243,-2.2819,-2.2844,-2.2318,0.0,0.0,0.0,0.0,0.0,0.0,0.0,0.0,0.0,0.0,0.0,0.0,0.0,0.0,0.0,0.0,0.0,0.0,0.0,0.0,0.0,0.0,-3.9018,-3.7809,-4.1314,-4.487,-4.7196,-4.937,-5.058,-5.0403,-5.0619,-5.087,-5.1172,-5.185,-5.2377,-5.2678,-5.2854,-5.2929,-5.2929,-5.2929,-5.2929,-5.2929,-5.2929,-5.2929,-5.2929,-5.2929,-5.2929,-5.2929,-5.2929,-5.2929,-5.2929,-5.2929,-5.2929,-5.2929,-5.2929,-5.2829,-5.2578,-5.1473,-5.0795,-5.0343,-4.9791,-4.8987,-4.7983,-4.6728,-4.5472,-4.4242,-4.3288,-4.2464,-4.1555,-4.0752,-4.04,-4.0174,-3.9622,-3.9069,-3.8492,-3.7939,-3.7362,-3.6908,-3.6505,-3.5956,-3.5357,-3.4851,-3.4299,-3.3571,-3.2441,-3.1763,-3.1185,-3.0507,-3.0055,-2.9854,-3.0005,-2.988,0.0,-3.0005,-2.988,-2.9729,-2.9578,-2.9051,-2.8423,-2.772,-2.6389,-2.5134,-2.4079,-2.2924,-2.2071,-2.1518,-2.1493,-2.1568,-2.1719,-2.2619,-2.302,0.0,0.0,0.0,0.0,0.0,0.0,0.0,0.0,0.0,0.0,0.0,0.0,0.0,0.0,0.0,0.0,0.0,0.0,0.0,0.0,0.0,0.0,-4.3649,-4.5776,-4.5986,-4.7583,-4.9587,-5.1883,-5.3005,-5.3507,-5.3281,-5.2955,-5.2779,-5.2779,-5.2879,-5.303,-5.3231,-5.3055,-5.2929,-5.2929,-5.2929,-5.2929,-5.2929,-5.2929,-5.2929,-5.2929,-5.2929,-5.2929,-5.2929,-5.2929,-5.2929,-5.2929,-5.2929,-5.2929,-5.2929,-5.2929,-5.2929,0.0,0.0,0.0,0.0,0.0,-4.8686,-4.7782,-4.6954,-4.5773,-4.4518,-4.3865,-4.2986,-4.2037,-4.1128,-4.0701,-4.04,-3.9848,-3.9295,-3.8844,-3.8467,-3.7789,-3.7111,-3.6832,-3.6107,-3.5408,-3.5082,-3.4449,-3.3696,-3.3043,-3.2265,0.0,-3.1035,-3.0306,-2.988,-3.0105,-2.993,-2.988,-3.0105,-2.993,-2.9804,-2.9804,-2.9076,-2.8373,-2.7821,-2.6666,0.0,0.0,0.0,-2.2774,-2.2196,-2.2171,0.0,0.0,0.0,-2.407,-2.3471,0.0,0.0,0.0,-2.3084,-2.283,0.0,0.0,0.0,0.0,0.0,0.0,0.0,0.0,0.0,0.0,0.0,0.0,0.0,0.0,0.0,0.0,-5.0508,-5.2383,-5.5199,-5.403,-5.3356,-5.4557,-5.4662,-5.4461,-5.3934,-5.3783,-5.3733,-5.3808,-5.3306,-5.3231,-5.3683,0.0,0.0,0.0,0.0,-5.2955,-5.3005,-5.2955,-5.2929,-5.2929,-5.2929,-5.2929,-5.2929,-5.2929,-5.2929,-5.2929,-5.2929,-5.2929,-5.2929,-5.2929,-5.2879,-5.2779,-5.2226,-5.1674,-5.0996,-4.9364,-4.841,-4.7832,-4.7305,0.0,0.0,-4.4644,-4.3589,-4.2263,-4.1555,-4.1003,-4.0475,-3.9873,-3.9346,-3.8994,-3.8944,-3.8065,-3.7262,-3.7186,-3.6383,-3.5583,-3.5508,-3.4731,-3.4048,-3.3922,-3.3043,-3.2114,-3.1486,-3.0557,-3.003,-3.0457,-3.0105,-2.9955,-3.0457,-3.0105,-2.9804,-2.9804,0.0,0.0,-2.7519,-2.6927,-2.5921,-2.4381,-2.4155,-2.3853,-2.3321,-2.3296,-2.3547,-2.4079,-2.5319,-2.5376,-2.418,-2.5428,-2.5682,-2.5008,-2.485,-2.475,0.0,0.0,0.0,0.0,0.0,0.0,0.0,0.0,0.0,0.0,0.0,0.0,0.0,0.0,0.0,-5.2518,-5.5265,-5.7776,-6.0116,-5.8883,-5.7084,-5.5455,-5.5239,-5.5189,-5.5064,-5.4235,-5.3884,-5.4361,-5.3884,-5.3607,-5.3683,-5.3607,-5.3557,-5.3557,-5.3155,-5.313,-5.3557,-5.313,-5.2929,-5.2929,0.0,0.0,-5.2929,-5.2929,-5.2929,-5.2929,-5.2929,-5.2929,-5.2929,-5.2929,-5.2678,-5.2201,-5.1649,-5.1096,-5.0444,-4.9213,-4.841,-4.7832,-4.7305,-4.6351,-4.5246,-4.4769,-4.4116,-4.3212,-4.1781,-4.12,0.0,-3.9973,-3.9622,-3.9421,-3.8994,-3.8366,-3.7739,-3.7287,-3.6684,-3.6081,-3.5608,-3.5332,-3.4906,-3.4073,-3.337,-3.2591,-3.1562,-3.0859,-3.0331,-3.0005,-2.9854,-2.9829,-2.993,-2.9854,-2.9804,-2.9804,-2.9603,-2.9227,-2.8612,-2.7695,-2.6826,-2.6072,-2.5159,-2.4575,-2.4474,-2.4449,-2.4525,-2.4625,-2.4918,-2.512,-2.5285,-2.5582,-2.5886,-2.6147,-2.5234,-2.4582,0.0,0.0,0.0,0.0,0.0,0.0,0.0,0.0,0.0,0.0,0.0,-4.7835,0.0,0.0,-5.5918,-5.951,-6.0864,-6.1912,-6.3339,-6.1721,-5.9429,-5.7047,-5.5913,-5.5164,-5.4587,-5.4536,-5.4561,-5.4561,-5.4285,-5.426,-5.4536,-5.4285,-5.4135,-5.4135,-5.3884,-5.3733,-5.3708,-5.3733,-5.3457,-5.2929,-5.3181,-5.3181,-5.2929,-5.2929,-5.2929,-5.2929,-5.2929,-5.2929,-5.2929,-5.2929,-5.2603,-5.2051,-5.1498,-5.0921,-5.0243,-4.8862,-4.8159,-4.7782,-4.7004,-4.5999,-4.4995,-4.4719,-4.4066,-4.3187,-4.2082,-4.1555,-4.1125,-4.035,-3.9898,-3.9622,-3.9346,-3.8868,-3.8291,-3.7739,-3.7186,-3.6634,-3.6081,-3.5529,-3.5006,-3.4731,-3.3822,-3.2893,-3.234,-3.1537,-3.0733,-2.9905,-2.9804,-2.9804,-2.9804,-2.9804,-2.9804,-2.9804,-2.9528,-2.9252,-2.8913,-2.7921,-2.7077,-2.6524,-2.5661,-2.5084,-2.48,-2.48,-2.48,-2.48,-2.548,-2.5793,-2.5586,-2.633,-2.6577,-2.6474,-2.5946,-2.5335,0.0,0.0,0.0,0.0,0.0,0.0,0.0,0.0,-4.5681,-4.8073,-5.0465,-5.3234,-5.6855,-5.9548,-6.2361,-6.5832,-6.5735,-6.5344,-6.5786,-6.3564,-6.1209,-5.9224,-5.7198,-5.5391,-5.4029,-5.4587,-5.4963,-5.4737,-5.4637,-5.4813,-5.5365,-5.4963,-5.4737,-5.4737,-5.4612,-5.4386,-5.4034,-5.4386,-5.411,-5.3256,-5.3557,-5.3482,-5.308,-5.298,-5.2929,-5.2929,-5.2929,-5.2929,-5.2929,-5.2929,-5.2528,-5.19,-5.1322,-5.0695,-4.9916,-4.846,-4.7832,-4.7606,-4.6527,-4.5547,-4.4744,-4.4543,-4.3865,-4.2986,-4.2233,-4.1681,-4.115,-4.0551,-4.0049,-3.9697,-3.9697,-3.927,-3.8718,-3.814,-3.7588,-3.7036,-3.6531,-3.5655,-3.5102,-3.5282,-3.4299,-3.3294,-3.2968,-3.2139,-3.1185,-3.0105,-2.9854,-2.9804,-2.9804,-2.9804,-2.9804,-2.9804,-2.9377,-2.9013,-2.8888,-2.8122,-2.7369,-2.6851,-2.6273,-2.5737,-2.531,-2.5209,-2.5134,-2.5134,-2.6259,-2.6465,-2.5762,-2.6897,-2.7129,-2.6499,-2.6499,-2.6172,-3.8362,-3.8272,-3.92,-4.2034,-4.2521,-4.4118,0.0,0.0,-5.2276,-5.6017,-5.7962,-5.9668,-6.1882,-6.3977,-6.5862,-6.7478,-6.819,-6.8303,-6.7767,-6.5144,-6.2962,-6.2142,-5.9518,-5.6946,-5.4724,-5.411,-5.4285,-5.5214,-5.4838,-5.4813,-5.5365,-5.534,-5.529,-5.529,-5.4813,-5.4762,-5.5189,-5.4787,-5.4511,-5.4386,-5.3909,-5.3658,-5.3607,-5.313,-5.2929,-5.2929,-5.2929,-5.2929,-5.2929,-5.2929,-5.2302,-5.1322,-5.0745,-4.9866,-4.8862,-4.8159,-4.7606,-4.7054,-4.5949,-4.5497,-4.5221,-4.4217,-4.3815,-4.3413,-4.1907,-4.1326,-4.1075,-4.0074,-3.9747,-3.9697,-3.9697,-3.927,-3.8718,-3.814,-3.7588,-3.7036,-3.6531,-3.6304,-3.5906,-3.5002,-3.463,-3.4073,-3.2566,-3.2215,-3.1763,-3.0683,-3.0105,-2.9804,-2.9804,-2.9804,-2.9804,-2.9804,-2.9729,-2.9478,-2.8938,-2.8787,-2.8499,-2.7946,-2.7394,-2.7067,-2.7017,-2.6575,-2.6323,-2.6323,-2.6476,-2.6501,-2.6399,-2.6552,-2.6602,-2.6499,-2.6499,-2.6172,-3.9634,-4.071,0.0,0.0,-4.689,-4.9778,-5.3832,-5.5538,-5.7124,-6.0356,-6.266,-6.4485,-6.5712,-6.661,-6.7328,0.0,-6.7567,-6.7298,-6.7388,-6.5672,-6.3608,-6.1614,-5.9726,-5.7665,-5.532,-5.5452,-5.5304,-5.4456,-5.4813,-5.5139,-5.539,-5.5691,-5.6018,-5.6344,-5.5817,-5.5641,-5.5867,-5.5641,-5.5189,-5.4561,-5.431,-5.4034,-5.3683,-5.3155,-5.2929,-5.2929,-5.2929,-5.2929,-5.2929,-5.2929,-5.2277,-5.1247,-5.1021,-4.9841,-4.8209,-4.7657,-4.7104,-4.6552,-4.5748,-4.507,-4.4418,-4.394,-4.3589,-4.3137,-4.2133,-4.1605,-4.1125,-4.04,-3.9948,-3.9697,-3.9697,-3.9521,-3.9195,-3.8642,-3.8065,-3.7513,-3.696,-3.6332,-3.5855,-3.5705,-3.5152,-3.45,-3.3796,-3.3144,-3.2441,-3.1662,-3.0809,-3.0281,-3.0281,-2.998,-2.9804,-2.9804,-2.9804,-2.9704,-2.9453,-2.9428,-2.9202,-2.8624,-2.8373,-2.8097,-2.777,-2.7243,-2.6977,-2.6977,-2.665,-2.6499,-2.6499,-2.6499,-2.6499,-2.6499,-2.6499,-2.6373,-3.9957,0.0,0.0,-4.716,-5.099,-5.47,-5.6436,-5.886,-6.1373,-6.3677,-6.5652,-6.7178,-6.7837,-6.7837,0.0,-6.7448,-6.6789,-6.6311,-6.643,-6.5473,-6.3595,-6.0634,-5.9333,-5.7721,-5.5232,-5.5558,-5.5503,-5.4516,-5.4719,-5.5203,-5.5827,-5.5955,-5.6168,-5.657,-5.6344,-5.6219,-5.6219,-5.6219,-5.5817,-5.5013,-5.4712,-5.4336,-5.3909,-5.3231,-5.2929,-5.2929,-5.2929,-5.2929,-5.2929,-5.2929,-5.2277,-5.1247,-5.0946,-4.9615,-4.7832,-4.7154,-4.6652,-4.6225,-4.5673,-4.4844,-4.4016,-4.384,-4.3313,-4.2715,-4.2108,-4.1555,-4.1003,-4.045,-3.9998,-3.9697,-3.9697,-3.9697,-3.9546,-3.9045,-3.8542,-3.804,-3.7337,-3.6558,-3.6031,-3.6132,-3.5504,-3.4856,-3.4751,-3.3922,-3.3169,-3.2742,-3.1763,-3.0959,-3.0658,-3.0131,-2.9804,-2.9804,-2.9804,-2.9804,-2.9804,-2.9804,-2.9603,-2.9202,-2.8988,-2.8712,-2.8348,-2.7795,-2.7444,-2.7293,-2.6927,-2.665,-2.6499,-2.6499,-2.6499,-2.6499,-2.6499,-2.6499,0.0,0.0,-4.6202,-5.0092,-5.4042,-5.7663,-6.0326,-6.2959,-6.5233,-6.658,-6.6939,-6.7178,-6.7837,-6.7448,-6.6819,-6.6161,-6.658,-6.652,-6.5263,-6.4485,-6.2972,-6.0147,-5.8696,-5.6861,0.0,-5.3372,-5.3886,-5.6022,-5.4722,-5.4727,-5.6915,-5.6034,-5.5415,-5.544,-5.5942,-5.6219,-5.6219,-5.6219,-5.6194,-5.6143,-5.5089,-5.4561,-5.4511,-5.3406,-5.2929,-5.2929,-5.2929,-5.2929,-5.2929,-5.2929,-5.2277,-5.1172,-5.0067,-4.8937,-4.7782,-4.6728,-4.6326,-4.6225,-4.5673,-4.5095,-4.4518,-4.3966,-4.3062,-4.2137,-4.153,-4.0924,-4.0425,-3.9873,-3.9697,-3.9697,-3.9697,-3.9697,-3.9546,-3.9045,-3.8919,-3.8592,-3.7437,-3.7161,-3.6835,-3.5734,-3.5508,-3.5307,-3.4781,-3.4248,-3.3872,-3.3847,-3.2893,-3.1788,-3.0758,-3.0131,-2.9804,-2.9804,-2.9804,-2.9804,-2.9804,-2.9804,-2.9779,-2.9754,-2.9227,-2.8888,-2.8863,-2.8373,-2.7821,-2.7329,-2.7268,-2.7027,-2.6499,-2.6499,-2.6499,-2.6499,-2.6499,-2.6499,0.0,0.0,-5.1947,-5.5029,-5.8441,-6.1762,-6.4395,-6.5712,-6.658,-6.7448,-6.6221,-6.4665,-6.3617,-6.251,-6.1672,-6.1463,-6.272,-6.3887,-6.4276,-6.4545,-6.312,-5.9016,-5.9216,0.0,0.0,0.0,0.0,-5.5631,-5.6545,-5.7596,-5.8853,-5.818,-5.7862,-5.8226,-5.6925,-5.6394,-5.6746,-5.6394,-5.6018,-5.5641,-5.4536,-5.3808,-5.3457,-5.3105,-5.2929,-5.2929,-5.2929,-5.2929,-5.2929,-5.2929,-5.2277,-5.1197,-5.0444,-4.9213,-4.7832,-4.7129,-4.6401,-4.5673,-4.5121,-4.4317,-4.3514,-4.3313,-4.276,-4.2112,-4.1505,-4.0953,-4.04,-3.9848,-3.9697,-3.9697,-3.9697,-3.9697,-3.9647,-3.9471,-3.9145,-3.8718,-3.7889,-3.7437,-3.696,-3.6232,-3.6081,-3.5906,-3.5307,-3.5082,-3.4625,-3.352,-3.2692,-3.1813,-3.0758,-3.0457,-3.0206,-2.9829,-2.9804,-2.9804,-2.9804,-2.9804,-2.9804,-2.9804,-2.9603,-2.9503,-2.9503,-2.895,-2.8574,-2.8373,-2.7645,-2.7228,-2.7027,-2.6675,-2.6499,-2.6499,-2.6499,-2.6499,0.0,-5.112,-5.6047,-5.9398,-6.2361,-6.4904,-6.661,-6.7178,-6.7059,-6.6071,-6.3947,-6.1523,-5.9099,-5.7154,-5.6316,-5.7513,-5.8979,-6.0745,-6.3019,-6.3707,-6.2616,-5.9016,-5.939,0.0,0.0,0.0,0.0,-5.7205,-5.8209,-5.9422,-6.0678,-6.0224,-5.9911,-5.9747,-5.8316,-5.7353,-5.7022,-5.6495,-5.5942,-5.539,-5.4461,-5.3733,-5.3206,-5.3005,-5.2929,-5.2929,-5.2929,-5.2929,-5.2904,-5.2703,-5.2101,-5.1197,-5.0218,-4.9038,-4.7832,-4.7104,-4.6276,-4.5472,-4.5296,-4.4367,-4.3313,-4.3514,-4.2785,-4.1806,-4.1401,-4.0802,-4.0149,-3.9798,-3.9697,-3.9697,-3.9697,-3.9697,-3.9697,-3.9697,-3.9421,-3.9019,-3.8442,-3.804,-3.7563,-3.6857,-3.6707,-3.6483,-3.5931,-3.5458,-3.4781,-3.3571,-3.2893,-3.2064,-3.0783,-3.0608,-3.0407,-2.9854,-2.9804,-2.9804,-2.9804,-2.9804,-2.9804,-2.9804,-2.9804,-2.9804,-2.9804,-2.9428,-2.9126,-2.8888,-2.8222,-2.777,-2.757,-2.7253,-2.7077,-2.7077,-2.7077,-2.7077,-5.0845,-5.4775,-5.856,-6.2989,-6.5562,-6.6999,-6.6999,-6.7328,-6.658,-6.269,-6.0146,-5.7603,0.0,0.0,-5.1122,-5.4381,-5.5748,-5.7693,-6.1642,-6.2241,-6.1696,0.0,0.0,0.0,0.0,0.0,0.0,-6.0776,0.0,-6.0336,-6.2649,-6.2323,-6.148,-6.027,-6.0129,-5.9085,-5.717,-5.6445,-5.5892,-5.534,-5.4787,-5.421,-5.3632,-5.3155,-5.2929,-5.2929,-5.2929,-5.2929,-5.2879,-5.2327,-5.1774,-5.1122,-4.9439,-4.841,-4.7782,-4.6702,-4.5974,-4.5573,-4.6075,-4.5171,-4.389,-4.4367,-4.3056,-4.1326,-4.1326,-4.0601,-3.9747,-3.9747,-3.9722,-3.9697,-3.9697,-3.9697,-3.9697,-3.9697,-3.9697,-3.9546,-3.9045,-3.8919,-3.8592,-3.7437,-3.7211,-3.701,-3.6505,-3.5479,-3.4575,-3.4022,-3.347,-3.2541,-3.0909,-3.0683,-3.0457,-2.9905,-2.9804,-2.9804,-2.9804,-2.9804,-2.9804,-2.9804,-2.9804,-2.9804,-2.9804,-2.9804,-2.9528,-2.8938,-2.8913,-2.8637,-2.8147,-2.8122,-2.8097,-2.8097,-2.8097,-2.8097,-5.5471,-5.9682,-6.3408,-6.5084,-6.6251,-6.6999,-6.6999,-6.5233,-6.275,-5.9757,-5.5209,-5.0564,0.0,0.0,0.0,-5.0846,-5.5218,0.0,-6.3019,-6.4366,0.0,0.0,0.0,-6.341,-6.1365,-6.299,0.0,0.0,-6.418,-6.4384,-6.6471,-6.5708,-6.4984,-6.4657,-6.2892,-6.0989,-5.9157,-5.6815,-5.5315,-5.4762,-5.421,-5.3632,-5.313,-5.298,-5.2929,-5.2929,-5.2929,-5.2929,-5.2879,-5.2327,-5.1774,-5.1122,-4.9439,-4.841,-4.7782,-4.6702,-4.5974,-4.5497,-4.5648,-4.4869,-4.3765,-4.3489,-4.2735,-4.1957,-4.1957,-4.1178,-4.03,-4.03,-4.0023,-3.9697,-3.9697,-3.9697,-3.9697,-3.9697,-3.9697,-3.9546,-3.9045,-3.8919,-3.8668,-3.7939,-3.7462,-3.701,-3.6505,-3.5805,-3.5107,-3.46,-3.4048,-3.3244,-3.1964,-3.1436,-3.0984,-3.0457,-3.003,-2.9804,-2.9804,-2.9804,-2.9804,-2.9804,-2.9804,-2.9804,-2.9804,-2.9804,-2.9729,-2.9578,-2.9151,-2.8813,-2.8725,-2.8298,-2.8097,-2.8097,-2.8097,-2.8097,-5.9469,-6.281,-6.5772,-6.6999,-6.7148,-6.655,-6.4814,-6.2301,-5.8841,-5.3425,-4.9005,0.0,0.0,0.0,0.0,0.0,0.0,0.0,-6.0061,-6.3208,-6.4604,0.0,-6.5244,0.0,-6.4764,-6.6003,-6.7148,0.0,-6.6909,-6.6939,-6.8345,-6.8082,-6.7677,-6.7113,-6.4672,-6.1879,-5.8678,-5.6471,-5.5239,-5.4913,-5.4361,-5.3808,-5.3256,-5.3256,-5.313,-5.2929,0.0,-5.2929,-5.2879,-5.2076,-5.1548,-5.1096,-4.9138,-4.8184,-4.7782,-4.6702,-4.6125,-4.5773,-4.5271,-4.4694,-4.4066,-4.3514,-4.2811,-4.2162,-4.1882,-4.1204,-4.0475,-4.0224,-3.9923,-3.9697,-3.9697,-3.9697,-3.9697,-3.9697,-3.9697,-3.9622,-3.9295,-3.922,-3.8994,-3.8165,-3.7362,-3.6782,-3.6455,-3.5906,-3.5307,-3.4756,-3.4248,-3.3571,-3.2692,-3.1888,-3.1185,-3.0658,-3.0131,-2.9804,-2.9804,-2.9804,-2.9804,-2.9804,-2.9804,-2.9804,-2.9804,-2.9804,-2.9804,-2.9804,-2.9478,-2.9302,-2.9302,-2.9001,-2.885,-2.885,-2.885,-2.885,-6.266,-6.4784,-6.667,-6.8315,-6.7657,-6.5562,-6.1443,-5.8584,-5.4425,-4.5927,0.0,0.0,-3.6498,0.0,-3.7593,-4.192,0.0,-5.0862,-5.5977,-6.0756,-6.4008,-6.4706,-6.6841,-6.8076,-6.7687,-6.8076,-6.8645,-6.9333,-6.8734,-6.8615,-6.9213,-6.9782,-6.9483,-6.8035,-6.5377,-6.1845,-5.7392,-5.6214,-5.5491,-5.5265,-5.4787,-5.4235,-5.3607,-5.3607,-5.3356,-5.2929,-5.2929,0.0,-5.2854,-5.1724,-5.1272,-5.1046,-4.8786,-4.7908,-4.7782,-4.6702,-4.6301,-4.615,-4.502,-4.4618,-4.4518,-4.389,-4.3037,-4.2213,-4.1605,-4.1053,-4.0501,-3.9948,-3.9747,-3.9697,-3.9697,-3.9697,-3.9697,-3.9697,-3.9697,-3.9697,-3.9697,-3.9697,-3.9346,-3.8216,-3.7236,-3.6581,-3.643,-3.5981,-3.5382,-3.4781,-3.4324,-3.3796,-3.3169,-3.2164,-3.1336,-3.0884,-3.0281,-2.9905,-2.9905,-2.9829,-2.9804,-2.9804,-2.9804,-2.9804,-2.9804,-2.9804,-2.9804,-2.9804,-2.9804,-2.9804,-2.9804,-2.9804,-2.9804,-2.9804,-2.9804,-2.9804,-6.4276,-6.6131,-6.7597,-6.7388,-6.5922,-6.3293,-5.8523,-5.384,0.0,0.0,0.0,-3.5781,-3.2724,0.0,0.0,-4.1653,0.0,0.0,0.0,0.0,-6.3459,0.0,0.0,0.0,0.0,0.0,0.0,0.0,0.0,-7.044,-7.056,-7.0679,-6.969,-6.7372,-6.3864,-6.108,-5.9228,-5.7604,-5.6068,-5.4712,-5.4612,-5.4034,-5.3055,-5.3055,-5.3005,-5.2929,-5.2929,0.0,-5.2854,-5.1724,-5.1272,-5.1046,-4.8786,-4.7908,-4.7782,-4.6702,-4.6301,-4.615,-4.502,-4.4618,-4.4468,-4.3438,-4.2986,-4.2791,-4.2238,-4.163,-4.1025,-4.0526,-4.0049,-3.9697,-3.9697,-3.9697,-3.9697,-3.9697,-3.9697,-3.9697,-3.9697,-3.9697,-3.9346,-3.8216,-3.7839,-3.7437,-3.6556,-3.6329,-3.5881,-3.4876,-3.465,-3.4223,-3.3219,-3.2491,-3.2039,-3.1938,-3.106,-3.0482,-3.0482,-3.0055,-2.9804,-2.9804,-2.9804,-2.9804,-2.9804,-2.9804,-2.9804,-2.9804,-2.9804,-2.9804,-2.9804,-2.9804,-2.9804,-2.9804,-2.9804,-2.9804,-6.4755,-6.646,-6.7807,-6.7148,-6.4994,-6.1267,-5.4632,0.0,0.0,0.0,0.0,-3.274,-3.0813,0.0,0.0,0.0,0.0,0.0,0.0,0.0,0.0,0.0,0.0,0.0,0.0,0.0,0.0,0.0,0.0,-7.0889,-7.0889,-6.9979,-6.8412,-6.6198,-6.3118,-6.0609,-5.8804,-5.7314,-5.5917,-5.4561,-5.4561,-5.3984,-5.2929,-5.3206,-5.3181,-5.2929,-5.2929,0.0,-5.2854,-5.1724,-5.1272,-5.1046,-4.8786,-4.7908,-4.7782,-4.6702,-4.6301,-4.615,-4.502,-4.4618,-4.4443,-4.3338,-4.2841,-4.2514,-4.1882,-4.1354,-4.0802,-4.0249,-3.9898,-3.9697,-3.9697,-3.9697,-3.9697,-3.9697,-3.9697,-3.9697,-3.9697,-3.922,-3.8743,-3.8492,-3.7739,-3.7086,-3.6883,-3.6606,-3.6081,-3.5232,-3.5107,-3.4705,-3.3646,-3.3269,-3.2867,-3.2265,-3.1486,-3.0909,-3.0633,-3.0382,-3.0105,-2.9804,-2.9804,-2.9804,-2.9804,-2.9804,-2.9804,-2.9804,-2.9804,-2.9804,-2.9804,-2.9804,-2.9804,-2.9804,-2.9804,-2.9804,-6.4427,-6.6251,-6.7597,-6.6939,-6.4096,-5.9334,-5.1166,-4.6003,0.0,0.0,0.0,-3.0658,-2.9934,0.0,0.0,0.0,0.0,0.0,0.0,0.0,0.0,0.0,0.0,0.0,0.0,0.0,0.0,0.0,0.0,0.0,-7.0889,-6.8721,-6.6788,-6.5257,-6.2472,-6.0008,-5.7901,-5.7022,-5.5892,-5.4561,-5.4561,-5.3984,-5.2929,-5.3356,-5.3306,-5.2929,-5.2804,0.0,0.0,-5.1548,-5.1096,-5.087,-4.8736,-4.7908,-4.7782,-4.6702,-4.6225,-4.5974,-4.497,-4.4543,-4.4292,-4.3288,-4.2665,-4.2112,-4.1505,-4.0953,-4.04,-3.9848,-3.9697,-3.9697,-3.9697,-3.9697,-3.9697,-3.9697,-3.9697,-3.9697,-3.9697,-3.8994,-3.8467,-3.8818,-3.7762,-3.6857,-3.7136,-3.6782,-3.6182,-3.5583,-3.5508,-3.5132,-3.4198,-3.3972,-3.3571,-3.2667,-3.1964,-3.1411,-3.0984,-3.0859,-3.0557,-3.0005,-2.9955,-2.9905,-2.9804,-2.9804,-2.9804,-2.9804,-2.9804,-2.9804,-2.9804,-2.9804,-2.9804,-2.9804,-2.9804,-2.9804,-6.3266,-6.5562,-6.6909,-6.6251,-6.272,-5.7327,-4.9423,0.0,0.0,0.0,-2.9934,-2.9895,-2.9818,-2.9905,0.0,0.0,0.0,0.0,0.0,0.0,0.0,0.0,0.0,0.0,0.0,0.0,0.0,0.0,0.0,0.0,-7.0824,-6.7479,-6.5427,-6.5186,-6.1588,-5.9135,-5.7901,-5.7801,-5.6671,-5.4561,-5.4561,-5.3984,-5.2929,-5.298,-5.298,-5.2904,-5.2402,0.0,0.0,-5.0971,-5.0494,-5.0318,-4.8586,-4.7908,-4.7782,-4.6702,-4.5999,-4.5472,-4.4844,-4.4292,-4.379,-4.3162,-4.2665,-4.2112,-4.1505,-4.0953,-4.04,-3.9848,-3.9697,-3.9697,-3.9697,-3.9697,-3.9697,-3.9697,-3.9697,-3.9697,-3.9697,-3.9622,-3.9396,-3.8969,-3.8316,-3.7713,-3.7262,-3.6782,-3.6182,-3.5583,-3.5508,-3.5282,-3.468,-3.4198,-3.3847,-3.3746,-3.2767,-3.2114,-3.2064,-3.1612,-3.111,-3.0583,-3.0532,-3.0306,-2.9804,-2.9804,-2.9804,-2.9804,-2.9804,-2.9804,-2.9804,-2.9804,-2.9804,-2.9804,-2.9804,-2.9804,-6.1181,-6.4276,-6.6131,-6.5054,-6.0479,-5.4621,-4.8268,0.0,0.0,0.0,-2.9804,-2.9804,-2.9804,-2.9804,-3.0156,0.0,0.0,0.0,0.0,0.0,0.0,0.0,0.0,0.0,0.0,0.0,0.0,0.0,0.0,0.0,-6.7576,-6.4929,-6.3511,-6.3511,-6.0553,-5.8654,-5.7901,-5.7223,-5.6093,-5.4561,-5.421,-5.3658,-5.2929,-5.2929,-5.2929,-5.2929,-5.2703,0.0,0.0,-5.1272,-5.072,-5.0243,-4.856,-4.7908,-4.7782,-4.6702,-4.5974,-4.5397,-4.4819,-4.4267,-4.3714,-4.3162,-4.2665,-4.2112,-4.1505,-4.0727,-3.9973,-3.9747,-3.9697,-3.9697,-3.9697,-3.9697,-3.9697,-3.9697,-3.9697,-3.9697,-3.9697,-3.9421,-3.9145,-3.8969,-3.814,-3.7437,-3.7236,-3.6782,-3.6329,-3.6081,-3.6031,-3.583,-3.5232,-3.468,-3.4274,-3.3922,-3.3194,-3.2591,-3.224,-3.2014,-3.1512,-3.0658,-3.0608,-3.0357,-2.9804,-2.9804,-2.9804,-2.9804,-2.9804,-2.9804,-2.9804,-2.9804,-2.9804,-2.9804,-2.9804,-2.9804,-5.8089,-6.1762,-6.4066,-6.3348,-5.8584,-5.2603,0.0,0.0,0.0,-3.0659,-2.9804,-2.9804,-2.9804,-2.9804,-2.9804,0.0,0.0,0.0,0.0,0.0,0.0,0.0,0.0,0.0,0.0,0.0,0.0,0.0,0.0,0.0,0.0,-6.2582,-6.1738,-6.2149,-5.9919,-5.8378,-5.765,-5.6696,-5.5666,-5.4561,-5.3984,-5.3432,-5.2929,-5.2929,-5.2929,-5.2929,-5.2754,0.0,0.0,-5.1247,-5.0594,-4.9791,-4.8435,-4.7707,-4.733,-4.6401,-4.5598,-4.492,-4.4518,-4.4016,-4.3489,-4.3112,-4.2509,-4.1831,-4.1401,-4.0676,-3.9898,-3.9747,-3.9697,-3.9697,-3.9697,-3.9697,-3.9697,-3.9697,-3.9697,-3.9697,-3.9697,-3.9396,-3.912,-3.912,-3.8191,-3.7437,-3.7437,-3.6835,-3.6405,-3.6405,-3.6405,-3.6279,-3.583,-3.5257,-3.4705,-3.4198,-3.3646,-3.3093,-3.2516,-3.2466,-3.2014,-3.0909,-3.0859,-3.0532,-2.9829,-2.9804,-2.9804,-2.9804,-2.9804,-2.9804,-2.9804,-2.9804,-2.9804,-2.9804,-2.9804,-2.9804,-5.376,-5.7663,-6.0296,-6.0984,-5.7154,-5.1695,0.0,0.0,0.0,0.0,-2.9804,-2.9804,-2.9804,-2.9804,-2.9804,-2.9804,0.0,0.0,0.0,0.0,0.0,0.0,0.0,0.0,0.0,0.0,0.0,0.0,0.0,0.0,0.0,-6.0584,-6.01,-6.1442,-5.9689,-5.8177,-5.7047,-5.6495,-5.5666,-5.4561,-5.3984,-5.3432,-5.2929,-5.2929,-5.2929,0.0,0.0,0.0,0.0,-5.067,-4.9766,-4.8736,-4.8134,-4.7255,-4.625,-4.5698,-4.4794,-4.3815,-4.3815,-4.3438,-4.2986,-4.2986,-4.2233,-4.13,-4.1275,-4.0899,-4.04,-3.9848,-3.9697,-3.9697,-3.9697,-3.9697,-3.9697,-3.9697,-3.9697,-3.9697,-3.9697,-3.9697,-3.9697,-3.9697,-3.8768,-3.799,-3.799,-3.7086,-3.6405,-3.6405,-3.6405,-3.6405,-3.6405,-3.5881,-3.5282,-3.4731,-3.4223,-3.3671,-3.3162,-3.3111,-3.2591,-3.1461,-3.1386,-3.0909,-2.9829,-2.9804,-2.9804,-2.9804,-2.9804,-2.9804,-2.9804,-2.9804,-2.9804,-2.9804,-2.9804,-2.9804,-4.6071,-4.8913,-5.0782,-5.0984,-4.7478,-4.3462,-4.1487,0.0,0.0,0.0,-3.1193,-3.0771,-3.0771,-3.0254,-3.0156,-3.126,0.0,0.0,0.0,0.0,0.0,0.0,0.0,0.0,0.0,0.0,0.0,0.0,0.0,0.0,0.0,-6.0495,-6.0493,-5.964,-5.8631,-5.7625,-5.647,-5.5541,-5.4712,-5.3959,-5.3432,-5.308,-5.2929,-5.2929,-5.2929,0.0,0.0,0.0,0.0,-5.1071,-5.0117,-4.8711,-4.8134,-4.7481,-4.6753,-4.5824,-4.502,-4.4317,-4.394,-4.3438,-4.2986,-4.2986,-4.2735,-4.2384,-4.2007,-4.0978,-3.9923,-3.9747,-3.9697,-3.9697,-3.9697,-3.9697,-3.9697,-3.9697,-3.9697,-3.9697,-3.9697,-3.9697,-3.9471,-3.8693,-3.8241,-3.7764,-3.701,-3.6631,-3.6405,-3.6405,-3.6405,-3.6405,-3.6405,-3.5554,-3.4881,-3.4751,-3.3897,-3.3269,-3.3093,-3.2717,-3.2164,-3.1436,-3.106,-3.0532,-2.9829,-2.9804,-2.9804,-2.9804,-2.9804,-2.9804,-2.9804,-2.9804,-2.9804,-2.9804,-2.9804,-2.9804,0.0,-4.3268,-4.4997,-4.5251,-4.2425,0.0,0.0,0.0,0.0,0.0,0.0,0.0,0.0,0.0,0.0,0.0,0.0,0.0,0.0,0.0,0.0,0.0,0.0,0.0,0.0,0.0,0.0,0.0,0.0,0.0,0.0,-5.9635,-5.9376,-5.7775,-5.7449,-5.6821,-5.5917,-5.4787,-5.4059,-5.3683,-5.3181,-5.2929,-5.2929,-5.2929,-5.2929,0.0,0.0,0.0,0.0,-5.1046,-4.9967,-4.841,-4.8058,-4.733,-4.6401,-4.5497,-4.4794,-4.4242,-4.3689,-4.3263,-4.2986,-4.2986,-4.2836,-4.259,-4.1781,-4.0827,-3.9948,-3.9747,-3.9697,-3.9697,-3.9697,-3.9697,-3.9697,-3.9697,-3.9697,-3.9697,-3.9697,-3.9697,-3.9421,-3.8517,-3.8165,-3.7713,-3.6883,-3.6556,-3.6405,-3.6405,-3.6405,-3.6405,-3.6405,-3.5579,-3.4906,-3.4705,-3.3922,-3.3294,-3.3136,-3.2742,-3.2215,-3.1436,-3.1085,-3.0583,-2.9829,-2.9804,-2.9804,-2.9804,-2.9804,-2.9804,-2.9804,-2.9804,-2.9804,-2.9804,-2.9804,-2.9804,0.0,0.0,0.0,0.0,0.0,0.0,0.0,0.0,0.0,0.0,0.0,0.0,0.0,0.0,0.0,0.0,0.0,0.0,0.0,0.0,0.0,0.0,0.0,0.0,0.0,0.0,0.0,0.0,0.0,0.0,0.0,-5.8328,-5.7522,-5.6387,-5.6312,-5.5962,-5.5265,-5.4235,-5.3683,-5.3632,-5.3155,-5.2929,-5.2929,-5.2929,-5.2904,0.0,0.0,0.0,0.0,-5.0594,-4.9389,-4.7908,-4.7857,-4.6878,-4.5422,-4.4844,-4.4267,-4.3714,-4.3162,-4.2986,-4.2986,-4.2986,-4.2665,-4.2011,-4.0902,-4.0551,-4.04,-3.9848,-3.9697,-3.9697,-3.9697,-3.9697,-3.9697,-3.9697,-3.9697,-3.9697,-3.9697,-3.9697,-3.9521,-3.8969,-3.8391,-3.7839,-3.7287,-3.6782,-3.6405,-3.6405,-3.6405,-3.6405,-3.6405,-3.5881,-3.5282,-3.4776,-3.4223,-3.3671,-3.3162,-3.3043,-3.2566,-3.1512,-3.1386,-3.0884,-2.9905,-2.9804,-2.9804,-2.9804,-2.9804,-2.9804,-2.9804,-2.9804,-2.9804,-2.9804,-2.9804,-2.9804,-3.1539,0.0,-3.2826,0.0,0.0,0.0,0.0,0.0,0.0,0.0,0.0,0.0,0.0,0.0,0.0,0.0,0.0,0.0,0.0,0.0,0.0,0.0,0.0,0.0,0.0,0.0,0.0,0.0,0.0,0.0,0.0,-5.9372,-5.8772,-5.7695,-5.7225,-5.6062,-5.411,-5.3833,-5.3507,-5.3105,-5.298,-5.2929,-5.2929,-5.2929,-5.2703,0.0,0.0,0.0,-5.0569,-5.0017,-4.9038,-4.7857,-4.7481,-4.6577,-4.5422,-4.4844,-4.4267,-4.3714,-4.3162,-4.2986,-4.2986,-4.2986,-4.2665,-4.2087,-4.1354,-4.0852,-4.04,-3.9848,-3.9697,-3.9697,-3.9697,-3.9697,-3.9697,-3.9697,-3.9697,-3.9697,-3.9697,-3.9697,-3.9521,-3.8969,-3.8391,-3.7839,-3.7287,-3.6782,-3.6405,-3.6405,-3.6405,-3.6405,-3.6405,-3.5881,-3.5282,-3.4776,-3.4223,-3.3671,-3.3162,-3.2667,-3.2315,-3.2039,-3.126,-3.0683,-3.0432,-3.0005,-2.9804,-2.9804,-2.9804,-2.9804,-2.9804,-2.9804,-2.9804,-2.9804,-2.9804,-2.9804,-2.9782,-2.9804,-2.9804,-2.9804,-2.9804,-2.9934,0.0,0.0,0.0,0.0,0.0,0.0,0.0,0.0,0.0,0.0,0.0,0.0,0.0,0.0,0.0,0.0,0.0,0.0,0.0,0.0,0.0,0.0,0.0,0.0,0.0,-5.834,-5.7773,-5.615,-5.5839,-5.5004,-5.3708,-5.3457,-5.3206,-5.2929,-5.2929,-5.2929,-5.2929,-5.2678,-5.2377,0.0,0.0,0.0,-4.9992,-4.9439,-4.856,-4.7531,-4.7193,-4.6451,-4.5422,-4.4844,-4.4267,-4.3714,-4.3162,-4.2986,-4.2986,-4.2986,-4.2665,-4.2112,-4.1505,-4.0953,-4.04,-3.9848,-3.9697,-3.9697,-3.9697,-3.9697,-3.9697,-3.9697,-3.9697,-3.9697,-3.9697,-3.9496,-3.9145,-3.8592,-3.8015,-3.7462,-3.6958,-3.6606,-3.6405,-3.6405,-3.6405,-3.6405,-3.6405,-3.5881,-3.5382,-3.5082,-3.4374,-3.3771,-3.347,-3.2943,-3.2491,-3.224,-3.1436,-3.0859,-3.0633,-3.008,-2.9804,-2.9804,-2.9804,-2.9804,-2.9804,-2.9804,-2.9804,-2.9804,-2.9804,-2.9804,-3.0063,-3.0381,-3.0406,-2.9907,-2.9804,-2.9818,0.0,0.0,0.0,0.0,0.0,0.0,0.0,0.0,0.0,0.0,0.0,0.0,0.0,0.0,0.0,0.0,0.0,0.0,0.0,0.0,0.0,0.0,0.0,0.0,0.0,-5.6868,-5.62,-5.417,-5.4075,-5.3911,-5.3582,-5.3155,-5.2929,-5.2929,-5.2929,-5.2879,-5.2779,-5.2327,-5.2026,-5.18,0.0,0.0,-4.9414,-4.8786,-4.7983,-4.7043,-4.6954,-4.625,-4.5296,-4.4719,-4.4141,-4.3614,-4.3137,-4.2911,-4.2861,-4.2961,-4.2539,-4.1886,-4.1455,-4.0902,-4.03,-3.9823,-3.9697,-3.9697,-3.9697,-3.9697,-3.9697,-3.9697,-3.9697,-3.9697,-3.9697,-3.932,-3.8818,-3.8241,-3.7688,-3.7136,-3.6631,-3.6455,-3.6405,-3.6405,-3.6405,-3.6405,-3.6405,-3.5956,-3.5558,-3.5382,-3.4575,-3.3947,-3.3796,-3.3345,-3.2867,-3.2365,-3.1738,-3.111,-3.0507,-3.003,-2.9804,-2.9804,-2.9804,-2.9804,-2.9804,-2.9804,-2.9804,-2.9804,-2.9804,-2.9804,-3.2027,-3.3001,-3.3236,-3.0509,-2.9804,-3.0011,0.0,0.0,0.0,0.0,0.0,0.0,0.0,0.0,0.0,0.0,0.0,0.0,0.0,0.0,0.0,0.0,0.0,0.0,0.0,0.0,0.0,0.0,0.0,0.0,0.0,-5.7225,-5.6829,-5.5981,-5.5954,-5.5028,-5.3055,-5.298,-5.2929,-5.2929,-5.2929,-5.2678,-5.2226,-5.2151,-5.1574,-5.0645,0.0,-4.9414,-4.8812,-4.7807,-4.728,-4.6993,-4.61,-4.5321,-4.4694,-4.4141,-4.3589,-4.3087,-4.3011,-4.2715,-4.2414,-4.2836,-4.1982,-4.0852,-4.1175,-4.0626,-3.9798,-3.9722,-3.9697,-3.9697,-3.9697,-3.9697,-3.9697,-3.9697,-3.9697,-3.9697,-3.9697,-3.9622,-3.9396,-3.8843,-3.8266,-3.7713,-3.7161,-3.6732,-3.6405,-3.6405,-3.6405,-3.6405,-3.6405,-3.6329,-3.5881,-3.4951,-3.47,-3.4223,-3.3294,-3.3162,-3.3043,-3.2943,-3.1964,-3.0959,-2.9955,-2.9829,-2.9804,-2.9804,-2.9804,-2.9804,-2.9804,-2.9804,-2.9804,-2.9804,-2.9804,-2.9804,-3.2345,-3.3043,-3.3248,-3.2107,-3.241,-3.2936,-3.3003,0.0,0.0,0.0,0.0,0.0,0.0,0.0,0.0,0.0,0.0,0.0,0.0,0.0,0.0,0.0,0.0,0.0,0.0,0.0,0.0,0.0,0.0,0.0,0.0,0.0,-5.573,-5.4576,-5.4508,-5.3997,-5.2929,-5.2628,-5.2477,-5.2477,-5.2477,-5.2201,-5.1649,-5.1322,-5.0921,-5.0368,0.0,-4.8837,-4.8209,-4.7129,-4.6527,-4.615,-4.5347,-4.4669,-4.4116,-4.3564,-4.3187,-4.2936,-4.269,-4.2414,-4.2263,-4.2514,-4.163,-4.0626,-4.1125,-4.0576,-3.9697,-3.9697,-3.9697,-3.9697,-3.9697,-3.9697,-3.9697,-3.9697,-3.9697,-3.9697,-3.9697,-3.922,-3.8718,-3.8442,-3.7713,-3.7036,-3.6832,-3.6581,-3.6405,-3.6405,-3.6405,-3.6405,-3.6405,-3.6405,-3.6229,-3.5655,-3.5077,-3.4525,-3.3997,-3.342,-3.2943,-3.2616,-3.2114,-3.1486,-3.0683,-3.0658,-3.0532,-3.0256,-3.0231,-3.008,-2.9804,-2.9804,-2.9804,-2.9804,-2.9804,-2.9804,-3.2811,-3.3374,-3.3748,-3.3804,0.0,-3.504,-3.5517,0.0,0.0,0.0,0.0,0.0,0.0,0.0,0.0,0.0,0.0,0.0,0.0,0.0,0.0,0.0,0.0,0.0,0.0,0.0,0.0,0.0,0.0,0.0,0.0,0.0,-5.4231,-5.2929,-5.2929,-5.2929,-5.2929,-5.2377,-5.2101,-5.2101,-5.1975,-5.1624,-5.1046,-5.0494,-5.0142,-4.9967,-4.8862,-4.8058,-4.7456,-4.6502,-4.5799,-4.5221,-4.4644,-4.4091,-4.3564,-4.3137,-4.2986,-4.2886,-4.2414,-4.2213,-4.2187,-4.2062,-4.1304,-4.0601,-4.0974,-4.0475,-3.9697,-3.9697,-3.9697,-3.9697,-3.9697,-3.9697,-3.9697,-3.9697,-3.9697,-3.9697,-3.9697,-3.9019,-3.8366,-3.8241,-3.7538,-3.6908,-3.6656,-3.6606,-3.6556,-3.643,-3.6405,-3.6405,-3.6405,-3.6405,-3.6355,-3.6182,-3.5303,-3.469,-3.4679,-3.4081,-3.342,-3.2835,-3.2416,-3.1964,-3.1411,-3.1386,-3.121,-3.0809,-3.0809,-3.0532,-2.998,-2.998,-2.9905,-2.9804,-2.9804,-2.9804,-3.4343,-3.5684,-3.6603,-3.488,0.0,0.0,-3.7787,-3.8678,0.0,0.0,0.0,0.0,0.0,0.0,0.0,0.0,0.0,0.0,0.0,0.0,0.0,0.0,0.0,0.0,0.0,0.0,0.0,0.0,0.0,0.0,0.0,0.0,0.0,-5.2929,-5.2929,-5.2929,-5.2929,-5.2377,-5.2101,-5.2101,-5.1599,-5.1046,-5.0469,-4.9916,-4.9364,-4.8837,-4.7732,-4.6954,-4.6376,-4.5799,-4.5196,-4.4644,-4.4066,-4.3514,-4.3037,-4.2986,-4.2986,-4.2886,-4.2414,-4.2213,-4.2137,-4.1555,-4.1003,-4.0526,-4.0576,-4.0174,-3.9697,-3.9697,-3.9697,-3.9697,-3.9697,-3.9697,-3.9697,-3.9697,-3.9697,-3.9697,-3.9697,-3.9622,-3.9421,-3.8919,-3.8793,-3.8366,-3.7312,-3.7136,-3.696,-3.648,-3.6405,-3.6405,-3.6405,-3.6405,-3.6182,-3.5608,-3.5031,-3.4717,-3.468,-3.5121,-3.5189,-3.4568,-3.3053,-3.1964,-3.1411,-3.1386,-3.1361,-3.1336,-3.1336,-3.1085,-3.0557,-3.0557,-3.0306,-2.9804,-2.9804,-2.9804,-3.4273,-3.533,-3.6058,-3.531,0.0,0.0,0.0,0.0,0.0,0.0,0.0,0.0,0.0,0.0,0.0,0.0,0.0,0.0,0.0,0.0,0.0,0.0,0.0,0.0,0.0,0.0,0.0,0.0,0.0,0.0,0.0,0.0,0.0,-5.2427,-5.2427,-5.2251,-5.19,-5.1348,-5.0896,-5.0544,-5.067,-5.0268,-4.9389,-4.9163,-4.8761,-4.8184,-4.7456,-4.6828,-4.625,-4.5321,-4.4618,-4.4066,-4.3514,-4.3162,-4.2986,-4.2986,-4.2986,-4.2861,-4.1957,-4.1656,-4.1555,-4.1003,-4.045,-4.0074,-4.04,-4.0124,-3.9697,-3.9697,-3.9697,-3.9697,-3.9697,-3.9697,-3.9697,-3.9697,-3.9697,-3.9697,-3.9697,-3.9421,-3.9019,-3.8442,-3.8065,-3.7612,-3.6857,-3.6732,-3.6656,-3.643,-3.6405,-3.6405,-3.6405,-3.6405,-3.6329,-3.6081,-3.5839,-3.5583,-3.5242,-3.6058,-3.6497,-3.6253,-3.5035,-3.3775,-3.2508,-3.2483,-3.2265,-3.1913,-3.1913,-3.194,-3.2097,-3.1077,-3.0837,-3.1279,-3.0278,-2.9804,-3.3583,-3.4479,-3.5187,0.0,0.0,0.0,0.0,0.0,0.0,0.0,0.0,0.0,0.0,0.0,0.0,0.0,0.0,0.0,0.0,0.0,0.0,0.0,0.0,0.0,0.0,0.0,0.0,0.0,0.0,0.0,0.0,0.0,0.0,0.0,-5.185,-5.1574,-5.1021,-5.0444,-4.9891,-4.9339,-4.954,-4.9238,-4.8485,-4.8335,-4.8033,-4.7631,-4.6928,-4.6301,-4.5698,-4.4744,-4.4041,-4.3514,-4.3112,-4.2861,-4.2791,-4.2911,-4.2861,-4.2665,-4.1856,-4.1605,-4.148,-4.0752,-4.0249,-3.9998,-4.0199,-3.9998,-3.9697,-3.9697,-3.9697,-3.9697,-3.9697,-3.9697,-3.9697,-3.9697,-3.9697,-3.9697,-3.9697,-3.9396,-3.9019,-3.8617,-3.8241,-3.7739,-3.7059,-3.6933,-3.6807,-3.6455,-3.6405,-3.6405,-3.6405,-3.6405,-3.6471,-3.6641,-3.6467,-3.6369,-3.651,-3.7438,-3.7938,-3.7742,-3.7057,-3.586,-3.3965,-3.3359,-3.2893,-3.2491,-3.2491,-3.2565,-3.2748,-3.1986,-3.164,-3.1668,-3.092,-3.0278,-3.2407,-3.3392,0.0,0.0,0.0,0.0,0.0,0.0,0.0,0.0,0.0,0.0,0.0,0.0,0.0,0.0,0.0,0.0,0.0,0.0,0.0,0.0,0.0,0.0,0.0,0.0,0.0,0.0,0.0,0.0,0.0,0.0,0.0,0.0,-5.1247,-5.0971,-5.0393,-4.9841,-4.9289,-4.8736,-4.8159,-4.7908,-4.7883,-4.7355,-4.7068,-4.7054,-4.5949,-4.5146,-4.4568,-4.4016,-4.3463,-4.2961,-4.2961,-4.269,-4.2263,-4.276,-4.2665,-4.2213,-4.2213,-4.2213,-4.2011,-4.0877,-4.0526,-4.04,-3.9848,-3.9697,-3.9697,-3.9697,-3.9697,-3.9697,-3.9697,-3.9697,-3.9697,-3.9697,-3.9697,-3.9697,-3.9697,-3.9697,-3.9697,-3.9697,-3.9697,-3.932,-3.8191,-3.799,-3.7613,-3.6581,-3.6405,-3.6405,-3.6405,-3.6405,-3.6646,-3.7227,-3.6735,-3.698,-3.8695,-3.9448,-3.9535,-3.8861,-3.8904,-3.8,-3.5701,-3.399,-3.3136,-3.3136,-3.3111,-3.2792,-3.2215,-3.3253,-3.2708,-3.0673,-3.1694,-3.1343,-3.313,0.0,0.0,0.0,0.0,0.0,0.0,0.0,0.0,0.0,0.0,0.0,0.0,0.0,0.0,0.0,0.0,0.0,0.0,0.0,0.0,0.0,0.0,0.0,0.0,0.0,0.0,0.0,0.0,0.0,0.0,0.0,0.0,-4.954,-4.9515,-4.9238,-4.8661,-4.8485,-4.7958,-4.7029,-4.6878,-4.6979,-4.733,-4.6803,-4.6351,-4.5924,-4.5196,-4.4568,-4.3966,-4.3037,-4.2615,-4.2414,-4.1982,-4.1731,-4.1605,-4.1756,-4.1957,-4.2162,-4.1706,-4.158,-4.1455,-4.0752,-4.0249,-3.9898,-3.9747,-3.9697,-3.9697,-3.9697,-3.9697,-3.9697,-3.9697,-3.9697,-3.9697,-3.9697,-3.9697,-3.9697,-3.9697,-3.9697,-3.9572,-3.9195,-3.8793,-3.8391,-3.8065,-3.7362,-3.686,-3.6935,-3.6656,-3.6405,-3.6405,-3.7103,-3.7645,-3.7825,-3.8757,-3.953,-4.0038,-4.1037,-4.1185,-4.0158,-3.9382,-3.8191,-3.6326,-3.4553,-3.3646,-3.3646,-3.3269,-3.3395,-3.396,-3.3116,-3.2757,-3.284,-3.2012,-3.1179,-3.3287,0.0,0.0,0.0,0.0,0.0,0.0,0.0,0.0,0.0,0.0,0.0,0.0,0.0,0.0,0.0,0.0,0.0,0.0,0.0,0.0,0.0,0.0,0.0,0.0,0.0,0.0,0.0,0.0,0.0,0.0,0.0,0.0,-4.846,-4.8234,-4.7857,-4.728,-4.7054,-4.6502,-4.5648,-4.5648,-4.5824,-4.6125,-4.5799,-4.5447,-4.5095,-4.4317,-4.3539,-4.2785,-4.2108,-4.1831,-4.1806,-4.1455,-4.115,-4.1,-4.12,-4.1404,-4.148,-4.1379,-4.115,-4.0899,-4.0626,-4.0149,-3.9697,-3.9697,-3.9697,-3.9697,-3.9697,-3.9697,-3.9697,-3.9697,-3.9697,-3.9697,-3.9697,-3.9697,-3.9697,-3.9697,-3.9697,-3.9597,-3.927,-3.8919,-3.8542,-3.809,-3.7462,-3.6985,-3.6933,-3.6631,-3.6405,-3.6405,-3.7402,-3.8289,-3.8783,-3.9887,-4.0787,-4.1299,-4.1961,-4.1883,-4.0706,-3.9831,-3.8694,-3.721,-3.527,-3.4123,-3.3897,-3.3571,-3.3614,-3.4079,-3.3466,-3.3183,-3.3131,-3.2592,-3.1858,0.0,0.0,0.0,0.0,0.0,0.0,0.0,0.0,0.0,0.0,0.0,0.0,0.0,0.0,0.0,0.0,0.0,0.0,0.0,0.0,0.0,0.0,0.0,0.0,0.0,0.0,0.0,0.0,0.0,0.0,0.0,0.0,-4.7707,-4.7606,-4.7154,-4.6652,-4.615,-4.5648,-4.5121,-4.4543,-4.4493,-4.4468,-4.4468,-4.4518,-4.4493,-4.4342,-4.3288,-4.2258,-4.1275,-4.1225,-4.12,-4.12,-4.115,-4.0824,-4.0501,-4.0949,-4.0902,-4.0601,-4.105,-4.0874,-4.0526,-4.0526,-4.0149,-3.9697,-3.9697,-3.9697,-3.9697,-3.9697,-3.9697,-3.9697,-3.9697,-3.9697,-3.9697,-3.9697,-3.9697,-3.9697,-3.9697,-3.9697,-3.9697,-3.9697,-3.9647,-3.9295,-3.8266,-3.799,-3.7563,-3.6556,-3.6405,-3.6405,-3.6405,-3.7494,-3.8693,-3.9754,-4.0447,-4.1277,-4.2393,-4.2393,-4.1814,-4.0601,-4.0053,-3.9183,-3.7971,-3.5896,-3.455,-3.4048,-3.3997,-3.3696,-3.3187,-3.4157,-3.3804,-3.229,-3.329,-3.2924,0.0,0.0,0.0,0.0,0.0,0.0,0.0,0.0,0.0,0.0,0.0,0.0,0.0,0.0,0.0,0.0,0.0,0.0,0.0,0.0,0.0,0.0,0.0,0.0,0.0,0.0,0.0,0.0,0.0,0.0,0.0,-4.6778,-4.625,-4.5347,-4.5221,-4.5095,-4.4995,-4.4869,-4.4543,0.0,-4.3539,-4.3338,-4.3338,-4.379,-4.3514,-4.2715,-4.1982,-4.1501,-4.125,-4.0877,-4.0701,-4.0651,-4.0224,-3.9973,-3.9898,-3.9998,-4.0249,-4.0526,-4.0651,-4.0626,-4.0526,-4.0526,-4.0149,-3.9697,-3.9697,-3.9697,-3.9697,-3.9697,-3.9697,-3.9697,-3.9697,-3.9697,-3.9697,-3.9697,-3.9697,-3.9697,-3.9697,-3.9697,-3.9697,-3.9697,-3.9346,-3.8969,-3.8718,-3.7939,-3.7136,-3.6505,-3.6405,-3.6405,-3.6405,-3.8225,-3.9623,-3.9869,-4.1583,-4.2813,-4.308,-4.2302,-4.1261,-4.0122,-3.9057,-3.7997,-3.6803,-3.5844,-3.5257,-3.5157,-3.4731,-3.4274,-3.3721,-3.3958,-3.368,-3.2893,-3.3123,-3.2819,0.0,0.0,0.0,0.0,0.0,0.0,0.0,0.0,0.0,0.0,0.0,0.0,0.0,0.0,0.0,0.0,0.0,0.0,0.0,0.0,0.0,0.0,0.0,0.0,0.0,0.0,0.0,0.0,0.0,0.0,0.0,-4.5397,-4.4844,-4.4242,-4.3714,-4.3438,-4.3438,-4.3187,-4.2855,-4.261,-4.2333,-4.2183,-4.2208,-4.276,-4.2409,-4.1354,-4.1078,-4.0802,-4.0526,-4.0249,-4.0124,-4.0099,-3.9798,-3.9697,-3.9697,-3.9697,-3.9873,-4.0124,-4.0124,-4.0124,-4.0124,-4.0124,-3.9923,-3.9697,-3.9697,-3.9697,-3.9697,-3.9697,-3.9697,-3.9697,-3.9697,-3.9697,-3.9697,-3.9697,-3.9697,-3.9697,-3.9697,-4.016,-4.0592,-4.0592,-4.036,-4.005,-3.9483,-3.795,-3.6832,-3.6807,-3.6581,-3.6593,-3.715,-3.8289,-3.9271,-3.9869,-4.0986,-4.1657,-4.1657,-4.1127,-4.0318,-3.9094,-3.8469,-3.7586,-3.6452,-3.6081,-3.5805,-3.5508,-3.5232,-3.468,-3.3897,-3.3897,-3.3621,-3.3111,-3.3111,-3.2918,0.0,0.0,0.0,0.0,0.0,0.0,0.0,0.0,0.0,0.0,0.0,0.0,0.0,0.0,0.0,0.0,0.0,0.0,0.0,0.0,0.0,0.0,0.0,0.0,0.0,0.0,0.0,0.0,0.0,0.0,-4.5276,-4.413,-4.3489,-4.3388,-4.2484,-4.2062,-4.2062,-4.1555,-4.1275,-4.1275,-4.1275,-4.1175,-4.1025,-4.163,-4.1379,-4.0501,-4.0425,-4.0124,-3.9697,-3.9697,-3.9697,-3.9697,-3.9697,-3.9697,-3.9697,-3.9697,-3.9697,-3.9697,-3.9697,-3.9697,-3.9697,-3.9697,-3.9697,-3.9697,-3.9697,-3.9826,-3.9981,-3.9749,-3.9826,-3.9981,-3.9749,-3.9697,-3.9697,-3.9697,-3.9878,-4.0032,-4.0032,-4.1019,-4.1936,-4.1936,-4.166,-4.1063,-3.9923,-3.7968,-3.6681,-3.6985,-3.6824,-3.6989,-3.7723,-3.8153,-3.8693,-3.9492,-3.9782,-3.9913,-3.9913,-3.9711,-3.9139,-3.8153,-3.7926,-3.7356,-3.6452,-3.6405,-3.6157,-3.5658,-3.5533,-3.5006,-3.4048,-3.3947,-3.3621,-3.3111,-3.3111,-3.3111,0.0,0.0,0.0,0.0,0.0,0.0,0.0,0.0,0.0,0.0,0.0,0.0,0.0,0.0,0.0,0.0,0.0,0.0,0.0,0.0,0.0,0.0,0.0,0.0,0.0,0.0,0.0,0.0,0.0,0.0,-4.4305,-4.3121,-4.2158,-4.1626,-4.1476,-4.1401,-4.1401,-4.1326,-4.1275,-4.1275,-4.1275,-4.0774,-3.9923,-4.0475,-4.0651,-4.0501,-4.0023,-3.9772,-3.9697,-3.9697,-3.9697,-3.9697,-3.9697,-3.9697,-3.9697,-3.9697,-3.9697,-3.9697,-3.9697,-3.9697,-3.9697,-3.9697,-3.9697,-3.9697,-3.9697,-4.0465,-4.1119,-4.0032,-4.0516,-4.1069,-3.9981,-3.9697,-3.9697,-3.9697,-4.0567,-4.1369,-4.1369,-4.235,-4.3266,-4.3266,-4.1995,-4.0531,-3.9248,-3.7925,-3.6935,-3.6581,-3.7294,-3.7586,-3.6709,-3.8405,-3.9316,-3.8424,-3.9271,-3.9913,-3.9913,-3.8961,-3.8289,-3.8107,-3.715,-3.6546,-3.6405,-3.6405,-3.638,-3.6304,-3.578,-3.5182,-3.458,-3.4123,-3.3621,-3.3111,-3.3111,-3.3111,0.0,0.0,0.0,0.0,0.0,0.0,0.0,0.0,0.0,0.0,0.0,0.0,0.0,0.0,0.0,0.0,0.0,0.0,0.0,0.0,0.0,0.0,0.0,0.0,0.0,0.0,0.0,0.0,0.0,-4.4511,-4.3176,-4.2268,-4.1489,-4.0877,-4.0576,-4.0425,-4.0425,-4.0425,-4.0425,-4.0425,-4.0425,-4.0174,-3.9697,-3.9948,-4.0049,-4.0049,-3.9798,-3.9697,-3.9697,-3.9697,-3.9697,-3.9697,-3.9697,-3.9697,-3.9697,-3.9697,-3.9697,-3.9697,-3.9697,-3.9697,-3.9697,-3.9697,-3.9697,-3.9697,-3.9697,-4.0592,-4.1468,-4.0945,-4.1169,-4.1468,-4.0895,-4.0211,-3.9697,-3.9697,-4.1219,-4.2641,-4.2641,-4.3693,-4.4535,-4.4535,-4.3658,-4.2629,-4.1645,-4.0221,-3.9256,-3.9362,-3.8886,-3.8582,-3.8766,-3.8853,-3.8877,-3.9064,-3.8635,-3.8405,-3.8405,-3.7655,-3.715,-3.715,-3.6662,-3.6405,-3.6405,-3.6405,-3.6405,-3.6405,-3.583,-3.5232,-3.468,-3.4173,-3.3621,-3.3111,-3.3111,-3.3111,0.0,0.0,0.0,0.0,0.0,0.0,0.0,0.0,0.0,0.0,0.0,0.0,0.0,0.0,0.0,0.0,0.0,0.0,0.0,0.0,0.0,0.0,0.0,0.0,0.0,0.0,0.0,0.0,0.0,-4.4283,-4.2685,-4.1843,-4.108,-4.0363,-4.0058,-3.9778,-3.9471,-3.9622,-3.9697,-3.9697,-3.9697,-3.9697,-3.9697,-3.9697,-3.9697,-3.9697,-3.9697,-3.9697,-3.9697,-3.9697,-3.9697,-3.9697,-3.9697,-3.9697,-3.9697,-3.9697,-3.9697,-3.9697,-3.9697,-3.9697,-3.9749,-4.0083,-3.9981,-3.9826,-4.0465,-4.1319,-4.2084,-4.2084,-4.2084,-4.2035,-4.169,-4.0642,-3.9697,-3.9697,-4.1419,-4.3266,-4.4256,-4.5207,-4.584,-4.5665,-4.5196,-4.4502,-4.3658,-4.1902,-4.0695,-4.0996,-3.9799,-3.9091,-3.9733,-3.9033,-3.8651,-3.928,-3.8197,-3.7337,-3.7186,-3.6857,-3.6556,-3.6405,-3.6405,-3.6405,-3.6405,-3.6405,-3.6405,-3.6405,-3.568,-3.5082,-3.468,-3.4022,-3.347,-3.3111,-3.3111,-3.3111,0.0,0.0,0.0,0.0,0.0,0.0,0.0,0.0,0.0,0.0,0.0,0.0,0.0,0.0,0.0,0.0,0.0,0.0,0.0,0.0,0.0,0.0,0.0,0.0,0.0,0.0,0.0,0.0,0.0,-4.4104,-4.3369,-4.2171,-4.1009,-3.9864,-4.0293,-4.0042,-3.8969,-3.9421,-3.9697,-3.9697,-3.9697,-3.9697,-3.9697,-3.9697,-3.9697,-3.9697,-3.9697,-3.9697,-3.9697,-3.9697,-3.9697,-3.9697,-3.9697,-3.9697,-3.9697,-3.9697,-3.9697,-3.9697,-3.9697,-3.9697,-3.9878,-4.1119,-4.0693,-4.0185,-4.2544,-4.3361,-4.3409,-4.3409,-4.3409,-4.3122,-4.1936,-4.0642,-3.9697,-3.9697,-4.0693,-4.2689,-4.6299,-4.7149,-4.7013,-4.6373,-4.5771,-4.4985,-4.3805,-4.1544,-3.98,-3.9316,-3.9025,-3.8512,-3.7498,-3.8726,-3.928,-3.8187,-3.8014,-3.7739,-3.7236,-3.7161,-3.691,-3.643,-3.6405,-3.6405,-3.6405,-3.6405,-3.6405,-3.6405,-3.5303,-3.4751,-3.468,-3.3646,-3.3136,-3.3111,-3.3111,-3.3111,0.0,0.0,0.0,0.0,0.0,0.0,0.0,0.0,0.0,0.0,0.0,0.0,0.0,0.0,0.0,0.0,0.0,0.0,0.0,0.0,0.0,0.0,0.0,0.0,0.0,0.0,0.0,0.0,0.0,0.0,-4.2194,-4.1696,-4.0845,-3.9627,-3.9482,-3.9106,-3.8316,-3.8517,-3.8793,-3.917,-3.917,-3.9346,-3.9697,-3.9697,-3.9697,-3.9672,-3.932,-3.9371,-3.9697,-3.9697,-3.9697,-3.9697,-3.9697,-3.9697,-3.9697,-3.9697,-3.9697,-3.9697,-3.9697,-3.9697,-3.9929,-4.1169,-4.1269,-4.1219,-4.2978,-4.3504,-4.3504,-4.3504,-4.293,-4.2181,-4.1739,-4.0642,-3.9929,-4.0743,-4.1269,-4.2398,-4.5434,-4.6077,-4.5989,-4.5756,-4.5544,-4.5245,-4.4857,-4.297,-4.142,-4.0867,-4.0047,-3.9323,-3.8921,-3.9051,-3.9168,-3.9095,-3.8442,-3.7914,-3.7739,-3.7061,-3.6631,-3.643,-3.6405,-3.6405,-3.6405,-3.6405,-3.6405,-3.6405,-3.5278,-3.468,-3.468,-3.3621,-3.3111,-3.3111,-3.3111,-3.3471,0.0,0.0,0.0,0.0,0.0,0.0,0.0,0.0,0.0,0.0,0.0,0.0,0.0,0.0,0.0,0.0,0.0,0.0,0.0,0.0,0.0,0.0,0.0,0.0,0.0,0.0,0.0,0.0,0.0,0.0,-4.182,-4.175,-4.1146,-3.9897,-3.9149,-3.855,-3.8018,-3.8197,-3.8282,-3.8316,-3.8492,-3.8768,-3.912,-3.912,-3.912,-3.9094,-3.8743,-3.8994,-3.9672,-3.9496,-3.9521,-3.9697,-3.9697,-3.9697,-3.9697,-3.9697,-3.9697,-3.9697,-3.9697,-3.9697,-3.9929,-4.1169,-4.1319,-4.1269,-4.2978,-4.3218,-4.293,-4.3361,-4.2593,-4.1591,-4.1591,-4.0642,-3.9929,-4.0743,-4.0995,-4.1419,-4.3122,-4.4163,-4.4886,-4.5298,-4.507,-4.4794,-4.4794,-4.3194,-4.1828,-4.1466,-4.0309,-3.9469,-3.9469,-3.932,-3.9295,-3.9647,-3.8843,-3.8216,-3.8015,-3.7337,-3.6807,-3.643,-3.6581,-3.6606,-3.6405,-3.6405,-3.6405,-3.6405,-3.5454,-3.4856,-3.468,-3.3621,-3.3111,-3.3111,-3.3111,-3.3369,0.0,0.0,0.0,0.0,0.0,0.0,0.0,0.0,0.0,0.0,0.0,0.0,0.0,0.0,0.0,0.0,0.0,0.0,0.0,0.0,0.0,0.0,0.0,0.0,0.0,0.0,0.0,0.0,0.0,-4.3658,-4.241,-4.2321,-4.1715,-4.0428,-3.9313,-3.8461,-3.799,-3.8497,-3.8178,-3.7184,-3.7688,-3.7965,-3.799,-3.799,-3.8015,-3.8015,-3.799,-3.8617,-3.9597,-3.9094,-3.9195,-3.9697,-3.9697,-3.9697,-3.9697,-3.9697,-3.9697,-3.9697,-3.9697,-3.9697,-3.9929,-4.1169,-4.0743,-4.0211,-4.2711,-4.2593,-4.1838,-4.3095,-4.2496,-4.1541,-4.1591,-4.0693,-3.9749,-3.9749,-3.9749,-3.98,-3.98,-4.169,-4.374,-4.5024,-4.4303,-4.3456,-4.3456,-4.1989,-4.0746,-4.0746,-3.9669,-3.8919,-3.8919,-3.9346,-3.9672,-3.9697,-3.917,-3.8617,-3.8065,-3.799,-3.7513,-3.648,-3.6885,-3.6935,-3.643,-3.6405,-3.6405,-3.6405,-3.583,-3.5232,-3.4705,-3.3646,-3.3136,-3.3111,-3.3154,-3.2895,-3.1511,0.0,0.0,0.0,0.0,0.0,0.0,0.0,0.0,0.0,0.0,0.0,0.0,0.0,0.0,0.0,0.0,0.0,0.0,0.0,0.0,0.0,0.0,0.0,0.0,0.0,0.0,0.0,-4.2192,-4.1833,-4.0995,-4.0487,-3.9705,-3.8515,-3.8592,-3.8221,-3.7214,-3.7076,-3.7048,-3.7131,-3.6959,-3.7036,-3.7412,-3.7814,-3.8015,-3.799,-3.7588,-3.7814,-3.8492,-3.8768,-3.9195,-3.9697,-3.9697,-3.9697,-3.9697,-3.9697,-3.9697,-3.9697,-3.9697,-3.9697,-3.9929,-4.1169,-4.1369,-4.129,-4.2555,-4.2289,-4.161,-4.1576,-4.0906,-4.0465,-4.1369,-4.1369,-4.1069,-4.1069,-4.1069,-4.1319,-4.2279,-4.1541,-4.1119,-4.2398,-4.235,-4.2133,-4.2133,-4.0939,-3.9854,-3.9497,-3.9095,-3.8919,-3.8919,-3.9045,-3.9245,-3.9647,-3.8818,-3.8191,-3.8015,-3.7638,-3.7111,-3.6455,-3.6885,-3.6935,-3.643,-3.6405,-3.6405,-3.6405,-3.583,-3.5433,-3.5282,-3.4198,-3.347,-3.3154,-3.465,-3.5251,0.0,0.0,0.0,0.0,0.0,0.0,0.0,0.0,0.0,0.0,0.0,0.0,0.0,0.0,0.0,0.0,0.0,0.0,0.0,0.0,0.0,0.0,0.0,0.0,0.0,0.0,0.0,-4.0546,-4.0576,-4.0277,-3.9589,-3.8931,-3.8258,-3.7616,-3.7967,-3.7621,-3.6487,-3.6466,-3.6401,-3.6278,-3.6525,-3.6651,-3.6739,-3.7347,-3.7492,-3.7312,-3.6985,-3.7161,-3.7688,-3.8015,-3.8642,-3.9346,-3.9346,-3.9496,-3.9697,-3.9697,-3.9697,-3.9697,-3.9697,-3.9697,-3.9826,-4.0541,-4.0794,-4.0867,-4.1293,-4.1156,-4.0716,-4.043,-4.0385,-4.0794,-4.2084,-4.2398,-4.2398,-4.2398,-4.2189,-4.2049,-4.2337,-4.115,-4.056,-4.2079,-4.1541,-4.0794,-4.0794,-4.016,-3.9597,-3.927,-3.922,-3.922,-3.922,-3.922,-3.9346,-3.9672,-3.8894,-3.8366,-3.8366,-3.8065,-3.7538,-3.6807,-3.7236,-3.7186,-3.643,-3.6405,-3.6405,-3.6405,-3.583,-3.5282,-3.4806,-3.4198,-3.3621,-3.3154,-3.5238,-3.5974,0.0,0.0,0.0,0.0,0.0,0.0,-2.9026,-2.8274,-2.7974,0.0,0.0,0.0,0.0,0.0,0.0,0.0,0.0,0.0,0.0,0.0,0.0,0.0,0.0,0.0,0.0,-3.8212,-3.8542,-3.914,-3.92,-3.8931,-3.8302,-3.7734,-3.7375,-3.7315,-3.7375,-3.6931,-3.5963,-3.6388,-3.6146,-3.5195,-3.6206,-3.6481,-3.6147,-3.6656,-3.6774,-3.6492,-3.6351,-3.6631,-3.7086,-3.7086,-3.7764,-3.8844,-3.8894,-3.917,-3.9622,-3.9672,-3.9697,-3.9697,-3.9697,-3.9697,-3.9697,-3.9697,-3.9697,-3.9697,-3.9622,-3.9647,-3.9749,-3.9878,-4.0743,-4.1936,-4.3361,-4.3693,-4.3665,-4.361,-4.3119,-4.2406,-4.1442,-4.0909,-4.1234,-4.3046,-4.1416,-3.9672,-3.9622,-3.9647,-3.9749,-3.9878,-3.98,-3.9749,-3.9878,-3.98,-3.9697,-3.9697,-3.9145,-3.8844,-3.8919,-3.8869,-3.8316,-3.7262,-3.7688,-3.7513,-3.6455,-3.6405,-3.6405,-3.6405,-3.583,-3.4956,-3.3897,-3.3953,-3.3763,-3.3326,-3.544,-3.5894,0.0,0.0,0.0,0.0,0.0,0.0,-2.9804,-2.9322,-2.9112,0.0,0.0,0.0,0.0,0.0,0.0,0.0,0.0,0.0,0.0,0.0,0.0,0.0,0.0,0.0,0.0,-3.6985,-3.7644,-3.7793,-3.7793,-3.7734,-3.7614,-3.7494,-3.7195,-3.6686,-3.7135,-3.7063,-3.6387,-3.6148,-3.5934,-3.5744,-3.5548,-3.5663,-3.6103,-3.5812,-3.614,-3.691,-3.6049,-3.6006,-3.6581,-3.6581,-3.7186,-3.8216,-3.8693,-3.8944,-3.9094,-3.9521,-3.9697,-3.9697,-3.9697,-3.9697,-3.9697,-3.9697,-3.9697,-3.9622,-3.917,-3.9346,-3.9929,-4.0945,-4.1419,-4.2133,-4.4442,-4.5024,-4.4881,-4.435,-4.4122,-4.3946,-4.3766,-4.2435,-4.1625,-4.2647,-4.1153,-3.9546,-3.912,-3.9396,-4.0032,-4.1069,-4.0364,-4.0083,-4.1069,-4.0313,-3.9697,-3.9697,-3.8793,-3.8366,-3.8869,-3.8442,-3.7889,-3.7236,-3.7688,-3.7513,-3.6455,-3.6405,-3.6405,-3.6405,-3.583,-3.4956,-3.3897,-3.434,-3.4491,-3.4428,-3.6515,-3.7396,0.0,0.0,0.0,-3.1599,0.0,0.0,0.0,-2.9564,0.0,0.0,0.0,0.0,0.0,0.0,0.0,0.0,0.0,0.0,0.0,0.0,0.0,0.0,0.0,0.0,0.0,-3.4412,-3.525,-3.5878,-3.6267,-3.6447,-3.6447,-3.6447,-3.6327,-3.5998,-3.6297,-3.6297,-3.5998,-3.5798,-3.5707,-3.5673,-3.5761,-3.5821,-3.5919,-3.6334,-3.6385,-3.6227,-3.627,-3.6187,-3.5981,-3.6304,-3.6732,-3.7262,-3.8115,-3.8617,-3.8944,-3.9496,-3.9697,-3.9697,-3.9697,-3.9697,-3.9697,-3.9697,-3.9697,-3.9647,-3.9371,-3.9702,-4.0631,-4.2849,-4.3235,-4.3491,-4.5737,-4.6109,-4.5742,-4.5419,-4.4832,-4.4192,-4.3647,-4.2934,-4.22,-4.1429,-4.1207,-4.052,-3.8767,-3.9471,-4.0376,-4.0653,-4.0935,-4.112,-4.112,-4.0553,-4.0057,-3.9698,-3.8944,-3.8668,-3.922,-3.8492,-3.7889,-3.7613,-3.7588,-3.7236,-3.643,-3.6405,-3.6279,-3.5956,-3.5927,-3.5524,-3.4719,-3.5737,-3.5709,-3.4759,-3.6855,-3.7805,0.0,0.0,0.0,0.0,0.0,-3.1809,0.0,0.0,0.0,0.0,0.0,0.0,0.0,0.0,0.0,0.0,0.0,0.0,0.0,0.0,0.0,0.0,0.0,0.0,0.0,-3.1899,-3.2766,-3.3814,-3.4412,-3.4801,-3.4921,-3.504,-3.516,-3.531,-3.5429,-3.5519,-3.5519,-3.5519,-3.5519,-3.5519,-3.6058,-3.6157,-3.587,-3.6761,-3.6654,-3.5767,-3.6339,-3.6308,-3.5831,-3.61,-3.6329,-3.6505,-3.7462,-3.8191,-3.8768,-3.932,-3.9597,-3.9697,-3.9697,-3.9697,-3.9672,-3.9572,-3.9726,-3.9931,-3.9854,-4.0402,-4.157,-4.4407,-4.471,-4.466,-4.6618,-4.6621,-4.6082,-4.592,-4.5095,-4.4043,-4.3115,-4.3153,-4.2811,-4.0783,-4.1469,-4.1543,-3.8958,-3.9856,-4.0808,-4.0542,-4.1334,-4.1773,-4.1206,-4.0513,-3.999,-3.9753,-3.902,-3.8768,-3.932,-3.8442,-3.7839,-3.7839,-3.7655,-3.7197,-3.643,-3.6615,-3.6405,-3.5654,-3.6305,-3.6306,-3.563,-3.708,-3.6933,-3.5346,-3.7242,-3.8107,0.0,0.0,0.0,0.0,-3.2916,0.0,0.0,0.0,0.0,0.0,0.0,0.0,0.0,0.0,0.0,0.0,0.0,0.0,0.0,0.0,0.0,0.0,0.0,0.0,0.0,0.0,-3.169,-3.1839,-3.1899,-3.2198,-3.2826,-3.3395,-3.3993,-3.4593,-3.519,-3.5519,-3.5519,-3.5519,-3.5519,-3.5519,-3.5579,-3.5872,-3.6365,-3.5561,-3.6033,-3.7317,-3.5588,-3.5581,-3.6862,-3.5948,-3.5931,-3.6455,-3.7036,-3.7613,-3.8165,-3.8743,-3.927,-3.9697,-3.9697,-3.9697,-3.9622,-3.912,-3.9772,-4.0657,-4.051,-4.1352,-4.262,-4.4077,-4.4048,-4.3965,-4.5892,-4.5933,-4.5274,-4.4676,-4.4436,-4.4276,-4.4124,-4.3696,-4.3105,-4.2449,-4.1965,-4.1412,-4.0546,-4.0941,-4.1781,-4.2846,-4.1324,-4.085,-4.2826,-4.0307,-3.8681,-3.9703,-3.8344,-3.7588,-3.814,-3.7638,-3.7287,-3.7287,-3.8213,-3.7997,-3.6477,-3.7381,-3.7382,-3.6219,-3.7319,-3.7305,-3.6096,-3.7271,-3.7663,-3.7472,-3.8657,-3.9228,0.0,0.0,0.0,0.0,0.0,0.0,-3.2258,0.0,-3.1061,0.0,0.0,0.0,0.0,0.0,0.0,0.0,0.0,0.0,0.0,0.0,0.0,0.0,0.0,0.0,0.0,0.0,0.0,0.0,-3.1271,-3.163,-3.1899,-3.2557,-3.3066,-3.3335,-3.4352,-3.4921,-3.4921,-3.531,-3.5519,-3.5519,-3.5519,-3.5639,-3.5938,-3.5866,-3.5939,-3.6077,-3.6263,-3.6076,-3.5624,-3.6204,-3.6182,-3.5931,-3.6483,-3.7036,-3.7638,-3.8542,-3.9019,-3.927,-3.9597,-3.9697,-3.9647,-3.9421,-3.9525,-3.9941,-4.1298,-4.1786,-4.2314,-4.4356,-4.4431,-4.4204,-4.5418,-4.5214,-4.4646,-4.4377,-4.4018,-4.3708,-4.3708,-4.3798,-4.3707,-4.3112,-4.3089,-4.3113,-4.2847,-4.2439,-4.235,-4.2869,-4.261,-4.248,-4.2783,-4.1485,-4.0383,-3.9823,-3.883,-3.8133,-3.8014,-3.7211,-3.6883,-3.7161,-3.7992,-3.8096,-3.7428,-3.8514,-3.8732,-3.7822,-3.856,-3.854,-3.7636,-3.8356,-3.873,-3.873,-3.9192,-3.9373,-3.163,0.0,0.0,0.0,0.0,0.0,0.0,0.0,0.0,0.0,0.0,0.0,0.0,0.0,0.0,0.0,0.0,0.0,0.0,0.0,0.0,0.0,0.0,0.0,0.0,0.0,0.0,-2.9415,-3.0073,-3.0434,-3.0434,-3.142,-3.2048,-3.2198,-3.3694,-3.4503,-3.4503,-3.516,-3.5519,-3.5519,-3.5519,-3.5519,-3.5519,-3.5998,-3.59,-3.5386,-3.6461,-3.6186,-3.5003,-3.598,-3.6025,-3.5533,-3.5981,-3.6483,-3.7086,-3.804,-3.8642,-3.8944,-3.9145,-3.922,-3.922,-3.922,-3.9196,-3.9486,-4.1032,-4.1627,-4.2165,-4.4027,-4.4281,-4.4197,-4.4855,-4.4526,-4.4047,-4.4047,-4.3648,-4.329,-4.329,-4.3678,-4.3858,-4.3379,-4.3678,-4.4067,-4.4287,-4.3602,-4.3073,-4.3073,-4.3519,-4.3543,-4.2727,-4.2109,-4.1215,-3.9953,-3.9144,-3.8507,-3.8069,-3.7048,-3.6698,-3.7388,-3.8162,-3.8604,-3.8604,-3.9546,-3.9787,-3.9103,-3.9573,-3.9518,-3.8879,-3.9254,-3.9373,-3.9373,-3.9373,-3.9373,0.0,0.0,0.0,-3.169,0.0,0.0,0.0,0.0,-3.2258,0.0,0.0,0.0,0.0,0.0,-2.9355,-2.8727,-2.9116,0.0,0.0,0.0,0.0,0.0,0.0,0.0,0.0,0.0,0.0,-2.6752,-2.7345,-2.7735,-2.7735,-2.9535,-3.0881,-3.1511,-3.3455,-3.4503,-3.4503,-3.516,-3.5519,-3.5519,-3.5519,-3.5519,-3.5519,-3.5519,-3.5878,-3.6376,-3.5421,-3.5384,-3.5989,-3.5018,-3.4968,-3.5508,-3.5508,-3.5906,-3.6505,-3.7036,-3.7939,-3.8844,-3.8241,-3.8065,-3.8065,-3.8065,-3.8871,-3.9744,-3.9189,-4.0663,-4.2566,-4.2651,-4.2996,-4.3469,-4.4167,-4.3828,-4.3319,-4.3319,-4.3319,-4.329,-4.329,-4.3319,-4.3319,-4.329,-4.3319,-4.3529,-4.4197,-4.4276,-4.4276,-4.4276,-4.3324,-4.2798,-4.322,-4.1352,-3.9984,-3.9924,-3.881,-3.8115,-3.8115,-3.7036,-3.6896,-3.7997,-3.921,-3.9842,-3.9842,-4.0349,-4.0256,-3.9584,-4.0094,-4.0024,-3.9367,-3.9403,-3.9373,-3.9373,-3.9373,-3.9373,0.0,0.0,-3.3544,-3.2467,0.0,0.0,0.0,0.0,0.0,0.0,0.0,0.0,0.0,-3.0642,-3.0133,-2.9894,-2.9355,-2.8786,0.0,0.0,0.0,0.0,0.0,0.0,0.0,0.0,0.0,-2.6626,-2.6836,-2.6956,-2.6956,-2.8816,-3.0013,-3.0253,-3.2557,-3.3814,-3.3814,-3.4951,-3.5519,-3.5519,-3.5519,-3.5519,-3.5519,-3.5519,-3.5639,-3.5816,-3.5933,-3.5712,-3.5373,-3.6273,-3.59,-3.4951,-3.6089,-3.6248,-3.5931,-3.6835,-3.7437,-3.7789,-3.7939,-3.7764,-3.7513,-3.7889,-3.8032,-3.8181,-3.8751,-3.9505,-4.0392,-4.1596,-4.2051,-4.2374,-4.3398,-4.3469,-4.329,-4.329,-4.329,-4.329,-4.329,-4.329,-4.329,-4.329,-4.329,-4.3499,-4.4197,-4.4317,-4.4466,-4.4915,-4.4228,-4.3938,-4.4575,-4.3543,-4.2544,-4.1796,-4.1338,-4.0606,-3.9387,-3.8917,-3.8225,-3.7057,-3.9508,-4.0703,-3.9956,-4.1134,-4.1469,-4.079,-4.0539,-4.0068,-3.9373,-3.9373,-3.9373,-3.9373,-3.9373,-3.9373,-3.2138,-3.2796,0.0,-3.2348,-3.2467,0.0,-3.169,0.0,0.0,0.0,0.0,0.0,0.0,0.0,-3.0881,-3.0881,-2.9983,-2.9116,0.0,-2.8218,0.0,0.0,0.0,0.0,0.0,0.0,-2.6866,-2.6626,-2.6811,-2.6866,0.0,0.0,-2.9621,-2.9621,-3.1898,-3.3275,-3.3484,-3.4592,-3.525,-3.5519,-3.5519,-3.5519,-3.5519,-3.5519,-3.5519,-3.5519,-3.5968,-3.5672,-3.4966,-3.6031,-3.5696,-3.4627,-3.5799,-3.5922,-3.5608,-3.6558,-3.6933,-3.696,-3.7513,-3.7487,-3.7211,-3.7362,-3.7312,-3.7281,-3.7835,-3.8318,-3.8857,-4.0055,-4.0972,-4.1753,-4.2508,-4.2981,-4.329,-4.329,-4.329,-4.329,-4.329,-4.2981,-4.282,-4.321,-4.2981,-4.2938,-4.3817,-4.4167,-4.4466,-4.4885,-4.4796,-4.4736,-4.4915,-4.4796,-4.4205,-4.3054,-4.2353,-4.1047,-3.8836,-3.9404,-3.905,-3.7103,-3.9901,-4.1253,-4.0532,-4.1525,-4.2081,-4.2073,-4.0756,-4.0068,-4.0127,-3.9649,-3.9373,-3.9373,-3.9373,-3.9373]}]]